<?xml version="1.0" encoding="utf-8"?>
<gpx xmlns:xsi="http://www.w3.org/2001/XMLSchema-instance" xmlns:xsd="http://www.w3.org/2001/XMLSchema" version="1.1" creator="Shapelink.com" xmlns="http://www.topografix.com/GPX/1/1" xmlns:gpxtpx="http://www.garmin.com/xmlschemas/TrackPointExtension/v1">
  <metadata>
    <name>Løping 4.40 km, 2016-05-09</name>
    <desc></desc>
    <author><name>Stein Falk-Larssen</name></author> 
    <time>1970-01-01T01:00:00Z</time>
  </metadata>
  <trk>
    <name>Løping 4.40 km, 2016-05-09</name>
    <trkseg>
      <trkpt lat="63.42834917" lon="10.37640633">
        <ele>0</ele>
        <time>1970-01-01T01:00:00Z</time>
      </trkpt>
      <trkpt lat="63.42834817" lon="10.37642733">
        <ele>0</ele>
        <time>1970-01-01T01:00:00Z</time>
      </trkpt>
      <trkpt lat="63.42834867" lon="10.37645067">
        <ele>0</ele>
        <time>1970-01-01T01:00:00Z</time>
      </trkpt>
      <trkpt lat="63.42834983" lon="10.3764775">
        <ele>0</ele>
        <time>1970-01-01T01:00:00Z</time>
      </trkpt>
      <trkpt lat="63.4283525" lon="10.376505">
        <ele>0</ele>
        <time>1970-01-01T01:00:00Z</time>
      </trkpt>
      <trkpt lat="63.42835833" lon="10.37653483">
        <ele>0</ele>
        <time>1970-01-01T01:00:00Z</time>
      </trkpt>
      <trkpt lat="63.42836733" lon="10.37656917">
        <ele>0</ele>
        <time>1970-01-01T01:00:00Z</time>
      </trkpt>
      <trkpt lat="63.42837683" lon="10.37659983">
        <ele>0</ele>
        <time>1970-01-01T01:00:00Z</time>
      </trkpt>
      <trkpt lat="63.42838333" lon="10.37662717">
        <ele>0</ele>
        <time>1970-01-01T01:00:00Z</time>
      </trkpt>
      <trkpt lat="63.42839217" lon="10.376646">
        <ele>0</ele>
        <time>1970-01-01T01:00:00Z</time>
      </trkpt>
      <trkpt lat="63.42840583" lon="10.37666483">
        <ele>0</ele>
        <time>1970-01-01T01:00:00Z</time>
      </trkpt>
      <trkpt lat="63.428427" lon="10.37669067">
        <ele>0</ele>
        <time>1970-01-01T01:00:00Z</time>
      </trkpt>
      <trkpt lat="63.4284475" lon="10.37671817">
        <ele>0</ele>
        <time>1970-01-01T01:00:00Z</time>
      </trkpt>
      <trkpt lat="63.42846683" lon="10.37674617">
        <ele>0</ele>
        <time>1970-01-01T01:00:00Z</time>
      </trkpt>
      <trkpt lat="63.42848433" lon="10.376767">
        <ele>0</ele>
        <time>1970-01-01T01:00:00Z</time>
      </trkpt>
      <trkpt lat="63.42850217" lon="10.37677983">
        <ele>0</ele>
        <time>1970-01-01T01:00:00Z</time>
      </trkpt>
      <trkpt lat="63.42852083" lon="10.37678783">
        <ele>0</ele>
        <time>1970-01-01T01:00:00Z</time>
      </trkpt>
      <trkpt lat="63.42853733" lon="10.37679067">
        <ele>0</ele>
        <time>1970-01-01T01:00:00Z</time>
      </trkpt>
      <trkpt lat="63.42855317" lon="10.37679433">
        <ele>0</ele>
        <time>1970-01-01T01:00:00Z</time>
      </trkpt>
      <trkpt lat="63.4285675" lon="10.37679117">
        <ele>0</ele>
        <time>1970-01-01T01:00:00Z</time>
      </trkpt>
      <trkpt lat="63.42858167" lon="10.37677967">
        <ele>0</ele>
        <time>1970-01-01T01:00:00Z</time>
      </trkpt>
      <trkpt lat="63.42859467" lon="10.37676467">
        <ele>0</ele>
        <time>1970-01-01T01:00:00Z</time>
      </trkpt>
      <trkpt lat="63.42860717" lon="10.37675333">
        <ele>0</ele>
        <time>1970-01-01T01:00:00Z</time>
      </trkpt>
      <trkpt lat="63.42862033" lon="10.37674517">
        <ele>0</ele>
        <time>1970-01-01T01:00:00Z</time>
      </trkpt>
      <trkpt lat="63.428639" lon="10.3767365">
        <ele>0</ele>
        <time>1970-01-01T01:00:00Z</time>
      </trkpt>
      <trkpt lat="63.42866033" lon="10.37673067">
        <ele>0</ele>
        <time>1970-01-01T01:00:00Z</time>
      </trkpt>
      <trkpt lat="63.42868317" lon="10.3767245">
        <ele>0</ele>
        <time>1970-01-01T01:00:00Z</time>
      </trkpt>
      <trkpt lat="63.42870283" lon="10.37671767">
        <ele>0</ele>
        <time>1970-01-01T01:00:00Z</time>
      </trkpt>
      <trkpt lat="63.42872217" lon="10.37670483">
        <ele>0</ele>
        <time>1970-01-01T01:00:00Z</time>
      </trkpt>
      <trkpt lat="63.42874083" lon="10.37669267">
        <ele>0</ele>
        <time>1970-01-01T01:00:00Z</time>
      </trkpt>
      <trkpt lat="63.428758" lon="10.376679">
        <ele>0</ele>
        <time>1970-01-01T01:00:00Z</time>
      </trkpt>
      <trkpt lat="63.42877583" lon="10.3766665">
        <ele>0</ele>
        <time>1970-01-01T01:00:00Z</time>
      </trkpt>
      <trkpt lat="63.4287945" lon="10.37665317">
        <ele>0</ele>
        <time>1970-01-01T01:00:00Z</time>
      </trkpt>
      <trkpt lat="63.428815" lon="10.37664333">
        <ele>0</ele>
        <time>1970-01-01T01:00:00Z</time>
      </trkpt>
      <trkpt lat="63.42883683" lon="10.37663533">
        <ele>0</ele>
        <time>1970-01-01T01:00:00Z</time>
      </trkpt>
      <trkpt lat="63.42885783" lon="10.37662933">
        <ele>0</ele>
        <time>1970-01-01T01:00:00Z</time>
      </trkpt>
      <trkpt lat="63.428879" lon="10.37662267">
        <ele>0</ele>
        <time>1970-01-01T01:00:00Z</time>
      </trkpt>
      <trkpt lat="63.42889917" lon="10.3766115">
        <ele>0</ele>
        <time>1970-01-01T01:00:00Z</time>
      </trkpt>
      <trkpt lat="63.42892" lon="10.37659917">
        <ele>0</ele>
        <time>1970-01-01T01:00:00Z</time>
      </trkpt>
      <trkpt lat="63.428941" lon="10.376589">
        <ele>0</ele>
        <time>1970-01-01T01:00:00Z</time>
      </trkpt>
      <trkpt lat="63.4289625" lon="10.3765815">
        <ele>0</ele>
        <time>1970-01-01T01:00:00Z</time>
      </trkpt>
      <trkpt lat="63.42898533" lon="10.37657283">
        <ele>0</ele>
        <time>1970-01-01T01:00:00Z</time>
      </trkpt>
      <trkpt lat="63.42900767" lon="10.37656283">
        <ele>0</ele>
        <time>1970-01-01T01:00:00Z</time>
      </trkpt>
      <trkpt lat="63.429028" lon="10.37654933">
        <ele>0</ele>
        <time>1970-01-01T01:00:00Z</time>
      </trkpt>
      <trkpt lat="63.42904733" lon="10.3765355">
        <ele>0</ele>
        <time>1970-01-01T01:00:00Z</time>
      </trkpt>
      <trkpt lat="63.42906683" lon="10.37651917">
        <ele>0</ele>
        <time>1970-01-01T01:00:00Z</time>
      </trkpt>
      <trkpt lat="63.42908883" lon="10.37650683">
        <ele>0</ele>
        <time>1970-01-01T01:00:00Z</time>
      </trkpt>
      <trkpt lat="63.42911067" lon="10.37649517">
        <ele>0</ele>
        <time>1970-01-01T01:00:00Z</time>
      </trkpt>
      <trkpt lat="63.42913383" lon="10.376486">
        <ele>0</ele>
        <time>1970-01-01T01:00:00Z</time>
      </trkpt>
      <trkpt lat="63.42915717" lon="10.37648067">
        <ele>0</ele>
        <time>1970-01-01T01:00:00Z</time>
      </trkpt>
      <trkpt lat="63.42918233" lon="10.376478">
        <ele>0</ele>
        <time>1970-01-01T01:00:00Z</time>
      </trkpt>
      <trkpt lat="63.4292075" lon="10.376477">
        <ele>0</ele>
        <time>1970-01-01T01:00:00Z</time>
      </trkpt>
      <trkpt lat="63.42923117" lon="10.37647433">
        <ele>0</ele>
        <time>1970-01-01T01:00:00Z</time>
      </trkpt>
      <trkpt lat="63.42925267" lon="10.376474">
        <ele>0</ele>
        <time>1970-01-01T01:00:00Z</time>
      </trkpt>
      <trkpt lat="63.42927283" lon="10.37647067">
        <ele>0</ele>
        <time>1970-01-01T01:00:00Z</time>
      </trkpt>
      <trkpt lat="63.42929483" lon="10.37646067">
        <ele>5.029</ele>
        <time>1970-01-01T01:00:00Z</time>
      </trkpt>
      <trkpt lat="63.42931483" lon="10.37643717">
        <ele>5.029</ele>
        <time>1970-01-01T01:00:00Z</time>
      </trkpt>
      <trkpt lat="63.42933183" lon="10.3764025">
        <ele>5.029</ele>
        <time>1970-01-01T01:00:00Z</time>
      </trkpt>
      <trkpt lat="63.4293445" lon="10.3763575">
        <ele>5.029</ele>
        <time>1970-01-01T01:00:00Z</time>
      </trkpt>
      <trkpt lat="63.42935567" lon="10.37631633">
        <ele>5.182</ele>
        <time>1970-01-01T01:00:00Z</time>
      </trkpt>
      <trkpt lat="63.42936617" lon="10.37627633">
        <ele>5.182</ele>
        <time>1970-01-01T01:00:00Z</time>
      </trkpt>
      <trkpt lat="63.429374" lon="10.37624183">
        <ele>5.334</ele>
        <time>1970-01-01T01:00:00Z</time>
      </trkpt>
      <trkpt lat="63.42938183" lon="10.376207">
        <ele>5.334</ele>
        <time>1970-01-01T01:00:00Z</time>
      </trkpt>
      <trkpt lat="63.42939017" lon="10.37617333">
        <ele>5.639</ele>
        <time>1970-01-01T01:00:00Z</time>
      </trkpt>
      <trkpt lat="63.42940017" lon="10.376141">
        <ele>5.639</ele>
        <time>1970-01-01T01:00:00Z</time>
      </trkpt>
      <trkpt lat="63.42941017" lon="10.3761075">
        <ele>5.944</ele>
        <time>1970-01-01T01:00:00Z</time>
      </trkpt>
      <trkpt lat="63.42941917" lon="10.37607517">
        <ele>5.944</ele>
        <time>1970-01-01T01:00:00Z</time>
      </trkpt>
      <trkpt lat="63.42942683" lon="10.37604433">
        <ele>6.401</ele>
        <time>1970-01-01T01:00:00Z</time>
      </trkpt>
      <trkpt lat="63.42943483" lon="10.3760135">
        <ele>6.401</ele>
        <time>1970-01-01T01:00:00Z</time>
      </trkpt>
      <trkpt lat="63.4294435" lon="10.3759845">
        <ele>6.858</ele>
        <time>1970-01-01T01:00:00Z</time>
      </trkpt>
      <trkpt lat="63.42945317" lon="10.37595733">
        <ele>6.858</ele>
        <time>1970-01-01T01:00:00Z</time>
      </trkpt>
      <trkpt lat="63.42946283" lon="10.37593067">
        <ele>7.468</ele>
        <time>1970-01-01T01:00:00Z</time>
      </trkpt>
      <trkpt lat="63.42947383" lon="10.375904">
        <ele>7.468</ele>
        <time>1970-01-01T01:00:00Z</time>
      </trkpt>
      <trkpt lat="63.42948367" lon="10.375876">
        <ele>7.925</ele>
        <time>1970-01-01T01:00:00Z</time>
      </trkpt>
      <trkpt lat="63.42949033" lon="10.37585033">
        <ele>7.925</ele>
        <time>1970-01-01T01:00:00Z</time>
      </trkpt>
      <trkpt lat="63.429496" lon="10.37582567">
        <ele>8.535</ele>
        <time>1970-01-01T01:00:00Z</time>
      </trkpt>
      <trkpt lat="63.42950267" lon="10.37580467">
        <ele>8.535</ele>
        <time>1970-01-01T01:00:00Z</time>
      </trkpt>
      <trkpt lat="63.42951283" lon="10.37578467">
        <ele>9.144</ele>
        <time>1970-01-01T01:00:00Z</time>
      </trkpt>
      <trkpt lat="63.42952367" lon="10.37576567">
        <ele>9.144</ele>
        <time>1970-01-01T01:00:00Z</time>
      </trkpt>
      <trkpt lat="63.42953617" lon="10.375741">
        <ele>9.601</ele>
        <time>1970-01-01T01:00:00Z</time>
      </trkpt>
      <trkpt lat="63.42954867" lon="10.37571533">
        <ele>9.601</ele>
        <time>1970-01-01T01:00:00Z</time>
      </trkpt>
      <trkpt lat="63.42956217" lon="10.37568983">
        <ele>10.211</ele>
        <time>1970-01-01T01:00:00Z</time>
      </trkpt>
      <trkpt lat="63.42957567" lon="10.375669">
        <ele>10.211</ele>
        <time>1970-01-01T01:00:00Z</time>
      </trkpt>
      <trkpt lat="63.42958867" lon="10.37564917">
        <ele>10.668</ele>
        <time>1970-01-01T01:00:00Z</time>
      </trkpt>
      <trkpt lat="63.42960017" lon="10.375631">
        <ele>10.668</ele>
        <time>1970-01-01T01:00:00Z</time>
      </trkpt>
      <trkpt lat="63.4296105" lon="10.37561433">
        <ele>11.125</ele>
        <time>1970-01-01T01:00:00Z</time>
      </trkpt>
      <trkpt lat="63.42962167" lon="10.37559883">
        <ele>11.125</ele>
        <time>1970-01-01T01:00:00Z</time>
      </trkpt>
      <trkpt lat="63.42963717" lon="10.37558517">
        <ele>11.583</ele>
        <time>1970-01-01T01:00:00Z</time>
      </trkpt>
      <trkpt lat="63.42965383" lon="10.37557267">
        <ele>11.583</ele>
        <time>1970-01-01T01:00:00Z</time>
      </trkpt>
      <trkpt lat="63.4296705" lon="10.3755615">
        <ele>12.04</ele>
        <time>1970-01-01T01:00:00Z</time>
      </trkpt>
      <trkpt lat="63.4296855" lon="10.37554583">
        <ele>12.04</ele>
        <time>1970-01-01T01:00:00Z</time>
      </trkpt>
      <trkpt lat="63.4297" lon="10.37552683">
        <ele>12.345</ele>
        <time>1970-01-01T01:00:00Z</time>
      </trkpt>
      <trkpt lat="63.4297135" lon="10.37550633">
        <ele>12.345</ele>
        <time>1970-01-01T01:00:00Z</time>
      </trkpt>
      <trkpt lat="63.42972683" lon="10.37548717">
        <ele>12.802</ele>
        <time>1970-01-01T01:00:00Z</time>
      </trkpt>
      <trkpt lat="63.42974267" lon="10.3754705">
        <ele>12.802</ele>
        <time>1970-01-01T01:00:00Z</time>
      </trkpt>
      <trkpt lat="63.42976167" lon="10.37544983">
        <ele>13.259</ele>
        <time>1970-01-01T01:00:00Z</time>
      </trkpt>
      <trkpt lat="63.429782" lon="10.37542717">
        <ele>13.259</ele>
        <time>1970-01-01T01:00:00Z</time>
      </trkpt>
      <trkpt lat="63.4298015" lon="10.3753965">
        <ele>13.716</ele>
        <time>1970-01-01T01:00:00Z</time>
      </trkpt>
      <trkpt lat="63.42981983" lon="10.37536767">
        <ele>13.716</ele>
        <time>1970-01-01T01:00:00Z</time>
      </trkpt>
      <trkpt lat="63.42983517" lon="10.375337">
        <ele>14.173</ele>
        <time>1970-01-01T01:00:00Z</time>
      </trkpt>
      <trkpt lat="63.42985167" lon="10.37530417">
        <ele>14.173</ele>
        <time>1970-01-01T01:00:00Z</time>
      </trkpt>
      <trkpt lat="63.4298675" lon="10.37526817">
        <ele>14.478</ele>
        <time>1970-01-01T01:00:00Z</time>
      </trkpt>
      <trkpt lat="63.42988217" lon="10.37523133">
        <ele>14.478</ele>
        <time>1970-01-01T01:00:00Z</time>
      </trkpt>
      <trkpt lat="63.429895" lon="10.37519267">
        <ele>14.631</ele>
        <time>1970-01-01T01:00:00Z</time>
      </trkpt>
      <trkpt lat="63.42991017" lon="10.375152">
        <ele>14.631</ele>
        <time>1970-01-01T01:00:00Z</time>
      </trkpt>
      <trkpt lat="63.42992617" lon="10.37511183">
        <ele>14.783</ele>
        <time>1970-01-01T01:00:00Z</time>
      </trkpt>
      <trkpt lat="63.42994267" lon="10.375078">
        <ele>14.783</ele>
        <time>1970-01-01T01:00:00Z</time>
      </trkpt>
      <trkpt lat="63.42995683" lon="10.375044">
        <ele>14.935</ele>
        <time>1970-01-01T01:00:00Z</time>
      </trkpt>
      <trkpt lat="63.42997083" lon="10.37501533">
        <ele>14.935</ele>
        <time>1970-01-01T01:00:00Z</time>
      </trkpt>
      <trkpt lat="63.42998167" lon="10.37498633">
        <ele>15.088</ele>
        <time>1970-01-01T01:00:00Z</time>
      </trkpt>
      <trkpt lat="63.4299925" lon="10.3749545">
        <ele>15.088</ele>
        <time>1970-01-01T01:00:00Z</time>
      </trkpt>
      <trkpt lat="63.4300035" lon="10.37491433">
        <ele>15.24</ele>
        <time>1970-01-01T01:00:00Z</time>
      </trkpt>
      <trkpt lat="63.43001367" lon="10.37487233">
        <ele>15.24</ele>
        <time>1970-01-01T01:00:00Z</time>
      </trkpt>
      <trkpt lat="63.4300215" lon="10.37483633">
        <ele>15.393</ele>
        <time>1970-01-01T01:00:00Z</time>
      </trkpt>
      <trkpt lat="63.430026" lon="10.37479733">
        <ele>15.393</ele>
        <time>1970-01-01T01:00:00Z</time>
      </trkpt>
      <trkpt lat="63.43002483" lon="10.37475633">
        <ele>15.393</ele>
        <time>1970-01-01T01:00:00Z</time>
      </trkpt>
      <trkpt lat="63.43001917" lon="10.374711">
        <ele>15.393</ele>
        <time>1970-01-01T01:00:00Z</time>
      </trkpt>
      <trkpt lat="63.4300105" lon="10.374669">
        <ele>15.393</ele>
        <time>1970-01-01T01:00:00Z</time>
      </trkpt>
      <trkpt lat="63.430001" lon="10.37462583">
        <ele>15.393</ele>
        <time>1970-01-01T01:00:00Z</time>
      </trkpt>
      <trkpt lat="63.429991" lon="10.3745845">
        <ele>15.545</ele>
        <time>1970-01-01T01:00:00Z</time>
      </trkpt>
      <trkpt lat="63.42998183" lon="10.37454633">
        <ele>15.545</ele>
        <time>1970-01-01T01:00:00Z</time>
      </trkpt>
      <trkpt lat="63.4299725" lon="10.37450817">
        <ele>15.697</ele>
        <time>1970-01-01T01:00:00Z</time>
      </trkpt>
      <trkpt lat="63.429961" lon="10.3744695">
        <ele>15.697</ele>
        <time>1970-01-01T01:00:00Z</time>
      </trkpt>
      <trkpt lat="63.42994883" lon="10.37442883">
        <ele>15.85</ele>
        <time>1970-01-01T01:00:00Z</time>
      </trkpt>
      <trkpt lat="63.42993833" lon="10.374391">
        <ele>15.85</ele>
        <time>1970-01-01T01:00:00Z</time>
      </trkpt>
      <trkpt lat="63.4299285" lon="10.37435067">
        <ele>16.002</ele>
        <time>1970-01-01T01:00:00Z</time>
      </trkpt>
      <trkpt lat="63.42991967" lon="10.3743095">
        <ele>16.002</ele>
        <time>1970-01-01T01:00:00Z</time>
      </trkpt>
      <trkpt lat="63.42990983" lon="10.37426733">
        <ele>16.307</ele>
        <time>1970-01-01T01:00:00Z</time>
      </trkpt>
      <trkpt lat="63.42990033" lon="10.374225">
        <ele>16.307</ele>
        <time>1970-01-01T01:00:00Z</time>
      </trkpt>
      <trkpt lat="63.4298885" lon="10.3741795">
        <ele>16.459</ele>
        <time>1970-01-01T01:00:00Z</time>
      </trkpt>
      <trkpt lat="63.42987783" lon="10.37413217">
        <ele>16.459</ele>
        <time>1970-01-01T01:00:00Z</time>
      </trkpt>
      <trkpt lat="63.42986817" lon="10.37408217">
        <ele>16.764</ele>
        <time>1970-01-01T01:00:00Z</time>
      </trkpt>
      <trkpt lat="63.42986" lon="10.374032">
        <ele>16.764</ele>
        <time>1970-01-01T01:00:00Z</time>
      </trkpt>
      <trkpt lat="63.42985083" lon="10.37398383">
        <ele>17.069</ele>
        <time>1970-01-01T01:00:00Z</time>
      </trkpt>
      <trkpt lat="63.429842" lon="10.3739375">
        <ele>17.069</ele>
        <time>1970-01-01T01:00:00Z</time>
      </trkpt>
      <trkpt lat="63.42983167" lon="10.3738945">
        <ele>17.374</ele>
        <time>1970-01-01T01:00:00Z</time>
      </trkpt>
      <trkpt lat="63.42982117" lon="10.3738505">
        <ele>17.374</ele>
        <time>1970-01-01T01:00:00Z</time>
      </trkpt>
      <trkpt lat="63.42981033" lon="10.37380833">
        <ele>17.679</ele>
        <time>1970-01-01T01:00:00Z</time>
      </trkpt>
      <trkpt lat="63.42979867" lon="10.37376283">
        <ele>17.679</ele>
        <time>1970-01-01T01:00:00Z</time>
      </trkpt>
      <trkpt lat="63.42978883" lon="10.37371683">
        <ele>17.983</ele>
        <time>1970-01-01T01:00:00Z</time>
      </trkpt>
      <trkpt lat="63.42977733" lon="10.37367133">
        <ele>17.983</ele>
        <time>1970-01-01T01:00:00Z</time>
      </trkpt>
      <trkpt lat="63.42976767" lon="10.373625">
        <ele>18.288</ele>
        <time>1970-01-01T01:00:00Z</time>
      </trkpt>
      <trkpt lat="63.429756" lon="10.37356933">
        <ele>18.288</ele>
        <time>1970-01-01T01:00:00Z</time>
      </trkpt>
      <trkpt lat="63.42974583" lon="10.37351417">
        <ele>18.288</ele>
        <time>1970-01-01T01:00:00Z</time>
      </trkpt>
      <trkpt lat="63.42973767" lon="10.37345833">
        <ele>18.288</ele>
        <time>1970-01-01T01:00:00Z</time>
      </trkpt>
      <trkpt lat="63.42973083" lon="10.373406">
        <ele>18.288</ele>
        <time>1970-01-01T01:00:00Z</time>
      </trkpt>
      <trkpt lat="63.42972467" lon="10.373353">
        <ele>18.288</ele>
        <time>1970-01-01T01:00:00Z</time>
      </trkpt>
      <trkpt lat="63.42971783" lon="10.37330383">
        <ele>17.983</ele>
        <time>1970-01-01T01:00:00Z</time>
      </trkpt>
      <trkpt lat="63.429712" lon="10.37325833">
        <ele>17.983</ele>
        <time>1970-01-01T01:00:00Z</time>
      </trkpt>
      <trkpt lat="63.42970583" lon="10.37321017">
        <ele>17.831</ele>
        <time>1970-01-01T01:00:00Z</time>
      </trkpt>
      <trkpt lat="63.42970133" lon="10.37315983">
        <ele>17.831</ele>
        <time>1970-01-01T01:00:00Z</time>
      </trkpt>
      <trkpt lat="63.42970083" lon="10.37311433">
        <ele>17.374</ele>
        <time>1970-01-01T01:00:00Z</time>
      </trkpt>
      <trkpt lat="63.42970183" lon="10.37306883">
        <ele>17.374</ele>
        <time>1970-01-01T01:00:00Z</time>
      </trkpt>
      <trkpt lat="63.4297005" lon="10.373025">
        <ele>17.069</ele>
        <time>1970-01-01T01:00:00Z</time>
      </trkpt>
      <trkpt lat="63.429691" lon="10.372983">
        <ele>17.069</ele>
        <time>1970-01-01T01:00:00Z</time>
      </trkpt>
      <trkpt lat="63.4296775" lon="10.3729425">
        <ele>16.764</ele>
        <time>1970-01-01T01:00:00Z</time>
      </trkpt>
      <trkpt lat="63.429661" lon="10.37290483">
        <ele>16.764</ele>
        <time>1970-01-01T01:00:00Z</time>
      </trkpt>
      <trkpt lat="63.42964517" lon="10.372867">
        <ele>16.612</ele>
        <time>1970-01-01T01:00:00Z</time>
      </trkpt>
      <trkpt lat="63.42962983" lon="10.37283183">
        <ele>16.612</ele>
        <time>1970-01-01T01:00:00Z</time>
      </trkpt>
      <trkpt lat="63.42961333" lon="10.37279783">
        <ele>16.459</ele>
        <time>1970-01-01T01:00:00Z</time>
      </trkpt>
      <trkpt lat="63.42959783" lon="10.37276467">
        <ele>16.459</ele>
        <time>1970-01-01T01:00:00Z</time>
      </trkpt>
      <trkpt lat="63.42958233" lon="10.37273217">
        <ele>16.459</ele>
        <time>1970-01-01T01:00:00Z</time>
      </trkpt>
      <trkpt lat="63.429566" lon="10.3727005">
        <ele>16.459</ele>
        <time>1970-01-01T01:00:00Z</time>
      </trkpt>
      <trkpt lat="63.42954867" lon="10.37266683">
        <ele>16.612</ele>
        <time>1970-01-01T01:00:00Z</time>
      </trkpt>
      <trkpt lat="63.4295305" lon="10.37263633">
        <ele>16.612</ele>
        <time>1970-01-01T01:00:00Z</time>
      </trkpt>
      <trkpt lat="63.42951383" lon="10.37260417">
        <ele>16.764</ele>
        <time>1970-01-01T01:00:00Z</time>
      </trkpt>
      <trkpt lat="63.42949633" lon="10.37257267">
        <ele>16.764</ele>
        <time>1970-01-01T01:00:00Z</time>
      </trkpt>
      <trkpt lat="63.42947917" lon="10.3725425">
        <ele>17.069</ele>
        <time>1970-01-01T01:00:00Z</time>
      </trkpt>
      <trkpt lat="63.42946133" lon="10.37251483">
        <ele>17.069</ele>
        <time>1970-01-01T01:00:00Z</time>
      </trkpt>
      <trkpt lat="63.42944417" lon="10.37248833">
        <ele>17.374</ele>
        <time>1970-01-01T01:00:00Z</time>
      </trkpt>
      <trkpt lat="63.42942683" lon="10.37245933">
        <ele>17.374</ele>
        <time>1970-01-01T01:00:00Z</time>
      </trkpt>
      <trkpt lat="63.42941183" lon="10.3724285">
        <ele>17.679</ele>
        <time>1970-01-01T01:00:00Z</time>
      </trkpt>
      <trkpt lat="63.42939567" lon="10.3723955">
        <ele>17.679</ele>
        <time>1970-01-01T01:00:00Z</time>
      </trkpt>
      <trkpt lat="63.42937983" lon="10.37236167">
        <ele>17.983</ele>
        <time>1970-01-01T01:00:00Z</time>
      </trkpt>
      <trkpt lat="63.42936517" lon="10.37233">
        <ele>17.983</ele>
        <time>1970-01-01T01:00:00Z</time>
      </trkpt>
      <trkpt lat="63.4293505" lon="10.37229917">
        <ele>18.441</ele>
        <time>1970-01-01T01:00:00Z</time>
      </trkpt>
      <trkpt lat="63.4293355" lon="10.37226983">
        <ele>18.441</ele>
        <time>1970-01-01T01:00:00Z</time>
      </trkpt>
      <trkpt lat="63.4293175" lon="10.3722395">
        <ele>18.898</ele>
        <time>1970-01-01T01:00:00Z</time>
      </trkpt>
      <trkpt lat="63.4293015" lon="10.37220717">
        <ele>18.898</ele>
        <time>1970-01-01T01:00:00Z</time>
      </trkpt>
      <trkpt lat="63.4292855" lon="10.37217467">
        <ele>19.355</ele>
        <time>1970-01-01T01:00:00Z</time>
      </trkpt>
      <trkpt lat="63.42927" lon="10.3721415">
        <ele>19.355</ele>
        <time>1970-01-01T01:00:00Z</time>
      </trkpt>
      <trkpt lat="63.42925367" lon="10.37211333">
        <ele>19.812</ele>
        <time>1970-01-01T01:00:00Z</time>
      </trkpt>
      <trkpt lat="63.42923617" lon="10.37208217">
        <ele>19.812</ele>
        <time>1970-01-01T01:00:00Z</time>
      </trkpt>
      <trkpt lat="63.4292195" lon="10.372053">
        <ele>20.422</ele>
        <time>1970-01-01T01:00:00Z</time>
      </trkpt>
      <trkpt lat="63.42920483" lon="10.37202333">
        <ele>20.422</ele>
        <time>1970-01-01T01:00:00Z</time>
      </trkpt>
      <trkpt lat="63.42919033" lon="10.37199683">
        <ele>21.031</ele>
        <time>1970-01-01T01:00:00Z</time>
      </trkpt>
      <trkpt lat="63.429174" lon="10.371967">
        <ele>21.031</ele>
        <time>1970-01-01T01:00:00Z</time>
      </trkpt>
      <trkpt lat="63.42915533" lon="10.3719395">
        <ele>21.793</ele>
        <time>1970-01-01T01:00:00Z</time>
      </trkpt>
      <trkpt lat="63.429137" lon="10.37191367">
        <ele>21.793</ele>
        <time>1970-01-01T01:00:00Z</time>
      </trkpt>
      <trkpt lat="63.42912" lon="10.37189067">
        <ele>22.403</ele>
        <time>1970-01-01T01:00:00Z</time>
      </trkpt>
      <trkpt lat="63.42910433" lon="10.3718655">
        <ele>22.403</ele>
        <time>1970-01-01T01:00:00Z</time>
      </trkpt>
      <trkpt lat="63.42908917" lon="10.37184017">
        <ele>23.013</ele>
        <time>1970-01-01T01:00:00Z</time>
      </trkpt>
      <trkpt lat="63.42907517" lon="10.371813">
        <ele>23.013</ele>
        <time>1970-01-01T01:00:00Z</time>
      </trkpt>
      <trkpt lat="63.42905967" lon="10.3717855">
        <ele>23.622</ele>
        <time>1970-01-01T01:00:00Z</time>
      </trkpt>
      <trkpt lat="63.429045" lon="10.37175517">
        <ele>23.622</ele>
        <time>1970-01-01T01:00:00Z</time>
      </trkpt>
      <trkpt lat="63.42902817" lon="10.3717195">
        <ele>24.079</ele>
        <time>1970-01-01T01:00:00Z</time>
      </trkpt>
      <trkpt lat="63.42901267" lon="10.371678">
        <ele>24.079</ele>
        <time>1970-01-01T01:00:00Z</time>
      </trkpt>
      <trkpt lat="63.42899467" lon="10.371635">
        <ele>24.689</ele>
        <time>1970-01-01T01:00:00Z</time>
      </trkpt>
      <trkpt lat="63.42897783" lon="10.3715985">
        <ele>24.689</ele>
        <time>1970-01-01T01:00:00Z</time>
      </trkpt>
      <trkpt lat="63.428962" lon="10.37156583">
        <ele>25.451</ele>
        <time>1970-01-01T01:00:00Z</time>
      </trkpt>
      <trkpt lat="63.42894867" lon="10.3715345">
        <ele>25.451</ele>
        <time>1970-01-01T01:00:00Z</time>
      </trkpt>
      <trkpt lat="63.4289335" lon="10.37150333">
        <ele>26.213</ele>
        <time>1970-01-01T01:00:00Z</time>
      </trkpt>
      <trkpt lat="63.42891667" lon="10.3714755">
        <ele>26.213</ele>
        <time>1970-01-01T01:00:00Z</time>
      </trkpt>
      <trkpt lat="63.42889867" lon="10.3714465">
        <ele>26.823</ele>
        <time>1970-01-01T01:00:00Z</time>
      </trkpt>
      <trkpt lat="63.42888383" lon="10.37141583">
        <ele>26.823</ele>
        <time>1970-01-01T01:00:00Z</time>
      </trkpt>
      <trkpt lat="63.428869" lon="10.37138233">
        <ele>27.128</ele>
        <time>1970-01-01T01:00:00Z</time>
      </trkpt>
      <trkpt lat="63.4288545" lon="10.37135267">
        <ele>27.128</ele>
        <time>1970-01-01T01:00:00Z</time>
      </trkpt>
      <trkpt lat="63.428837" lon="10.37132333">
        <ele>27.28</ele>
        <time>1970-01-01T01:00:00Z</time>
      </trkpt>
      <trkpt lat="63.42881733" lon="10.3712985">
        <ele>27.28</ele>
        <time>1970-01-01T01:00:00Z</time>
      </trkpt>
      <trkpt lat="63.42879683" lon="10.37127617">
        <ele>27.432</ele>
        <time>1970-01-01T01:00:00Z</time>
      </trkpt>
      <trkpt lat="63.428779" lon="10.3712545">
        <ele>27.432</ele>
        <time>1970-01-01T01:00:00Z</time>
      </trkpt>
      <trkpt lat="63.42876267" lon="10.37123117">
        <ele>27.737</ele>
        <time>1970-01-01T01:00:00Z</time>
      </trkpt>
      <trkpt lat="63.42874967" lon="10.37120833">
        <ele>27.737</ele>
        <time>1970-01-01T01:00:00Z</time>
      </trkpt>
      <trkpt lat="63.42873267" lon="10.37118933">
        <ele>28.042</ele>
        <time>1970-01-01T01:00:00Z</time>
      </trkpt>
      <trkpt lat="63.42871217" lon="10.37117067">
        <ele>28.042</ele>
        <time>1970-01-01T01:00:00Z</time>
      </trkpt>
      <trkpt lat="63.42868967" lon="10.3711445">
        <ele>28.499</ele>
        <time>1970-01-01T01:00:00Z</time>
      </trkpt>
      <trkpt lat="63.4286695" lon="10.37111467">
        <ele>28.499</ele>
        <time>1970-01-01T01:00:00Z</time>
      </trkpt>
      <trkpt lat="63.4286535" lon="10.371084">
        <ele>28.956</ele>
        <time>1970-01-01T01:00:00Z</time>
      </trkpt>
      <trkpt lat="63.4286365" lon="10.3710585">
        <ele>28.956</ele>
        <time>1970-01-01T01:00:00Z</time>
      </trkpt>
      <trkpt lat="63.42862" lon="10.371035">
        <ele>29.414</ele>
        <time>1970-01-01T01:00:00Z</time>
      </trkpt>
      <trkpt lat="63.42860333" lon="10.37101717">
        <ele>29.414</ele>
        <time>1970-01-01T01:00:00Z</time>
      </trkpt>
      <trkpt lat="63.428586" lon="10.3709995">
        <ele>30.023</ele>
        <time>1970-01-01T01:00:00Z</time>
      </trkpt>
      <trkpt lat="63.42856833" lon="10.370978">
        <ele>30.023</ele>
        <time>1970-01-01T01:00:00Z</time>
      </trkpt>
      <trkpt lat="63.42855017" lon="10.37095167">
        <ele>30.633</ele>
        <time>1970-01-01T01:00:00Z</time>
      </trkpt>
      <trkpt lat="63.428531" lon="10.37092067">
        <ele>30.633</ele>
        <time>1970-01-01T01:00:00Z</time>
      </trkpt>
      <trkpt lat="63.4285105" lon="10.37089617">
        <ele>31.242</ele>
        <time>1970-01-01T01:00:00Z</time>
      </trkpt>
      <trkpt lat="63.4284925" lon="10.37087517">
        <ele>31.242</ele>
        <time>1970-01-01T01:00:00Z</time>
      </trkpt>
      <trkpt lat="63.4284775" lon="10.37085983">
        <ele>31.852</ele>
        <time>1970-01-01T01:00:00Z</time>
      </trkpt>
      <trkpt lat="63.42846367" lon="10.37083933">
        <ele>31.852</ele>
        <time>1970-01-01T01:00:00Z</time>
      </trkpt>
      <trkpt lat="63.42844917" lon="10.37081933">
        <ele>32.614</ele>
        <time>1970-01-01T01:00:00Z</time>
      </trkpt>
      <trkpt lat="63.42843117" lon="10.37079933">
        <ele>32.614</ele>
        <time>1970-01-01T01:00:00Z</time>
      </trkpt>
      <trkpt lat="63.42841317" lon="10.37078317">
        <ele>33.528</ele>
        <time>1970-01-01T01:00:00Z</time>
      </trkpt>
      <trkpt lat="63.42839483" lon="10.37076467">
        <ele>33.528</ele>
        <time>1970-01-01T01:00:00Z</time>
      </trkpt>
      <trkpt lat="63.428377" lon="10.370747">
        <ele>34.29</ele>
        <time>1970-01-01T01:00:00Z</time>
      </trkpt>
      <trkpt lat="63.42835433" lon="10.37072767">
        <ele>34.29</ele>
        <time>1970-01-01T01:00:00Z</time>
      </trkpt>
      <trkpt lat="63.4283275" lon="10.37070017">
        <ele>35.205</ele>
        <time>1970-01-01T01:00:00Z</time>
      </trkpt>
      <trkpt lat="63.42829667" lon="10.37066017">
        <ele>35.205</ele>
        <time>1970-01-01T01:00:00Z</time>
      </trkpt>
      <trkpt lat="63.42826817" lon="10.37061283">
        <ele>35.967</ele>
        <time>1970-01-01T01:00:00Z</time>
      </trkpt>
      <trkpt lat="63.42824033" lon="10.37056767">
        <ele>35.967</ele>
        <time>1970-01-01T01:00:00Z</time>
      </trkpt>
      <trkpt lat="63.42821617" lon="10.37053033">
        <ele>36.729</ele>
        <time>1970-01-01T01:00:00Z</time>
      </trkpt>
      <trkpt lat="63.4281925" lon="10.37049833">
        <ele>36.729</ele>
        <time>1970-01-01T01:00:00Z</time>
      </trkpt>
      <trkpt lat="63.4281705" lon="10.37046867">
        <ele>37.186</ele>
        <time>1970-01-01T01:00:00Z</time>
      </trkpt>
      <trkpt lat="63.42814983" lon="10.37043883">
        <ele>37.186</ele>
        <time>1970-01-01T01:00:00Z</time>
      </trkpt>
      <trkpt lat="63.42812783" lon="10.37041217">
        <ele>37.643</ele>
        <time>1970-01-01T01:00:00Z</time>
      </trkpt>
      <trkpt lat="63.428108" lon="10.37038667">
        <ele>37.643</ele>
        <time>1970-01-01T01:00:00Z</time>
      </trkpt>
      <trkpt lat="63.4280885" lon="10.37036633">
        <ele>37.948</ele>
        <time>1970-01-01T01:00:00Z</time>
      </trkpt>
      <trkpt lat="63.42807133" lon="10.37034783">
        <ele>37.948</ele>
        <time>1970-01-01T01:00:00Z</time>
      </trkpt>
      <trkpt lat="63.42805217" lon="10.37033233">
        <ele>38.253</ele>
        <time>1970-01-01T01:00:00Z</time>
      </trkpt>
      <trkpt lat="63.42802983" lon="10.37031467">
        <ele>38.253</ele>
        <time>1970-01-01T01:00:00Z</time>
      </trkpt>
      <trkpt lat="63.42800733" lon="10.37029933">
        <ele>38.558</ele>
        <time>1970-01-01T01:00:00Z</time>
      </trkpt>
      <trkpt lat="63.42798433" lon="10.3702855">
        <ele>38.558</ele>
        <time>1970-01-01T01:00:00Z</time>
      </trkpt>
      <trkpt lat="63.42796017" lon="10.370273">
        <ele>38.862</ele>
        <time>1970-01-01T01:00:00Z</time>
      </trkpt>
      <trkpt lat="63.42793583" lon="10.37026233">
        <ele>38.862</ele>
        <time>1970-01-01T01:00:00Z</time>
      </trkpt>
      <trkpt lat="63.42791083" lon="10.37025133">
        <ele>39.167</ele>
        <time>1970-01-01T01:00:00Z</time>
      </trkpt>
      <trkpt lat="63.42789033" lon="10.37024217">
        <ele>39.167</ele>
        <time>1970-01-01T01:00:00Z</time>
      </trkpt>
      <trkpt lat="63.42787167" lon="10.37023083">
        <ele>39.472</ele>
        <time>1970-01-01T01:00:00Z</time>
      </trkpt>
      <trkpt lat="63.42785417" lon="10.37022017">
        <ele>39.472</ele>
        <time>1970-01-01T01:00:00Z</time>
      </trkpt>
      <trkpt lat="63.4278355" lon="10.37020883">
        <ele>39.929</ele>
        <time>1970-01-01T01:00:00Z</time>
      </trkpt>
      <trkpt lat="63.42781467" lon="10.370195">
        <ele>39.929</ele>
        <time>1970-01-01T01:00:00Z</time>
      </trkpt>
      <trkpt lat="63.42779317" lon="10.370179">
        <ele>40.386</ele>
        <time>1970-01-01T01:00:00Z</time>
      </trkpt>
      <trkpt lat="63.42777" lon="10.37015883">
        <ele>40.386</ele>
        <time>1970-01-01T01:00:00Z</time>
      </trkpt>
      <trkpt lat="63.4277455" lon="10.3701385">
        <ele>40.844</ele>
        <time>1970-01-01T01:00:00Z</time>
      </trkpt>
      <trkpt lat="63.42772083" lon="10.37012">
        <ele>40.844</ele>
        <time>1970-01-01T01:00:00Z</time>
      </trkpt>
      <trkpt lat="63.42769683" lon="10.37010533">
        <ele>41.301</ele>
        <time>1970-01-01T01:00:00Z</time>
      </trkpt>
      <trkpt lat="63.42767433" lon="10.37009333">
        <ele>41.301</ele>
        <time>1970-01-01T01:00:00Z</time>
      </trkpt>
      <trkpt lat="63.42765233" lon="10.37008783">
        <ele>41.758</ele>
        <time>1970-01-01T01:00:00Z</time>
      </trkpt>
      <trkpt lat="63.42763083" lon="10.37008533">
        <ele>41.758</ele>
        <time>1970-01-01T01:00:00Z</time>
      </trkpt>
      <trkpt lat="63.427609" lon="10.37008333">
        <ele>42.215</ele>
        <time>1970-01-01T01:00:00Z</time>
      </trkpt>
      <trkpt lat="63.4275885" lon="10.37007633">
        <ele>42.215</ele>
        <time>1970-01-01T01:00:00Z</time>
      </trkpt>
      <trkpt lat="63.42756833" lon="10.37007183">
        <ele>42.673</ele>
        <time>1970-01-01T01:00:00Z</time>
      </trkpt>
      <trkpt lat="63.42754833" lon="10.370067">
        <ele>42.673</ele>
        <time>1970-01-01T01:00:00Z</time>
      </trkpt>
      <trkpt lat="63.427527" lon="10.370063">
        <ele>43.13</ele>
        <time>1970-01-01T01:00:00Z</time>
      </trkpt>
      <trkpt lat="63.427504" lon="10.37005767">
        <ele>43.13</ele>
        <time>1970-01-01T01:00:00Z</time>
      </trkpt>
      <trkpt lat="63.4274795" lon="10.3700505">
        <ele>43.739</ele>
        <time>1970-01-01T01:00:00Z</time>
      </trkpt>
      <trkpt lat="63.4274535" lon="10.3700385">
        <ele>43.739</ele>
        <time>1970-01-01T01:00:00Z</time>
      </trkpt>
      <trkpt lat="63.42743067" lon="10.37002617">
        <ele>44.197</ele>
        <time>1970-01-01T01:00:00Z</time>
      </trkpt>
      <trkpt lat="63.42740767" lon="10.370014">
        <ele>44.197</ele>
        <time>1970-01-01T01:00:00Z</time>
      </trkpt>
      <trkpt lat="63.4273845" lon="10.37001">
        <ele>44.654</ele>
        <time>1970-01-01T01:00:00Z</time>
      </trkpt>
      <trkpt lat="63.42735983" lon="10.37000533">
        <ele>44.654</ele>
        <time>1970-01-01T01:00:00Z</time>
      </trkpt>
      <trkpt lat="63.42733567" lon="10.37000283">
        <ele>45.111</ele>
        <time>1970-01-01T01:00:00Z</time>
      </trkpt>
      <trkpt lat="63.427313" lon="10.37000017">
        <ele>45.111</ele>
        <time>1970-01-01T01:00:00Z</time>
      </trkpt>
      <trkpt lat="63.42728883" lon="10.37">
        <ele>45.568</ele>
        <time>1970-01-01T01:00:00Z</time>
      </trkpt>
      <trkpt lat="63.427262" lon="10.36999367">
        <ele>45.568</ele>
        <time>1970-01-01T01:00:00Z</time>
      </trkpt>
      <trkpt lat="63.42723517" lon="10.36998017">
        <ele>45.873</ele>
        <time>1970-01-01T01:00:00Z</time>
      </trkpt>
      <trkpt lat="63.42720817" lon="10.36996133">
        <ele>45.873</ele>
        <time>1970-01-01T01:00:00Z</time>
      </trkpt>
      <trkpt lat="63.4271825" lon="10.36994467">
        <ele>46.178</ele>
        <time>1970-01-01T01:00:00Z</time>
      </trkpt>
      <trkpt lat="63.42715667" lon="10.36993">
        <ele>46.178</ele>
        <time>1970-01-01T01:00:00Z</time>
      </trkpt>
      <trkpt lat="63.42712967" lon="10.36992067">
        <ele>46.33</ele>
        <time>1970-01-01T01:00:00Z</time>
      </trkpt>
      <trkpt lat="63.427106" lon="10.36992033">
        <ele>46.33</ele>
        <time>1970-01-01T01:00:00Z</time>
      </trkpt>
      <trkpt lat="63.42708033" lon="10.3699245">
        <ele>46.33</ele>
        <time>1970-01-01T01:00:00Z</time>
      </trkpt>
      <trkpt lat="63.427053" lon="10.369932">
        <ele>46.33</ele>
        <time>1970-01-01T01:00:00Z</time>
      </trkpt>
      <trkpt lat="63.42702367" lon="10.3699395">
        <ele>46.33</ele>
        <time>1970-01-01T01:00:00Z</time>
      </trkpt>
      <trkpt lat="63.42699617" lon="10.36995">
        <ele>46.33</ele>
        <time>1970-01-01T01:00:00Z</time>
      </trkpt>
      <trkpt lat="63.426973" lon="10.369957">
        <ele>46.178</ele>
        <time>1970-01-01T01:00:00Z</time>
      </trkpt>
      <trkpt lat="63.42695283" lon="10.36996383">
        <ele>46.178</ele>
        <time>1970-01-01T01:00:00Z</time>
      </trkpt>
      <trkpt lat="63.42693467" lon="10.36997033">
        <ele>46.178</ele>
        <time>1970-01-01T01:00:00Z</time>
      </trkpt>
      <trkpt lat="63.42691783" lon="10.36997667">
        <ele>46.178</ele>
        <time>1970-01-01T01:00:00Z</time>
      </trkpt>
      <trkpt lat="63.42689933" lon="10.36998133">
        <ele>46.178</ele>
        <time>1970-01-01T01:00:00Z</time>
      </trkpt>
      <trkpt lat="63.42688117" lon="10.369988">
        <ele>46.178</ele>
        <time>1970-01-01T01:00:00Z</time>
      </trkpt>
      <trkpt lat="63.42686217" lon="10.36999717">
        <ele>46.178</ele>
        <time>1970-01-01T01:00:00Z</time>
      </trkpt>
      <trkpt lat="63.42684583" lon="10.37001517">
        <ele>46.178</ele>
        <time>1970-01-01T01:00:00Z</time>
      </trkpt>
      <trkpt lat="63.42683133" lon="10.37003083">
        <ele>46.178</ele>
        <time>1970-01-01T01:00:00Z</time>
      </trkpt>
      <trkpt lat="63.42681867" lon="10.37005467">
        <ele>46.178</ele>
        <time>1970-01-01T01:00:00Z</time>
      </trkpt>
      <trkpt lat="63.42680133" lon="10.37007083">
        <ele>46.33</ele>
        <time>1970-01-01T01:00:00Z</time>
      </trkpt>
      <trkpt lat="63.42678233" lon="10.37009083">
        <ele>46.33</ele>
        <time>1970-01-01T01:00:00Z</time>
      </trkpt>
      <trkpt lat="63.42676133" lon="10.37010617">
        <ele>46.635</ele>
        <time>1970-01-01T01:00:00Z</time>
      </trkpt>
      <trkpt lat="63.42674217" lon="10.370125">
        <ele>46.635</ele>
        <time>1970-01-01T01:00:00Z</time>
      </trkpt>
      <trkpt lat="63.42672183" lon="10.37014283">
        <ele>46.94</ele>
        <time>1970-01-01T01:00:00Z</time>
      </trkpt>
      <trkpt lat="63.42670233" lon="10.37016317">
        <ele>46.94</ele>
        <time>1970-01-01T01:00:00Z</time>
      </trkpt>
      <trkpt lat="63.42668183" lon="10.3701845">
        <ele>47.397</ele>
        <time>1970-01-01T01:00:00Z</time>
      </trkpt>
      <trkpt lat="63.4266645" lon="10.370212">
        <ele>47.397</ele>
        <time>1970-01-01T01:00:00Z</time>
      </trkpt>
      <trkpt lat="63.42664483" lon="10.37023483">
        <ele>47.854</ele>
        <time>1970-01-01T01:00:00Z</time>
      </trkpt>
      <trkpt lat="63.42662333" lon="10.370258">
        <ele>47.854</ele>
        <time>1970-01-01T01:00:00Z</time>
      </trkpt>
      <trkpt lat="63.4265965" lon="10.37027217">
        <ele>48.464</ele>
        <time>1970-01-01T01:00:00Z</time>
      </trkpt>
      <trkpt lat="63.42656233" lon="10.370277">
        <ele>48.464</ele>
        <time>1970-01-01T01:00:00Z</time>
      </trkpt>
      <trkpt lat="63.42652767" lon="10.37027883">
        <ele>48.921</ele>
        <time>1970-01-01T01:00:00Z</time>
      </trkpt>
      <trkpt lat="63.42649567" lon="10.37027967">
        <ele>48.921</ele>
        <time>1970-01-01T01:00:00Z</time>
      </trkpt>
      <trkpt lat="63.4264715" lon="10.3702895">
        <ele>49.378</ele>
        <time>1970-01-01T01:00:00Z</time>
      </trkpt>
      <trkpt lat="63.4264505" lon="10.37030017">
        <ele>49.378</ele>
        <time>1970-01-01T01:00:00Z</time>
      </trkpt>
      <trkpt lat="63.42642983" lon="10.3703135">
        <ele>49.683</ele>
        <time>1970-01-01T01:00:00Z</time>
      </trkpt>
      <trkpt lat="63.42640967" lon="10.37032433">
        <ele>49.683</ele>
        <time>1970-01-01T01:00:00Z</time>
      </trkpt>
      <trkpt lat="63.42639" lon="10.37033767">
        <ele>49.988</ele>
        <time>1970-01-01T01:00:00Z</time>
      </trkpt>
      <trkpt lat="63.4263705" lon="10.37035283">
        <ele>49.988</ele>
        <time>1970-01-01T01:00:00Z</time>
      </trkpt>
      <trkpt lat="63.4263525" lon="10.3703715">
        <ele>50.14</ele>
        <time>1970-01-01T01:00:00Z</time>
      </trkpt>
      <trkpt lat="63.426333" lon="10.37039117">
        <ele>50.14</ele>
        <time>1970-01-01T01:00:00Z</time>
      </trkpt>
      <trkpt lat="63.42631283" lon="10.37040667">
        <ele>50.445</ele>
        <time>1970-01-01T01:00:00Z</time>
      </trkpt>
      <trkpt lat="63.42629217" lon="10.3704225">
        <ele>50.445</ele>
        <time>1970-01-01T01:00:00Z</time>
      </trkpt>
      <trkpt lat="63.42626283" lon="10.370441">
        <ele>50.597</ele>
        <time>1970-01-01T01:00:00Z</time>
      </trkpt>
      <trkpt lat="63.42623083" lon="10.37046117">
        <ele>50.597</ele>
        <time>1970-01-01T01:00:00Z</time>
      </trkpt>
      <trkpt lat="63.42619567" lon="10.37048233">
        <ele>50.597</ele>
        <time>1970-01-01T01:00:00Z</time>
      </trkpt>
      <trkpt lat="63.42616467" lon="10.3704945">
        <ele>50.597</ele>
        <time>1970-01-01T01:00:00Z</time>
      </trkpt>
      <trkpt lat="63.42613317" lon="10.37050567">
        <ele>50.597</ele>
        <time>1970-01-01T01:00:00Z</time>
      </trkpt>
      <trkpt lat="63.42610367" lon="10.37050767">
        <ele>50.597</ele>
        <time>1970-01-01T01:00:00Z</time>
      </trkpt>
      <trkpt lat="63.4260765" lon="10.370516">
        <ele>50.293</ele>
        <time>1970-01-01T01:00:00Z</time>
      </trkpt>
      <trkpt lat="63.42605167" lon="10.37052917">
        <ele>50.293</ele>
        <time>1970-01-01T01:00:00Z</time>
      </trkpt>
      <trkpt lat="63.42602617" lon="10.37054967">
        <ele>49.988</ele>
        <time>1970-01-01T01:00:00Z</time>
      </trkpt>
      <trkpt lat="63.42600167" lon="10.37057017">
        <ele>49.988</ele>
        <time>1970-01-01T01:00:00Z</time>
      </trkpt>
      <trkpt lat="63.425979" lon="10.3705915">
        <ele>49.531</ele>
        <time>1970-01-01T01:00:00Z</time>
      </trkpt>
      <trkpt lat="63.42595833" lon="10.370617">
        <ele>49.531</ele>
        <time>1970-01-01T01:00:00Z</time>
      </trkpt>
      <trkpt lat="63.42593867" lon="10.37064317">
        <ele>48.921</ele>
        <time>1970-01-01T01:00:00Z</time>
      </trkpt>
      <trkpt lat="63.4259185" lon="10.370668">
        <ele>48.921</ele>
        <time>1970-01-01T01:00:00Z</time>
      </trkpt>
      <trkpt lat="63.4258985" lon="10.37069033">
        <ele>48.464</ele>
        <time>1970-01-01T01:00:00Z</time>
      </trkpt>
      <trkpt lat="63.42587933" lon="10.3707095">
        <ele>48.464</ele>
        <time>1970-01-01T01:00:00Z</time>
      </trkpt>
      <trkpt lat="63.42586" lon="10.37073233">
        <ele>47.854</ele>
        <time>1970-01-01T01:00:00Z</time>
      </trkpt>
      <trkpt lat="63.42584017" lon="10.37075367">
        <ele>47.854</ele>
        <time>1970-01-01T01:00:00Z</time>
      </trkpt>
      <trkpt lat="63.4258195" lon="10.37078167">
        <ele>47.245</ele>
        <time>1970-01-01T01:00:00Z</time>
      </trkpt>
      <trkpt lat="63.425798" lon="10.37081033">
        <ele>47.245</ele>
        <time>1970-01-01T01:00:00Z</time>
      </trkpt>
      <trkpt lat="63.425778" lon="10.37084083">
        <ele>46.787</ele>
        <time>1970-01-01T01:00:00Z</time>
      </trkpt>
      <trkpt lat="63.425759" lon="10.37086417">
        <ele>46.787</ele>
        <time>1970-01-01T01:00:00Z</time>
      </trkpt>
      <trkpt lat="63.42574083" lon="10.37089267">
        <ele>46.178</ele>
        <time>1970-01-01T01:00:00Z</time>
      </trkpt>
      <trkpt lat="63.4257215" lon="10.370926">
        <ele>46.178</ele>
        <time>1970-01-01T01:00:00Z</time>
      </trkpt>
      <trkpt lat="63.4257025" lon="10.37097083">
        <ele>45.721</ele>
        <time>1970-01-01T01:00:00Z</time>
      </trkpt>
      <trkpt lat="63.42568433" lon="10.37101317">
        <ele>45.721</ele>
        <time>1970-01-01T01:00:00Z</time>
      </trkpt>
      <trkpt lat="63.425668" lon="10.37105717">
        <ele>45.111</ele>
        <time>1970-01-01T01:00:00Z</time>
      </trkpt>
      <trkpt lat="63.4256515" lon="10.37109833">
        <ele>45.111</ele>
        <time>1970-01-01T01:00:00Z</time>
      </trkpt>
      <trkpt lat="63.425635" lon="10.37113967">
        <ele>44.654</ele>
        <time>1970-01-01T01:00:00Z</time>
      </trkpt>
      <trkpt lat="63.42561817" lon="10.37117983">
        <ele>44.654</ele>
        <time>1970-01-01T01:00:00Z</time>
      </trkpt>
      <trkpt lat="63.42560183" lon="10.371222">
        <ele>44.349</ele>
        <time>1970-01-01T01:00:00Z</time>
      </trkpt>
      <trkpt lat="63.42558717" lon="10.37126133">
        <ele>44.349</ele>
        <time>1970-01-01T01:00:00Z</time>
      </trkpt>
      <trkpt lat="63.4255705" lon="10.37130233">
        <ele>44.044</ele>
        <time>1970-01-01T01:00:00Z</time>
      </trkpt>
      <trkpt lat="63.42555533" lon="10.37134483">
        <ele>44.044</ele>
        <time>1970-01-01T01:00:00Z</time>
      </trkpt>
      <trkpt lat="63.42553683" lon="10.3713895">
        <ele>43.739</ele>
        <time>1970-01-01T01:00:00Z</time>
      </trkpt>
      <trkpt lat="63.4255185" lon="10.37143267">
        <ele>43.739</ele>
        <time>1970-01-01T01:00:00Z</time>
      </trkpt>
      <trkpt lat="63.4255" lon="10.3714745">
        <ele>43.587</ele>
        <time>1970-01-01T01:00:00Z</time>
      </trkpt>
      <trkpt lat="63.42548267" lon="10.371517">
        <ele>43.587</ele>
        <time>1970-01-01T01:00:00Z</time>
      </trkpt>
      <trkpt lat="63.42546567" lon="10.37156333">
        <ele>43.282</ele>
        <time>1970-01-01T01:00:00Z</time>
      </trkpt>
      <trkpt lat="63.42544917" lon="10.37160883">
        <ele>43.282</ele>
        <time>1970-01-01T01:00:00Z</time>
      </trkpt>
      <trkpt lat="63.425433" lon="10.371656">
        <ele>43.13</ele>
        <time>1970-01-01T01:00:00Z</time>
      </trkpt>
      <trkpt lat="63.42541733" lon="10.37170617">
        <ele>43.13</ele>
        <time>1970-01-01T01:00:00Z</time>
      </trkpt>
      <trkpt lat="63.42540167" lon="10.37175567">
        <ele>42.977</ele>
        <time>1970-01-01T01:00:00Z</time>
      </trkpt>
      <trkpt lat="63.425387" lon="10.37179767">
        <ele>42.977</ele>
        <time>1970-01-01T01:00:00Z</time>
      </trkpt>
      <trkpt lat="63.42537167" lon="10.3718335">
        <ele>42.825</ele>
        <time>1970-01-01T01:00:00Z</time>
      </trkpt>
      <trkpt lat="63.42535533" lon="10.3718645">
        <ele>42.825</ele>
        <time>1970-01-01T01:00:00Z</time>
      </trkpt>
      <trkpt lat="63.42533817" lon="10.37189967">
        <ele>42.673</ele>
        <time>1970-01-01T01:00:00Z</time>
      </trkpt>
      <trkpt lat="63.42532083" lon="10.371934">
        <ele>42.673</ele>
        <time>1970-01-01T01:00:00Z</time>
      </trkpt>
      <trkpt lat="63.42530283" lon="10.37196567">
        <ele>42.673</ele>
        <time>1970-01-01T01:00:00Z</time>
      </trkpt>
      <trkpt lat="63.42528533" lon="10.371999">
        <ele>42.673</ele>
        <time>1970-01-01T01:00:00Z</time>
      </trkpt>
      <trkpt lat="63.42526917" lon="10.3720355">
        <ele>42.368</ele>
        <time>1970-01-01T01:00:00Z</time>
      </trkpt>
      <trkpt lat="63.42525367" lon="10.37208217">
        <ele>42.368</ele>
        <time>1970-01-01T01:00:00Z</time>
      </trkpt>
      <trkpt lat="63.425238" lon="10.37212867">
        <ele>42.063</ele>
        <time>1970-01-01T01:00:00Z</time>
      </trkpt>
      <trkpt lat="63.42522217" lon="10.37217533">
        <ele>42.063</ele>
        <time>1970-01-01T01:00:00Z</time>
      </trkpt>
      <trkpt lat="63.42520567" lon="10.3722205">
        <ele>41.758</ele>
        <time>1970-01-01T01:00:00Z</time>
      </trkpt>
      <trkpt lat="63.42518983" lon="10.37226717">
        <ele>41.758</ele>
        <time>1970-01-01T01:00:00Z</time>
      </trkpt>
      <trkpt lat="63.425174" lon="10.37231067">
        <ele>41.453</ele>
        <time>1970-01-01T01:00:00Z</time>
      </trkpt>
      <trkpt lat="63.42516" lon="10.3723545">
        <ele>41.453</ele>
        <time>1970-01-01T01:00:00Z</time>
      </trkpt>
      <trkpt lat="63.42514633" lon="10.37239833">
        <ele>40.996</ele>
        <time>1970-01-01T01:00:00Z</time>
      </trkpt>
      <trkpt lat="63.42513383" lon="10.37244683">
        <ele>40.996</ele>
        <time>1970-01-01T01:00:00Z</time>
      </trkpt>
      <trkpt lat="63.42512133" lon="10.37249183">
        <ele>40.539</ele>
        <time>1970-01-01T01:00:00Z</time>
      </trkpt>
      <trkpt lat="63.42511" lon="10.3725315">
        <ele>40.539</ele>
        <time>1970-01-01T01:00:00Z</time>
      </trkpt>
      <trkpt lat="63.425098" lon="10.372565">
        <ele>40.234</ele>
        <time>1970-01-01T01:00:00Z</time>
      </trkpt>
      <trkpt lat="63.42508583" lon="10.37260167">
        <ele>40.234</ele>
        <time>1970-01-01T01:00:00Z</time>
      </trkpt>
      <trkpt lat="63.42507267" lon="10.3726395">
        <ele>39.777</ele>
        <time>1970-01-01T01:00:00Z</time>
      </trkpt>
      <trkpt lat="63.42505933" lon="10.3726775">
        <ele>39.777</ele>
        <time>1970-01-01T01:00:00Z</time>
      </trkpt>
      <trkpt lat="63.425046" lon="10.37270967">
        <ele>39.32</ele>
        <time>1970-01-01T01:00:00Z</time>
      </trkpt>
      <trkpt lat="63.425033" lon="10.372743">
        <ele>39.32</ele>
        <time>1970-01-01T01:00:00Z</time>
      </trkpt>
      <trkpt lat="63.4250215" lon="10.37277617">
        <ele>38.862</ele>
        <time>1970-01-01T01:00:00Z</time>
      </trkpt>
      <trkpt lat="63.42500983" lon="10.37282317">
        <ele>38.862</ele>
        <time>1970-01-01T01:00:00Z</time>
      </trkpt>
      <trkpt lat="63.42499617" lon="10.37286833">
        <ele>38.405</ele>
        <time>1970-01-01T01:00:00Z</time>
      </trkpt>
      <trkpt lat="63.42498133" lon="10.37291483">
        <ele>38.405</ele>
        <time>1970-01-01T01:00:00Z</time>
      </trkpt>
      <trkpt lat="63.4249655" lon="10.37295417">
        <ele>38.1</ele>
        <time>1970-01-01T01:00:00Z</time>
      </trkpt>
      <trkpt lat="63.4249475" lon="10.37299533">
        <ele>38.1</ele>
        <time>1970-01-01T01:00:00Z</time>
      </trkpt>
      <trkpt lat="63.42492733" lon="10.37303683">
        <ele>37.643</ele>
        <time>1970-01-01T01:00:00Z</time>
      </trkpt>
      <trkpt lat="63.4249045" lon="10.37307867">
        <ele>37.643</ele>
        <time>1970-01-01T01:00:00Z</time>
      </trkpt>
      <trkpt lat="63.42488467" lon="10.37312033">
        <ele>37.338</ele>
        <time>1970-01-01T01:00:00Z</time>
      </trkpt>
      <trkpt lat="63.42486533" lon="10.37316083">
        <ele>37.338</ele>
        <time>1970-01-01T01:00:00Z</time>
      </trkpt>
      <trkpt lat="63.42484817" lon="10.37319667">
        <ele>36.881</ele>
        <time>1970-01-01T01:00:00Z</time>
      </trkpt>
      <trkpt lat="63.42482917" lon="10.37323383">
        <ele>36.881</ele>
        <time>1970-01-01T01:00:00Z</time>
      </trkpt>
      <trkpt lat="63.42481033" lon="10.3732715">
        <ele>36.424</ele>
        <time>1970-01-01T01:00:00Z</time>
      </trkpt>
      <trkpt lat="63.4247915" lon="10.37331083">
        <ele>36.424</ele>
        <time>1970-01-01T01:00:00Z</time>
      </trkpt>
      <trkpt lat="63.42477317" lon="10.37334383">
        <ele>35.967</ele>
        <time>1970-01-01T01:00:00Z</time>
      </trkpt>
      <trkpt lat="63.42475583" lon="10.37337317">
        <ele>35.967</ele>
        <time>1970-01-01T01:00:00Z</time>
      </trkpt>
      <trkpt lat="63.42473767" lon="10.37339917">
        <ele>35.51</ele>
        <time>1970-01-01T01:00:00Z</time>
      </trkpt>
      <trkpt lat="63.42471783" lon="10.37342817">
        <ele>35.51</ele>
        <time>1970-01-01T01:00:00Z</time>
      </trkpt>
      <trkpt lat="63.42469683" lon="10.37345533">
        <ele>35.052</ele>
        <time>1970-01-01T01:00:00Z</time>
      </trkpt>
      <trkpt lat="63.4246755" lon="10.373483">
        <ele>35.052</ele>
        <time>1970-01-01T01:00:00Z</time>
      </trkpt>
      <trkpt lat="63.4246555" lon="10.37350967">
        <ele>34.595</ele>
        <time>1970-01-01T01:00:00Z</time>
      </trkpt>
      <trkpt lat="63.4246355" lon="10.37353983">
        <ele>34.595</ele>
        <time>1970-01-01T01:00:00Z</time>
      </trkpt>
      <trkpt lat="63.4246165" lon="10.37356783">
        <ele>34.138</ele>
        <time>1970-01-01T01:00:00Z</time>
      </trkpt>
      <trkpt lat="63.4245945" lon="10.37359767">
        <ele>34.138</ele>
        <time>1970-01-01T01:00:00Z</time>
      </trkpt>
      <trkpt lat="63.42457083" lon="10.373624">
        <ele>33.681</ele>
        <time>1970-01-01T01:00:00Z</time>
      </trkpt>
      <trkpt lat="63.424547" lon="10.37365067">
        <ele>33.681</ele>
        <time>1970-01-01T01:00:00Z</time>
      </trkpt>
      <trkpt lat="63.42452467" lon="10.37367667">
        <ele>33.071</ele>
        <time>1970-01-01T01:00:00Z</time>
      </trkpt>
      <trkpt lat="63.42450317" lon="10.37370917">
        <ele>33.071</ele>
        <time>1970-01-01T01:00:00Z</time>
      </trkpt>
      <trkpt lat="63.42448283" lon="10.37374267">
        <ele>32.614</ele>
        <time>1970-01-01T01:00:00Z</time>
      </trkpt>
      <trkpt lat="63.42446317" lon="10.37377433">
        <ele>32.614</ele>
        <time>1970-01-01T01:00:00Z</time>
      </trkpt>
      <trkpt lat="63.424443" lon="10.37380267">
        <ele>32.004</ele>
        <time>1970-01-01T01:00:00Z</time>
      </trkpt>
      <trkpt lat="63.42442083" lon="10.37383317">
        <ele>32.004</ele>
        <time>1970-01-01T01:00:00Z</time>
      </trkpt>
      <trkpt lat="63.42439983" lon="10.37386567">
        <ele>31.547</ele>
        <time>1970-01-01T01:00:00Z</time>
      </trkpt>
      <trkpt lat="63.424379" lon="10.3738985">
        <ele>31.547</ele>
        <time>1970-01-01T01:00:00Z</time>
      </trkpt>
      <trkpt lat="63.42435917" lon="10.37393117">
        <ele>31.09</ele>
        <time>1970-01-01T01:00:00Z</time>
      </trkpt>
      <trkpt lat="63.42433633" lon="10.37396683">
        <ele>31.09</ele>
        <time>1970-01-01T01:00:00Z</time>
      </trkpt>
      <trkpt lat="63.42431167" lon="10.37400183">
        <ele>30.633</ele>
        <time>1970-01-01T01:00:00Z</time>
      </trkpt>
      <trkpt lat="63.4242865" lon="10.37403433">
        <ele>30.633</ele>
        <time>1970-01-01T01:00:00Z</time>
      </trkpt>
      <trkpt lat="63.42426283" lon="10.37406233">
        <ele>30.176</ele>
        <time>1970-01-01T01:00:00Z</time>
      </trkpt>
      <trkpt lat="63.42423767" lon="10.37408617">
        <ele>30.176</ele>
        <time>1970-01-01T01:00:00Z</time>
      </trkpt>
      <trkpt lat="63.4242115" lon="10.374107">
        <ele>29.718</ele>
        <time>1970-01-01T01:00:00Z</time>
      </trkpt>
      <trkpt lat="63.424186" lon="10.37413">
        <ele>29.718</ele>
        <time>1970-01-01T01:00:00Z</time>
      </trkpt>
      <trkpt lat="63.42416183" lon="10.37415167">
        <ele>29.414</ele>
        <time>1970-01-01T01:00:00Z</time>
      </trkpt>
      <trkpt lat="63.42413617" lon="10.37417533">
        <ele>29.414</ele>
        <time>1970-01-01T01:00:00Z</time>
      </trkpt>
      <trkpt lat="63.42411183" lon="10.37419483">
        <ele>28.956</ele>
        <time>1970-01-01T01:00:00Z</time>
      </trkpt>
      <trkpt lat="63.424088" lon="10.37421983">
        <ele>28.956</ele>
        <time>1970-01-01T01:00:00Z</time>
      </trkpt>
      <trkpt lat="63.424065" lon="10.37424283">
        <ele>28.652</ele>
        <time>1970-01-01T01:00:00Z</time>
      </trkpt>
      <trkpt lat="63.4240415" lon="10.3742675">
        <ele>28.652</ele>
        <time>1970-01-01T01:00:00Z</time>
      </trkpt>
      <trkpt lat="63.42402" lon="10.37429167">
        <ele>28.194</ele>
        <time>1970-01-01T01:00:00Z</time>
      </trkpt>
      <trkpt lat="63.42399883" lon="10.37432183">
        <ele>28.194</ele>
        <time>1970-01-01T01:00:00Z</time>
      </trkpt>
      <trkpt lat="63.42397733" lon="10.37435317">
        <ele>27.89</ele>
        <time>1970-01-01T01:00:00Z</time>
      </trkpt>
      <trkpt lat="63.4239555" lon="10.37438217">
        <ele>27.89</ele>
        <time>1970-01-01T01:00:00Z</time>
      </trkpt>
      <trkpt lat="63.42393133" lon="10.37440667">
        <ele>27.737</ele>
        <time>1970-01-01T01:00:00Z</time>
      </trkpt>
      <trkpt lat="63.4239075" lon="10.374429">
        <ele>27.737</ele>
        <time>1970-01-01T01:00:00Z</time>
      </trkpt>
      <trkpt lat="63.4238825" lon="10.37445167">
        <ele>27.432</ele>
        <time>1970-01-01T01:00:00Z</time>
      </trkpt>
      <trkpt lat="63.42385883" lon="10.3744745">
        <ele>27.432</ele>
        <time>1970-01-01T01:00:00Z</time>
      </trkpt>
      <trkpt lat="63.42383433" lon="10.3744895">
        <ele>27.28</ele>
        <time>1970-01-01T01:00:00Z</time>
      </trkpt>
      <trkpt lat="63.42381083" lon="10.3745015">
        <ele>27.28</ele>
        <time>1970-01-01T01:00:00Z</time>
      </trkpt>
      <trkpt lat="63.423788" lon="10.37451083">
        <ele>27.128</ele>
        <time>1970-01-01T01:00:00Z</time>
      </trkpt>
      <trkpt lat="63.42376467" lon="10.37452633">
        <ele>27.128</ele>
        <time>1970-01-01T01:00:00Z</time>
      </trkpt>
      <trkpt lat="63.423741" lon="10.374543">
        <ele>26.975</ele>
        <time>1970-01-01T01:00:00Z</time>
      </trkpt>
      <trkpt lat="63.4237165" lon="10.37456083">
        <ele>26.975</ele>
        <time>1970-01-01T01:00:00Z</time>
      </trkpt>
      <trkpt lat="63.42369067" lon="10.37457617">
        <ele>26.67</ele>
        <time>1970-01-01T01:00:00Z</time>
      </trkpt>
      <trkpt lat="63.423665" lon="10.37458817">
        <ele>26.67</ele>
        <time>1970-01-01T01:00:00Z</time>
      </trkpt>
      <trkpt lat="63.42363917" lon="10.37460167">
        <ele>26.518</ele>
        <time>1970-01-01T01:00:00Z</time>
      </trkpt>
      <trkpt lat="63.4236145" lon="10.37461483">
        <ele>26.518</ele>
        <time>1970-01-01T01:00:00Z</time>
      </trkpt>
      <trkpt lat="63.42359067" lon="10.37463033">
        <ele>26.366</ele>
        <time>1970-01-01T01:00:00Z</time>
      </trkpt>
      <trkpt lat="63.42356833" lon="10.37464483">
        <ele>26.366</ele>
        <time>1970-01-01T01:00:00Z</time>
      </trkpt>
      <trkpt lat="63.42354533" lon="10.37466283">
        <ele>26.213</ele>
        <time>1970-01-01T01:00:00Z</time>
      </trkpt>
      <trkpt lat="63.4235215" lon="10.37468267">
        <ele>26.213</ele>
        <time>1970-01-01T01:00:00Z</time>
      </trkpt>
      <trkpt lat="63.423498" lon="10.3747015">
        <ele>26.061</ele>
        <time>1970-01-01T01:00:00Z</time>
      </trkpt>
      <trkpt lat="63.42347633" lon="10.37471717">
        <ele>26.061</ele>
        <time>1970-01-01T01:00:00Z</time>
      </trkpt>
      <trkpt lat="63.42345567" lon="10.37473333">
        <ele>25.908</ele>
        <time>1970-01-01T01:00:00Z</time>
      </trkpt>
      <trkpt lat="63.42343517" lon="10.37474933">
        <ele>25.908</ele>
        <time>1970-01-01T01:00:00Z</time>
      </trkpt>
      <trkpt lat="63.42341417" lon="10.374771">
        <ele>25.756</ele>
        <time>1970-01-01T01:00:00Z</time>
      </trkpt>
      <trkpt lat="63.42339367" lon="10.37478983">
        <ele>25.756</ele>
        <time>1970-01-01T01:00:00Z</time>
      </trkpt>
      <trkpt lat="63.42337267" lon="10.374812">
        <ele>25.604</ele>
        <time>1970-01-01T01:00:00Z</time>
      </trkpt>
      <trkpt lat="63.42335167" lon="10.3748335">
        <ele>25.604</ele>
        <time>1970-01-01T01:00:00Z</time>
      </trkpt>
      <trkpt lat="63.42332933" lon="10.37485283">
        <ele>25.604</ele>
        <time>1970-01-01T01:00:00Z</time>
      </trkpt>
      <trkpt lat="63.42330767" lon="10.37486983">
        <ele>25.604</ele>
        <time>1970-01-01T01:00:00Z</time>
      </trkpt>
      <trkpt lat="63.423285" lon="10.37488483">
        <ele>25.604</ele>
        <time>1970-01-01T01:00:00Z</time>
      </trkpt>
      <trkpt lat="63.423263" lon="10.3748995">
        <ele>25.604</ele>
        <time>1970-01-01T01:00:00Z</time>
      </trkpt>
      <trkpt lat="63.4232405" lon="10.37491183">
        <ele>25.604</ele>
        <time>1970-01-01T01:00:00Z</time>
      </trkpt>
      <trkpt lat="63.42321917" lon="10.37492333">
        <ele>25.604</ele>
        <time>1970-01-01T01:00:00Z</time>
      </trkpt>
      <trkpt lat="63.4231975" lon="10.37493783">
        <ele>25.604</ele>
        <time>1970-01-01T01:00:00Z</time>
      </trkpt>
      <trkpt lat="63.42317617" lon="10.37495433">
        <ele>25.604</ele>
        <time>1970-01-01T01:00:00Z</time>
      </trkpt>
      <trkpt lat="63.423155" lon="10.37496983">
        <ele>25.604</ele>
        <time>1970-01-01T01:00:00Z</time>
      </trkpt>
      <trkpt lat="63.4231335" lon="10.37498417">
        <ele>25.604</ele>
        <time>1970-01-01T01:00:00Z</time>
      </trkpt>
      <trkpt lat="63.423111" lon="10.3749965">
        <ele>25.756</ele>
        <time>1970-01-01T01:00:00Z</time>
      </trkpt>
      <trkpt lat="63.42308467" lon="10.37500983">
        <ele>25.756</ele>
        <time>1970-01-01T01:00:00Z</time>
      </trkpt>
      <trkpt lat="63.42305817" lon="10.37502517">
        <ele>25.756</ele>
        <time>1970-01-01T01:00:00Z</time>
      </trkpt>
      <trkpt lat="63.42303317" lon="10.37504133">
        <ele>25.756</ele>
        <time>1970-01-01T01:00:00Z</time>
      </trkpt>
      <trkpt lat="63.42301017" lon="10.37505383">
        <ele>25.604</ele>
        <time>1970-01-01T01:00:00Z</time>
      </trkpt>
      <trkpt lat="63.422986" lon="10.3750655">
        <ele>25.604</ele>
        <time>1970-01-01T01:00:00Z</time>
      </trkpt>
      <trkpt lat="63.42296167" lon="10.3750755">
        <ele>25.604</ele>
        <time>1970-01-01T01:00:00Z</time>
      </trkpt>
      <trkpt lat="63.42293933" lon="10.37509133">
        <ele>25.604</ele>
        <time>1970-01-01T01:00:00Z</time>
      </trkpt>
      <trkpt lat="63.42291783" lon="10.3751065">
        <ele>25.451</ele>
        <time>1970-01-01T01:00:00Z</time>
      </trkpt>
      <trkpt lat="63.42289617" lon="10.37512617">
        <ele>25.451</ele>
        <time>1970-01-01T01:00:00Z</time>
      </trkpt>
      <trkpt lat="63.42287267" lon="10.375145">
        <ele>25.299</ele>
        <time>1970-01-01T01:00:00Z</time>
      </trkpt>
      <trkpt lat="63.42284817" lon="10.37516617">
        <ele>25.299</ele>
        <time>1970-01-01T01:00:00Z</time>
      </trkpt>
      <trkpt lat="63.422823" lon="10.37518717">
        <ele>25.146</ele>
        <time>1970-01-01T01:00:00Z</time>
      </trkpt>
      <trkpt lat="63.4227995" lon="10.37520983">
        <ele>25.146</ele>
        <time>1970-01-01T01:00:00Z</time>
      </trkpt>
      <trkpt lat="63.4227775" lon="10.37523367">
        <ele>25.146</ele>
        <time>1970-01-01T01:00:00Z</time>
      </trkpt>
      <trkpt lat="63.422755" lon="10.37525767">
        <ele>25.146</ele>
        <time>1970-01-01T01:00:00Z</time>
      </trkpt>
      <trkpt lat="63.422733" lon="10.37528117">
        <ele>24.994</ele>
        <time>1970-01-01T01:00:00Z</time>
      </trkpt>
      <trkpt lat="63.42270983" lon="10.37530717">
        <ele>24.994</ele>
        <time>1970-01-01T01:00:00Z</time>
      </trkpt>
      <trkpt lat="63.42268783" lon="10.37533217">
        <ele>24.994</ele>
        <time>1970-01-01T01:00:00Z</time>
      </trkpt>
      <trkpt lat="63.42266583" lon="10.375359">
        <ele>24.994</ele>
        <time>1970-01-01T01:00:00Z</time>
      </trkpt>
      <trkpt lat="63.42264467" lon="10.3753795">
        <ele>24.842</ele>
        <time>1970-01-01T01:00:00Z</time>
      </trkpt>
      <trkpt lat="63.42262183" lon="10.375397">
        <ele>24.842</ele>
        <time>1970-01-01T01:00:00Z</time>
      </trkpt>
      <trkpt lat="63.42259833" lon="10.3754145">
        <ele>24.842</ele>
        <time>1970-01-01T01:00:00Z</time>
      </trkpt>
      <trkpt lat="63.422574" lon="10.37543367">
        <ele>24.842</ele>
        <time>1970-01-01T01:00:00Z</time>
      </trkpt>
      <trkpt lat="63.42255083" lon="10.37545567">
        <ele>24.842</ele>
        <time>1970-01-01T01:00:00Z</time>
      </trkpt>
      <trkpt lat="63.422528" lon="10.37547483">
        <ele>24.842</ele>
        <time>1970-01-01T01:00:00Z</time>
      </trkpt>
      <trkpt lat="63.42250567" lon="10.37549617">
        <ele>24.842</ele>
        <time>1970-01-01T01:00:00Z</time>
      </trkpt>
      <trkpt lat="63.42248267" lon="10.37551867">
        <ele>24.842</ele>
        <time>1970-01-01T01:00:00Z</time>
      </trkpt>
      <trkpt lat="63.4224605" lon="10.37554383">
        <ele>24.842</ele>
        <time>1970-01-01T01:00:00Z</time>
      </trkpt>
      <trkpt lat="63.42243883" lon="10.37556567">
        <ele>24.842</ele>
        <time>1970-01-01T01:00:00Z</time>
      </trkpt>
      <trkpt lat="63.42241667" lon="10.37558533">
        <ele>24.842</ele>
        <time>1970-01-01T01:00:00Z</time>
      </trkpt>
      <trkpt lat="63.42239483" lon="10.37560167">
        <ele>24.842</ele>
        <time>1970-01-01T01:00:00Z</time>
      </trkpt>
      <trkpt lat="63.42237267" lon="10.375621">
        <ele>24.842</ele>
        <time>1970-01-01T01:00:00Z</time>
      </trkpt>
      <trkpt lat="63.42235117" lon="10.3756425">
        <ele>24.842</ele>
        <time>1970-01-01T01:00:00Z</time>
      </trkpt>
      <trkpt lat="63.42232917" lon="10.37566567">
        <ele>24.994</ele>
        <time>1970-01-01T01:00:00Z</time>
      </trkpt>
      <trkpt lat="63.42230733" lon="10.37568717">
        <ele>24.994</ele>
        <time>1970-01-01T01:00:00Z</time>
      </trkpt>
      <trkpt lat="63.42228367" lon="10.37570783">
        <ele>24.994</ele>
        <time>1970-01-01T01:00:00Z</time>
      </trkpt>
      <trkpt lat="63.42225983" lon="10.37572617">
        <ele>24.994</ele>
        <time>1970-01-01T01:00:00Z</time>
      </trkpt>
      <trkpt lat="63.422236" lon="10.37574417">
        <ele>24.994</ele>
        <time>1970-01-01T01:00:00Z</time>
      </trkpt>
      <trkpt lat="63.42221367" lon="10.37576183">
        <ele>24.994</ele>
        <time>1970-01-01T01:00:00Z</time>
      </trkpt>
      <trkpt lat="63.422191" lon="10.37577817">
        <ele>25.146</ele>
        <time>1970-01-01T01:00:00Z</time>
      </trkpt>
      <trkpt lat="63.4221685" lon="10.37579517">
        <ele>25.146</ele>
        <time>1970-01-01T01:00:00Z</time>
      </trkpt>
      <trkpt lat="63.422145" lon="10.37580933">
        <ele>25.146</ele>
        <time>1970-01-01T01:00:00Z</time>
      </trkpt>
      <trkpt lat="63.42211967" lon="10.375823">
        <ele>25.146</ele>
        <time>1970-01-01T01:00:00Z</time>
      </trkpt>
      <trkpt lat="63.42209367" lon="10.37583517">
        <ele>25.146</ele>
        <time>1970-01-01T01:00:00Z</time>
      </trkpt>
      <trkpt lat="63.42206817" lon="10.37584883">
        <ele>25.146</ele>
        <time>1970-01-01T01:00:00Z</time>
      </trkpt>
      <trkpt lat="63.4220435" lon="10.3758655">
        <ele>25.146</ele>
        <time>1970-01-01T01:00:00Z</time>
      </trkpt>
      <trkpt lat="63.422021" lon="10.37587533">
        <ele>25.146</ele>
        <time>1970-01-01T01:00:00Z</time>
      </trkpt>
      <trkpt lat="63.42199817" lon="10.3758865">
        <ele>25.146</ele>
        <time>1970-01-01T01:00:00Z</time>
      </trkpt>
      <trkpt lat="63.4219765" lon="10.3758965">
        <ele>25.146</ele>
        <time>1970-01-01T01:00:00Z</time>
      </trkpt>
      <trkpt lat="63.421955" lon="10.37591483">
        <ele>24.994</ele>
        <time>1970-01-01T01:00:00Z</time>
      </trkpt>
      <trkpt lat="63.4219335" lon="10.37593217">
        <ele>24.994</ele>
        <time>1970-01-01T01:00:00Z</time>
      </trkpt>
      <trkpt lat="63.4219125" lon="10.37595367">
        <ele>24.994</ele>
        <time>1970-01-01T01:00:00Z</time>
      </trkpt>
      <trkpt lat="63.42188983" lon="10.37597467">
        <ele>24.994</ele>
        <time>1970-01-01T01:00:00Z</time>
      </trkpt>
      <trkpt lat="63.42186867" lon="10.37599583">
        <ele>24.842</ele>
        <time>1970-01-01T01:00:00Z</time>
      </trkpt>
      <trkpt lat="63.42184583" lon="10.37601583">
        <ele>24.842</ele>
        <time>1970-01-01T01:00:00Z</time>
      </trkpt>
      <trkpt lat="63.4218235" lon="10.37603717">
        <ele>24.842</ele>
        <time>1970-01-01T01:00:00Z</time>
      </trkpt>
      <trkpt lat="63.4218" lon="10.37605867">
        <ele>24.842</ele>
        <time>1970-01-01T01:00:00Z</time>
      </trkpt>
      <trkpt lat="63.42177883" lon="10.376082">
        <ele>24.689</ele>
        <time>1970-01-01T01:00:00Z</time>
      </trkpt>
      <trkpt lat="63.42175767" lon="10.37609917">
        <ele>24.689</ele>
        <time>1970-01-01T01:00:00Z</time>
      </trkpt>
      <trkpt lat="63.42173767" lon="10.376119">
        <ele>24.537</ele>
        <time>1970-01-01T01:00:00Z</time>
      </trkpt>
      <trkpt lat="63.4217175" lon="10.37613783">
        <ele>24.537</ele>
        <time>1970-01-01T01:00:00Z</time>
      </trkpt>
      <trkpt lat="63.42169767" lon="10.3761625">
        <ele>24.537</ele>
        <time>1970-01-01T01:00:00Z</time>
      </trkpt>
      <trkpt lat="63.42167633" lon="10.37618383">
        <ele>24.537</ele>
        <time>1970-01-01T01:00:00Z</time>
      </trkpt>
      <trkpt lat="63.421654" lon="10.37620617">
        <ele>24.384</ele>
        <time>1970-01-01T01:00:00Z</time>
      </trkpt>
      <trkpt lat="63.42163183" lon="10.37622233">
        <ele>24.384</ele>
        <time>1970-01-01T01:00:00Z</time>
      </trkpt>
      <trkpt lat="63.42161117" lon="10.37623883">
        <ele>24.232</ele>
        <time>1970-01-01T01:00:00Z</time>
      </trkpt>
      <trkpt lat="63.4215885" lon="10.3762495">
        <ele>24.232</ele>
        <time>1970-01-01T01:00:00Z</time>
      </trkpt>
      <trkpt lat="63.42156517" lon="10.37626617">
        <ele>23.927</ele>
        <time>1970-01-01T01:00:00Z</time>
      </trkpt>
      <trkpt lat="63.4215415" lon="10.37628367">
        <ele>23.927</ele>
        <time>1970-01-01T01:00:00Z</time>
      </trkpt>
      <trkpt lat="63.42152033" lon="10.37630317">
        <ele>23.775</ele>
        <time>1970-01-01T01:00:00Z</time>
      </trkpt>
      <trkpt lat="63.42149883" lon="10.37631967">
        <ele>23.775</ele>
        <time>1970-01-01T01:00:00Z</time>
      </trkpt>
      <trkpt lat="63.42147583" lon="10.376334">
        <ele>23.47</ele>
        <time>1970-01-01T01:00:00Z</time>
      </trkpt>
      <trkpt lat="63.42145217" lon="10.3763465">
        <ele>23.47</ele>
        <time>1970-01-01T01:00:00Z</time>
      </trkpt>
      <trkpt lat="63.4214275" lon="10.37635683">
        <ele>23.317</ele>
        <time>1970-01-01T01:00:00Z</time>
      </trkpt>
      <trkpt lat="63.42140233" lon="10.3763645">
        <ele>23.317</ele>
        <time>1970-01-01T01:00:00Z</time>
      </trkpt>
      <trkpt lat="63.42137617" lon="10.37636867">
        <ele>23.013</ele>
        <time>1970-01-01T01:00:00Z</time>
      </trkpt>
      <trkpt lat="63.42135083" lon="10.37637717">
        <ele>23.013</ele>
        <time>1970-01-01T01:00:00Z</time>
      </trkpt>
      <trkpt lat="63.4213265" lon="10.37638583">
        <ele>22.86</ele>
        <time>1970-01-01T01:00:00Z</time>
      </trkpt>
      <trkpt lat="63.4213015" lon="10.37639567">
        <ele>22.86</ele>
        <time>1970-01-01T01:00:00Z</time>
      </trkpt>
      <trkpt lat="63.4212755" lon="10.37639717">
        <ele>22.555</ele>
        <time>1970-01-01T01:00:00Z</time>
      </trkpt>
      <trkpt lat="63.421248" lon="10.37639717">
        <ele>22.555</ele>
        <time>1970-01-01T01:00:00Z</time>
      </trkpt>
      <trkpt lat="63.42121933" lon="10.37639667">
        <ele>22.403</ele>
        <time>1970-01-01T01:00:00Z</time>
      </trkpt>
      <trkpt lat="63.42119483" lon="10.37640567">
        <ele>22.403</ele>
        <time>1970-01-01T01:00:00Z</time>
      </trkpt>
      <trkpt lat="63.42117567" lon="10.37642933">
        <ele>22.098</ele>
        <time>1970-01-01T01:00:00Z</time>
      </trkpt>
      <trkpt lat="63.421159" lon="10.37645783">
        <ele>22.098</ele>
        <time>1970-01-01T01:00:00Z</time>
      </trkpt>
      <trkpt lat="63.4211395" lon="10.37648717">
        <ele>21.946</ele>
        <time>1970-01-01T01:00:00Z</time>
      </trkpt>
      <trkpt lat="63.42111917" lon="10.3765155">
        <ele>21.946</ele>
        <time>1970-01-01T01:00:00Z</time>
      </trkpt>
      <trkpt lat="63.42109933" lon="10.3765455">
        <ele>21.641</ele>
        <time>1970-01-01T01:00:00Z</time>
      </trkpt>
      <trkpt lat="63.4210795" lon="10.37657717">
        <ele>21.641</ele>
        <time>1970-01-01T01:00:00Z</time>
      </trkpt>
      <trkpt lat="63.42105817" lon="10.3766065">
        <ele>21.489</ele>
        <time>1970-01-01T01:00:00Z</time>
      </trkpt>
      <trkpt lat="63.42103717" lon="10.3766375">
        <ele>21.489</ele>
        <time>1970-01-01T01:00:00Z</time>
      </trkpt>
      <trkpt lat="63.4210155" lon="10.37666517">
        <ele>21.336</ele>
        <time>1970-01-01T01:00:00Z</time>
      </trkpt>
      <trkpt lat="63.42099217" lon="10.37669117">
        <ele>21.336</ele>
        <time>1970-01-01T01:00:00Z</time>
      </trkpt>
      <trkpt lat="63.42096667" lon="10.37671483">
        <ele>21.184</ele>
        <time>1970-01-01T01:00:00Z</time>
      </trkpt>
      <trkpt lat="63.42094283" lon="10.37673533">
        <ele>21.184</ele>
        <time>1970-01-01T01:00:00Z</time>
      </trkpt>
      <trkpt lat="63.42092033" lon="10.37675">
        <ele>21.031</ele>
        <time>1970-01-01T01:00:00Z</time>
      </trkpt>
      <trkpt lat="63.42089817" lon="10.37676583">
        <ele>21.031</ele>
        <time>1970-01-01T01:00:00Z</time>
      </trkpt>
      <trkpt lat="63.42087467" lon="10.37678283">
        <ele>20.879</ele>
        <time>1970-01-01T01:00:00Z</time>
      </trkpt>
      <trkpt lat="63.42085017" lon="10.37680133">
        <ele>20.879</ele>
        <time>1970-01-01T01:00:00Z</time>
      </trkpt>
      <trkpt lat="63.42082683" lon="10.37681883">
        <ele>20.727</ele>
        <time>1970-01-01T01:00:00Z</time>
      </trkpt>
      <trkpt lat="63.42080483" lon="10.37683783">
        <ele>20.727</ele>
        <time>1970-01-01T01:00:00Z</time>
      </trkpt>
      <trkpt lat="63.42078367" lon="10.37685783">
        <ele>20.727</ele>
        <time>1970-01-01T01:00:00Z</time>
      </trkpt>
      <trkpt lat="63.4207615" lon="10.37687517">
        <ele>20.727</ele>
        <time>1970-01-01T01:00:00Z</time>
      </trkpt>
      <trkpt lat="63.42073867" lon="10.3768905">
        <ele>20.574</ele>
        <time>1970-01-01T01:00:00Z</time>
      </trkpt>
      <trkpt lat="63.42071633" lon="10.376906">
        <ele>20.574</ele>
        <time>1970-01-01T01:00:00Z</time>
      </trkpt>
      <trkpt lat="63.4206935" lon="10.37692367">
        <ele>20.422</ele>
        <time>1970-01-01T01:00:00Z</time>
      </trkpt>
      <trkpt lat="63.42066967" lon="10.37694117">
        <ele>20.422</ele>
        <time>1970-01-01T01:00:00Z</time>
      </trkpt>
      <trkpt lat="63.42064483" lon="10.37695583">
        <ele>20.269</ele>
        <time>1970-01-01T01:00:00Z</time>
      </trkpt>
      <trkpt lat="63.42062133" lon="10.37697017">
        <ele>20.269</ele>
        <time>1970-01-01T01:00:00Z</time>
      </trkpt>
      <trkpt lat="63.42059883" lon="10.37698433">
        <ele>20.269</ele>
        <time>1970-01-01T01:00:00Z</time>
      </trkpt>
      <trkpt lat="63.42057583" lon="10.3769985">
        <ele>20.269</ele>
        <time>1970-01-01T01:00:00Z</time>
      </trkpt>
      <trkpt lat="63.42055167" lon="10.37701283">
        <ele>20.269</ele>
        <time>1970-01-01T01:00:00Z</time>
      </trkpt>
      <trkpt lat="63.42052667" lon="10.377028">
        <ele>20.269</ele>
        <time>1970-01-01T01:00:00Z</time>
      </trkpt>
      <trkpt lat="63.42050317" lon="10.377042">
        <ele>20.269</ele>
        <time>1970-01-01T01:00:00Z</time>
      </trkpt>
      <trkpt lat="63.4204795" lon="10.37705483">
        <ele>20.269</ele>
        <time>1970-01-01T01:00:00Z</time>
      </trkpt>
      <trkpt lat="63.42045617" lon="10.37706717">
        <ele>20.117</ele>
        <time>1970-01-01T01:00:00Z</time>
      </trkpt>
      <trkpt lat="63.42043167" lon="10.37708267">
        <ele>20.117</ele>
        <time>1970-01-01T01:00:00Z</time>
      </trkpt>
      <trkpt lat="63.4204075" lon="10.37709767">
        <ele>20.117</ele>
        <time>1970-01-01T01:00:00Z</time>
      </trkpt>
      <trkpt lat="63.420383" lon="10.37711367">
        <ele>20.117</ele>
        <time>1970-01-01T01:00:00Z</time>
      </trkpt>
      <trkpt lat="63.42035867" lon="10.377128">
        <ele>20.117</ele>
        <time>1970-01-01T01:00:00Z</time>
      </trkpt>
      <trkpt lat="63.42033567" lon="10.37714133">
        <ele>20.117</ele>
        <time>1970-01-01T01:00:00Z</time>
      </trkpt>
      <trkpt lat="63.42031333" lon="10.377156">
        <ele>20.117</ele>
        <time>1970-01-01T01:00:00Z</time>
      </trkpt>
      <trkpt lat="63.42029167" lon="10.3771735">
        <ele>20.117</ele>
        <time>1970-01-01T01:00:00Z</time>
      </trkpt>
      <trkpt lat="63.42027" lon="10.3771955">
        <ele>20.117</ele>
        <time>1970-01-01T01:00:00Z</time>
      </trkpt>
      <trkpt lat="63.42024917" lon="10.37721633">
        <ele>20.117</ele>
        <time>1970-01-01T01:00:00Z</time>
      </trkpt>
      <trkpt lat="63.4202275" lon="10.37723817">
        <ele>19.965</ele>
        <time>1970-01-01T01:00:00Z</time>
      </trkpt>
      <trkpt lat="63.42020483" lon="10.377259">
        <ele>19.965</ele>
        <time>1970-01-01T01:00:00Z</time>
      </trkpt>
      <trkpt lat="63.42018033" lon="10.37727983">
        <ele>19.965</ele>
        <time>1970-01-01T01:00:00Z</time>
      </trkpt>
      <trkpt lat="63.42015767" lon="10.3773015">
        <ele>19.965</ele>
        <time>1970-01-01T01:00:00Z</time>
      </trkpt>
      <trkpt lat="63.42013717" lon="10.37732417">
        <ele>19.812</ele>
        <time>1970-01-01T01:00:00Z</time>
      </trkpt>
      <trkpt lat="63.4201165" lon="10.37735">
        <ele>19.812</ele>
        <time>1970-01-01T01:00:00Z</time>
      </trkpt>
      <trkpt lat="63.42009517" lon="10.37737517">
        <ele>19.812</ele>
        <time>1970-01-01T01:00:00Z</time>
      </trkpt>
      <trkpt lat="63.42007117" lon="10.37739783">
        <ele>19.812</ele>
        <time>1970-01-01T01:00:00Z</time>
      </trkpt>
      <trkpt lat="63.42004733" lon="10.37741533">
        <ele>19.812</ele>
        <time>1970-01-01T01:00:00Z</time>
      </trkpt>
      <trkpt lat="63.420023" lon="10.37743033">
        <ele>19.812</ele>
        <time>1970-01-01T01:00:00Z</time>
      </trkpt>
      <trkpt lat="63.419999" lon="10.37743933">
        <ele>19.812</ele>
        <time>1970-01-01T01:00:00Z</time>
      </trkpt>
      <trkpt lat="63.41997433" lon="10.377448">
        <ele>19.812</ele>
        <time>1970-01-01T01:00:00Z</time>
      </trkpt>
      <trkpt lat="63.41994867" lon="10.37745633">
        <ele>19.812</ele>
        <time>1970-01-01T01:00:00Z</time>
      </trkpt>
      <trkpt lat="63.41992383" lon="10.3774665">
        <ele>19.812</ele>
        <time>1970-01-01T01:00:00Z</time>
      </trkpt>
      <trkpt lat="63.41989933" lon="10.37747983">
        <ele>19.812</ele>
        <time>1970-01-01T01:00:00Z</time>
      </trkpt>
      <trkpt lat="63.4198755" lon="10.3774915">
        <ele>19.812</ele>
        <time>1970-01-01T01:00:00Z</time>
      </trkpt>
      <trkpt lat="63.4198525" lon="10.37750283">
        <ele>19.812</ele>
        <time>1970-01-01T01:00:00Z</time>
      </trkpt>
      <trkpt lat="63.41982983" lon="10.37751483">
        <ele>19.812</ele>
        <time>1970-01-01T01:00:00Z</time>
      </trkpt>
      <trkpt lat="63.419808" lon="10.3775275">
        <ele>19.812</ele>
        <time>1970-01-01T01:00:00Z</time>
      </trkpt>
      <trkpt lat="63.419785" lon="10.37754383">
        <ele>19.812</ele>
        <time>1970-01-01T01:00:00Z</time>
      </trkpt>
      <trkpt lat="63.4197625" lon="10.37756067">
        <ele>19.812</ele>
        <time>1970-01-01T01:00:00Z</time>
      </trkpt>
      <trkpt lat="63.41973883" lon="10.37758">
        <ele>19.812</ele>
        <time>1970-01-01T01:00:00Z</time>
      </trkpt>
      <trkpt lat="63.41971567" lon="10.37759917">
        <ele>19.965</ele>
        <time>1970-01-01T01:00:00Z</time>
      </trkpt>
      <trkpt lat="63.41969133" lon="10.37761667">
        <ele>19.965</ele>
        <time>1970-01-01T01:00:00Z</time>
      </trkpt>
      <trkpt lat="63.41966717" lon="10.37763233">
        <ele>19.965</ele>
        <time>1970-01-01T01:00:00Z</time>
      </trkpt>
      <trkpt lat="63.4196445" lon="10.37764767">
        <ele>19.965</ele>
        <time>1970-01-01T01:00:00Z</time>
      </trkpt>
      <trkpt lat="63.419623" lon="10.37766533">
        <ele>19.965</ele>
        <time>1970-01-01T01:00:00Z</time>
      </trkpt>
      <trkpt lat="63.41960167" lon="10.37768533">
        <ele>19.965</ele>
        <time>1970-01-01T01:00:00Z</time>
      </trkpt>
      <trkpt lat="63.4195775" lon="10.37770433">
        <ele>20.117</ele>
        <time>1970-01-01T01:00:00Z</time>
      </trkpt>
      <trkpt lat="63.41955383" lon="10.377721">
        <ele>20.117</ele>
        <time>1970-01-01T01:00:00Z</time>
      </trkpt>
      <trkpt lat="63.41953033" lon="10.37773433">
        <ele>20.117</ele>
        <time>1970-01-01T01:00:00Z</time>
      </trkpt>
      <trkpt lat="63.41950667" lon="10.37774683">
        <ele>20.117</ele>
        <time>1970-01-01T01:00:00Z</time>
      </trkpt>
      <trkpt lat="63.41948367" lon="10.3777585">
        <ele>20.269</ele>
        <time>1970-01-01T01:00:00Z</time>
      </trkpt>
      <trkpt lat="63.41946033" lon="10.37777">
        <ele>20.269</ele>
        <time>1970-01-01T01:00:00Z</time>
      </trkpt>
      <trkpt lat="63.41943967" lon="10.37778267">
        <ele>20.422</ele>
        <time>1970-01-01T01:00:00Z</time>
      </trkpt>
      <trkpt lat="63.41941833" lon="10.37779567">
        <ele>20.422</ele>
        <time>1970-01-01T01:00:00Z</time>
      </trkpt>
      <trkpt lat="63.4193975" lon="10.37781183">
        <ele>20.574</ele>
        <time>1970-01-01T01:00:00Z</time>
      </trkpt>
      <trkpt lat="63.41937633" lon="10.37782967">
        <ele>20.574</ele>
        <time>1970-01-01T01:00:00Z</time>
      </trkpt>
      <trkpt lat="63.4193565" lon="10.377846">
        <ele>20.727</ele>
        <time>1970-01-01T01:00:00Z</time>
      </trkpt>
      <trkpt lat="63.41933717" lon="10.37786183">
        <ele>20.727</ele>
        <time>1970-01-01T01:00:00Z</time>
      </trkpt>
      <trkpt lat="63.41931533" lon="10.37787583">
        <ele>20.727</ele>
        <time>1970-01-01T01:00:00Z</time>
      </trkpt>
      <trkpt lat="63.41929183" lon="10.3778895">
        <ele>20.727</ele>
        <time>1970-01-01T01:00:00Z</time>
      </trkpt>
      <trkpt lat="63.41926883" lon="10.3779015">
        <ele>20.879</ele>
        <time>1970-01-01T01:00:00Z</time>
      </trkpt>
      <trkpt lat="63.41924583" lon="10.3779165">
        <ele>20.879</ele>
        <time>1970-01-01T01:00:00Z</time>
      </trkpt>
      <trkpt lat="63.41922283" lon="10.37793417">
        <ele>21.031</ele>
        <time>1970-01-01T01:00:00Z</time>
      </trkpt>
      <trkpt lat="63.41919867" lon="10.37795283">
        <ele>21.031</ele>
        <time>1970-01-01T01:00:00Z</time>
      </trkpt>
      <trkpt lat="63.4191775" lon="10.37797183">
        <ele>21.184</ele>
        <time>1970-01-01T01:00:00Z</time>
      </trkpt>
      <trkpt lat="63.41915567" lon="10.377993">
        <ele>21.184</ele>
        <time>1970-01-01T01:00:00Z</time>
      </trkpt>
      <trkpt lat="63.419135" lon="10.37801633">
        <ele>21.336</ele>
        <time>1970-01-01T01:00:00Z</time>
      </trkpt>
      <trkpt lat="63.41911167" lon="10.378038">
        <ele>21.336</ele>
        <time>1970-01-01T01:00:00Z</time>
      </trkpt>
      <trkpt lat="63.41908833" lon="10.37805783">
        <ele>21.489</ele>
        <time>1970-01-01T01:00:00Z</time>
      </trkpt>
      <trkpt lat="63.41906383" lon="10.3780745">
        <ele>21.489</ele>
        <time>1970-01-01T01:00:00Z</time>
      </trkpt>
      <trkpt lat="63.41904167" lon="10.3780915">
        <ele>21.641</ele>
        <time>1970-01-01T01:00:00Z</time>
      </trkpt>
      <trkpt lat="63.41901917" lon="10.37810683">
        <ele>21.641</ele>
        <time>1970-01-01T01:00:00Z</time>
      </trkpt>
      <trkpt lat="63.41899683" lon="10.37812617">
        <ele>21.793</ele>
        <time>1970-01-01T01:00:00Z</time>
      </trkpt>
      <trkpt lat="63.41897233" lon="10.378144">
        <ele>21.793</ele>
        <time>1970-01-01T01:00:00Z</time>
      </trkpt>
      <trkpt lat="63.41894783" lon="10.378159">
        <ele>21.793</ele>
        <time>1970-01-01T01:00:00Z</time>
      </trkpt>
      <trkpt lat="63.41892317" lon="10.3781675">
        <ele>21.793</ele>
        <time>1970-01-01T01:00:00Z</time>
      </trkpt>
      <trkpt lat="63.4188995" lon="10.37817783">
        <ele>21.946</ele>
        <time>1970-01-01T01:00:00Z</time>
      </trkpt>
      <trkpt lat="63.41887767" lon="10.37819033">
        <ele>21.946</ele>
        <time>1970-01-01T01:00:00Z</time>
      </trkpt>
      <trkpt lat="63.41885483" lon="10.37820483">
        <ele>22.098</ele>
        <time>1970-01-01T01:00:00Z</time>
      </trkpt>
      <trkpt lat="63.4188325" lon="10.3782185">
        <ele>22.098</ele>
        <time>1970-01-01T01:00:00Z</time>
      </trkpt>
      <trkpt lat="63.41880917" lon="10.378234">
        <ele>22.098</ele>
        <time>1970-01-01T01:00:00Z</time>
      </trkpt>
      <trkpt lat="63.418787" lon="10.37825233">
        <ele>22.098</ele>
        <time>1970-01-01T01:00:00Z</time>
      </trkpt>
      <trkpt lat="63.41876517" lon="10.378272">
        <ele>22.251</ele>
        <time>1970-01-01T01:00:00Z</time>
      </trkpt>
      <trkpt lat="63.41874117" lon="10.37828617">
        <ele>22.251</ele>
        <time>1970-01-01T01:00:00Z</time>
      </trkpt>
      <trkpt lat="63.41871783" lon="10.37829717">
        <ele>22.403</ele>
        <time>1970-01-01T01:00:00Z</time>
      </trkpt>
      <trkpt lat="63.41869483" lon="10.37830633">
        <ele>22.403</ele>
        <time>1970-01-01T01:00:00Z</time>
      </trkpt>
      <trkpt lat="63.418674" lon="10.37831983">
        <ele>22.555</ele>
        <time>1970-01-01T01:00:00Z</time>
      </trkpt>
      <trkpt lat="63.41865083" lon="10.37833433">
        <ele>22.555</ele>
        <time>1970-01-01T01:00:00Z</time>
      </trkpt>
      <trkpt lat="63.418627" lon="10.378351">
        <ele>22.708</ele>
        <time>1970-01-01T01:00:00Z</time>
      </trkpt>
      <trkpt lat="63.41860267" lon="10.37836767">
        <ele>22.708</ele>
        <time>1970-01-01T01:00:00Z</time>
      </trkpt>
      <trkpt lat="63.41857883" lon="10.378383">
        <ele>23.013</ele>
        <time>1970-01-01T01:00:00Z</time>
      </trkpt>
      <trkpt lat="63.4185545" lon="10.37839583">
        <ele>23.013</ele>
        <time>1970-01-01T01:00:00Z</time>
      </trkpt>
      <trkpt lat="63.41853" lon="10.37840867">
        <ele>23.165</ele>
        <time>1970-01-01T01:00:00Z</time>
      </trkpt>
      <trkpt lat="63.4185055" lon="10.37842283">
        <ele>23.165</ele>
        <time>1970-01-01T01:00:00Z</time>
      </trkpt>
      <trkpt lat="63.418482" lon="10.37843717">
        <ele>23.47</ele>
        <time>1970-01-01T01:00:00Z</time>
      </trkpt>
      <trkpt lat="63.41845817" lon="10.378456">
        <ele>23.47</ele>
        <time>1970-01-01T01:00:00Z</time>
      </trkpt>
      <trkpt lat="63.41843467" lon="10.37847867">
        <ele>23.622</ele>
        <time>1970-01-01T01:00:00Z</time>
      </trkpt>
      <trkpt lat="63.41841167" lon="10.3785025">
        <ele>23.622</ele>
        <time>1970-01-01T01:00:00Z</time>
      </trkpt>
      <trkpt lat="63.418389" lon="10.37852383">
        <ele>23.927</ele>
        <time>1970-01-01T01:00:00Z</time>
      </trkpt>
      <trkpt lat="63.41836767" lon="10.37854417">
        <ele>23.927</ele>
        <time>1970-01-01T01:00:00Z</time>
      </trkpt>
      <trkpt lat="63.41834483" lon="10.37856633">
        <ele>24.079</ele>
        <time>1970-01-01T01:00:00Z</time>
      </trkpt>
      <trkpt lat="63.418323" lon="10.378589">
        <ele>24.079</ele>
        <time>1970-01-01T01:00:00Z</time>
      </trkpt>
      <trkpt lat="63.4183005" lon="10.3786105">
        <ele>24.232</ele>
        <time>1970-01-01T01:00:00Z</time>
      </trkpt>
      <trkpt lat="63.41827867" lon="10.3786295">
        <ele>24.232</ele>
        <time>1970-01-01T01:00:00Z</time>
      </trkpt>
      <trkpt lat="63.41825683" lon="10.37864767">
        <ele>24.537</ele>
        <time>1970-01-01T01:00:00Z</time>
      </trkpt>
      <trkpt lat="63.41823483" lon="10.3786645">
        <ele>24.537</ele>
        <time>1970-01-01T01:00:00Z</time>
      </trkpt>
      <trkpt lat="63.4182115" lon="10.37868333">
        <ele>24.689</ele>
        <time>1970-01-01T01:00:00Z</time>
      </trkpt>
      <trkpt lat="63.418187" lon="10.37870017">
        <ele>24.689</ele>
        <time>1970-01-01T01:00:00Z</time>
      </trkpt>
      <trkpt lat="63.41816317" lon="10.37871583">
        <ele>24.842</ele>
        <time>1970-01-01T01:00:00Z</time>
      </trkpt>
      <trkpt lat="63.4181405" lon="10.37872833">
        <ele>24.842</ele>
        <time>1970-01-01T01:00:00Z</time>
      </trkpt>
      <trkpt lat="63.41811867" lon="10.37874217">
        <ele>24.994</ele>
        <time>1970-01-01T01:00:00Z</time>
      </trkpt>
      <trkpt lat="63.418096" lon="10.378755">
        <ele>24.994</ele>
        <time>1970-01-01T01:00:00Z</time>
      </trkpt>
      <trkpt lat="63.4180735" lon="10.37876967">
        <ele>25.146</ele>
        <time>1970-01-01T01:00:00Z</time>
      </trkpt>
      <trkpt lat="63.4180515" lon="10.37878417">
        <ele>25.146</ele>
        <time>1970-01-01T01:00:00Z</time>
      </trkpt>
      <trkpt lat="63.41802983" lon="10.378802">
        <ele>25.299</ele>
        <time>1970-01-01T01:00:00Z</time>
      </trkpt>
      <trkpt lat="63.4180085" lon="10.37881683">
        <ele>25.299</ele>
        <time>1970-01-01T01:00:00Z</time>
      </trkpt>
      <trkpt lat="63.41798667" lon="10.37883117">
        <ele>25.604</ele>
        <time>1970-01-01T01:00:00Z</time>
      </trkpt>
      <trkpt lat="63.4179645" lon="10.37884217">
        <ele>25.604</ele>
        <time>1970-01-01T01:00:00Z</time>
      </trkpt>
      <trkpt lat="63.41794167" lon="10.37885483">
        <ele>25.756</ele>
        <time>1970-01-01T01:00:00Z</time>
      </trkpt>
      <trkpt lat="63.41791833" lon="10.37886583">
        <ele>25.756</ele>
        <time>1970-01-01T01:00:00Z</time>
      </trkpt>
      <trkpt lat="63.41789583" lon="10.37887833">
        <ele>25.908</ele>
        <time>1970-01-01T01:00:00Z</time>
      </trkpt>
      <trkpt lat="63.417873" lon="10.37889317">
        <ele>25.908</ele>
        <time>1970-01-01T01:00:00Z</time>
      </trkpt>
      <trkpt lat="63.41785033" lon="10.37890817">
        <ele>26.213</ele>
        <time>1970-01-01T01:00:00Z</time>
      </trkpt>
      <trkpt lat="63.41782733" lon="10.37892167">
        <ele>26.213</ele>
        <time>1970-01-01T01:00:00Z</time>
      </trkpt>
      <trkpt lat="63.41780467" lon="10.37893533">
        <ele>26.366</ele>
        <time>1970-01-01T01:00:00Z</time>
      </trkpt>
      <trkpt lat="63.41778267" lon="10.37894917">
        <ele>26.366</ele>
        <time>1970-01-01T01:00:00Z</time>
      </trkpt>
      <trkpt lat="63.41776033" lon="10.378966">
        <ele>26.518</ele>
        <time>1970-01-01T01:00:00Z</time>
      </trkpt>
      <trkpt lat="63.41773883" lon="10.3789815">
        <ele>26.518</ele>
        <time>1970-01-01T01:00:00Z</time>
      </trkpt>
      <trkpt lat="63.41771683" lon="10.37899817">
        <ele>26.67</ele>
        <time>1970-01-01T01:00:00Z</time>
      </trkpt>
      <trkpt lat="63.4176955" lon="10.37901433">
        <ele>26.67</ele>
        <time>1970-01-01T01:00:00Z</time>
      </trkpt>
      <trkpt lat="63.41767317" lon="10.37902967">
        <ele>26.823</ele>
        <time>1970-01-01T01:00:00Z</time>
      </trkpt>
      <trkpt lat="63.41765167" lon="10.37904083">
        <ele>26.823</ele>
        <time>1970-01-01T01:00:00Z</time>
      </trkpt>
      <trkpt lat="63.417631" lon="10.3790495">
        <ele>26.975</ele>
        <time>1970-01-01T01:00:00Z</time>
      </trkpt>
      <trkpt lat="63.41761" lon="10.37906">
        <ele>26.975</ele>
        <time>1970-01-01T01:00:00Z</time>
      </trkpt>
      <trkpt lat="63.41758817" lon="10.37907567">
        <ele>27.128</ele>
        <time>1970-01-01T01:00:00Z</time>
      </trkpt>
      <trkpt lat="63.41756467" lon="10.3790955">
        <ele>27.128</ele>
        <time>1970-01-01T01:00:00Z</time>
      </trkpt>
      <trkpt lat="63.41754067" lon="10.37911483">
        <ele>27.28</ele>
        <time>1970-01-01T01:00:00Z</time>
      </trkpt>
      <trkpt lat="63.4175165" lon="10.3791345">
        <ele>27.28</ele>
        <time>1970-01-01T01:00:00Z</time>
      </trkpt>
      <trkpt lat="63.41749333" lon="10.37915133">
        <ele>27.28</ele>
        <time>1970-01-01T01:00:00Z</time>
      </trkpt>
      <trkpt lat="63.41747083" lon="10.379167">
        <ele>27.28</ele>
        <time>1970-01-01T01:00:00Z</time>
      </trkpt>
      <trkpt lat="63.41744867" lon="10.37918517">
        <ele>27.432</ele>
        <time>1970-01-01T01:00:00Z</time>
      </trkpt>
      <trkpt lat="63.4174245" lon="10.37920517">
        <ele>27.432</ele>
        <time>1970-01-01T01:00:00Z</time>
      </trkpt>
      <trkpt lat="63.41740117" lon="10.37922533">
        <ele>27.585</ele>
        <time>1970-01-01T01:00:00Z</time>
      </trkpt>
      <trkpt lat="63.41737883" lon="10.37924633">
        <ele>27.585</ele>
        <time>1970-01-01T01:00:00Z</time>
      </trkpt>
      <trkpt lat="63.4173585" lon="10.379267">
        <ele>27.737</ele>
        <time>1970-01-01T01:00:00Z</time>
      </trkpt>
      <trkpt lat="63.41733783" lon="10.37928417">
        <ele>27.737</ele>
        <time>1970-01-01T01:00:00Z</time>
      </trkpt>
      <trkpt lat="63.4173165" lon="10.37929867">
        <ele>27.737</ele>
        <time>1970-01-01T01:00:00Z</time>
      </trkpt>
      <trkpt lat="63.417294" lon="10.37930983">
        <ele>27.737</ele>
        <time>1970-01-01T01:00:00Z</time>
      </trkpt>
      <trkpt lat="63.41727383" lon="10.3793275">
        <ele>27.89</ele>
        <time>1970-01-01T01:00:00Z</time>
      </trkpt>
      <trkpt lat="63.41725417" lon="10.37934583">
        <ele>27.89</ele>
        <time>1970-01-01T01:00:00Z</time>
      </trkpt>
      <trkpt lat="63.41723567" lon="10.379366">
        <ele>28.042</ele>
        <time>1970-01-01T01:00:00Z</time>
      </trkpt>
      <trkpt lat="63.41721417" lon="10.379383">
        <ele>28.042</ele>
        <time>1970-01-01T01:00:00Z</time>
      </trkpt>
      <trkpt lat="63.41719167" lon="10.3794">
        <ele>28.194</ele>
        <time>1970-01-01T01:00:00Z</time>
      </trkpt>
      <trkpt lat="63.41716733" lon="10.3794195">
        <ele>28.194</ele>
        <time>1970-01-01T01:00:00Z</time>
      </trkpt>
      <trkpt lat="63.41714267" lon="10.37943983">
        <ele>28.194</ele>
        <time>1970-01-01T01:00:00Z</time>
      </trkpt>
      <trkpt lat="63.4171185" lon="10.37945967">
        <ele>28.194</ele>
        <time>1970-01-01T01:00:00Z</time>
      </trkpt>
      <trkpt lat="63.41709567" lon="10.37947883">
        <ele>28.347</ele>
        <time>1970-01-01T01:00:00Z</time>
      </trkpt>
      <trkpt lat="63.417074" lon="10.37950067">
        <ele>28.347</ele>
        <time>1970-01-01T01:00:00Z</time>
      </trkpt>
      <trkpt lat="63.41705183" lon="10.379523">
        <ele>28.347</ele>
        <time>1970-01-01T01:00:00Z</time>
      </trkpt>
      <trkpt lat="63.41703017" lon="10.37954333">
        <ele>28.347</ele>
        <time>1970-01-01T01:00:00Z</time>
      </trkpt>
      <trkpt lat="63.41700533" lon="10.37956367">
        <ele>28.499</ele>
        <time>1970-01-01T01:00:00Z</time>
      </trkpt>
      <trkpt lat="63.416981" lon="10.37958433">
        <ele>28.499</ele>
        <time>1970-01-01T01:00:00Z</time>
      </trkpt>
      <trkpt lat="63.4169555" lon="10.37961033">
        <ele>28.499</ele>
        <time>1970-01-01T01:00:00Z</time>
      </trkpt>
      <trkpt lat="63.41693367" lon="10.37964033">
        <ele>28.499</ele>
        <time>1970-01-01T01:00:00Z</time>
      </trkpt>
      <trkpt lat="63.41691217" lon="10.37967083">
        <ele>28.652</ele>
        <time>1970-01-01T01:00:00Z</time>
      </trkpt>
      <trkpt lat="63.41689167" lon="10.37970083">
        <ele>28.652</ele>
        <time>1970-01-01T01:00:00Z</time>
      </trkpt>
      <trkpt lat="63.41687067" lon="10.37972683">
        <ele>28.804</ele>
        <time>1970-01-01T01:00:00Z</time>
      </trkpt>
      <trkpt lat="63.41684967" lon="10.37975017">
        <ele>28.804</ele>
        <time>1970-01-01T01:00:00Z</time>
      </trkpt>
      <trkpt lat="63.416828" lon="10.37977067">
        <ele>28.804</ele>
        <time>1970-01-01T01:00:00Z</time>
      </trkpt>
      <trkpt lat="63.41680667" lon="10.3797915">
        <ele>28.804</ele>
        <time>1970-01-01T01:00:00Z</time>
      </trkpt>
      <trkpt lat="63.41678583" lon="10.379809">
        <ele>28.956</ele>
        <time>1970-01-01T01:00:00Z</time>
      </trkpt>
      <trkpt lat="63.416766" lon="10.3798285">
        <ele>28.956</ele>
        <time>1970-01-01T01:00:00Z</time>
      </trkpt>
      <trkpt lat="63.416747" lon="10.379846">
        <ele>28.956</ele>
        <time>1970-01-01T01:00:00Z</time>
      </trkpt>
      <trkpt lat="63.41672767" lon="10.37986817">
        <ele>28.956</ele>
        <time>1970-01-01T01:00:00Z</time>
      </trkpt>
      <trkpt lat="63.41670833" lon="10.37988933">
        <ele>28.956</ele>
        <time>1970-01-01T01:00:00Z</time>
      </trkpt>
      <trkpt lat="63.4166875" lon="10.37991483">
        <ele>28.956</ele>
        <time>1970-01-01T01:00:00Z</time>
      </trkpt>
      <trkpt lat="63.41666683" lon="10.37994267">
        <ele>28.956</ele>
        <time>1970-01-01T01:00:00Z</time>
      </trkpt>
      <trkpt lat="63.41664783" lon="10.37997433">
        <ele>28.956</ele>
        <time>1970-01-01T01:00:00Z</time>
      </trkpt>
      <trkpt lat="63.41663167" lon="10.3800075">
        <ele>28.804</ele>
        <time>1970-01-01T01:00:00Z</time>
      </trkpt>
      <trkpt lat="63.41661733" lon="10.38004617">
        <ele>28.804</ele>
        <time>1970-01-01T01:00:00Z</time>
      </trkpt>
      <trkpt lat="63.4166045" lon="10.380087">
        <ele>28.652</ele>
        <time>1970-01-01T01:00:00Z</time>
      </trkpt>
      <trkpt lat="63.41659417" lon="10.38013033">
        <ele>28.652</ele>
        <time>1970-01-01T01:00:00Z</time>
      </trkpt>
      <trkpt lat="63.41658417" lon="10.3801725">
        <ele>28.499</ele>
        <time>1970-01-01T01:00:00Z</time>
      </trkpt>
      <trkpt lat="63.41657433" lon="10.38021617">
        <ele>28.499</ele>
        <time>1970-01-01T01:00:00Z</time>
      </trkpt>
      <trkpt lat="63.41656483" lon="10.380259">
        <ele>28.499</ele>
        <time>1970-01-01T01:00:00Z</time>
      </trkpt>
      <trkpt lat="63.416556" lon="10.380303">
        <ele>28.499</ele>
        <time>1970-01-01T01:00:00Z</time>
      </trkpt>
      <trkpt lat="63.41654783" lon="10.3803485">
        <ele>28.347</ele>
        <time>1970-01-01T01:00:00Z</time>
      </trkpt>
      <trkpt lat="63.41654083" lon="10.38039717">
        <ele>28.347</ele>
        <time>1970-01-01T01:00:00Z</time>
      </trkpt>
      <trkpt lat="63.416535" lon="10.38045067">
        <ele>28.347</ele>
        <time>1970-01-01T01:00:00Z</time>
      </trkpt>
      <trkpt lat="63.416531" lon="10.38050217">
        <ele>28.347</ele>
        <time>1970-01-01T01:00:00Z</time>
      </trkpt>
      <trkpt lat="63.416528" lon="10.3805575">
        <ele>28.194</ele>
        <time>1970-01-01T01:00:00Z</time>
      </trkpt>
      <trkpt lat="63.4165265" lon="10.38060967">
        <ele>28.194</ele>
        <time>1970-01-01T01:00:00Z</time>
      </trkpt>
      <trkpt lat="63.41652583" lon="10.38066317">
        <ele>28.194</ele>
        <time>1970-01-01T01:00:00Z</time>
      </trkpt>
      <trkpt lat="63.41652683" lon="10.38071517">
        <ele>28.194</ele>
        <time>1970-01-01T01:00:00Z</time>
      </trkpt>
      <trkpt lat="63.41652883" lon="10.3807715">
        <ele>28.042</ele>
        <time>1970-01-01T01:00:00Z</time>
      </trkpt>
      <trkpt lat="63.41653117" lon="10.38082683">
        <ele>28.042</ele>
        <time>1970-01-01T01:00:00Z</time>
      </trkpt>
      <trkpt lat="63.41653283" lon="10.3808815">
        <ele>27.89</ele>
        <time>1970-01-01T01:00:00Z</time>
      </trkpt>
      <trkpt lat="63.41653617" lon="10.38093083">
        <ele>27.89</ele>
        <time>1970-01-01T01:00:00Z</time>
      </trkpt>
      <trkpt lat="63.41653967" lon="10.38097933">
        <ele>27.737</ele>
        <time>1970-01-01T01:00:00Z</time>
      </trkpt>
      <trkpt lat="63.41654367" lon="10.38102783">
        <ele>27.737</ele>
        <time>1970-01-01T01:00:00Z</time>
      </trkpt>
      <trkpt lat="63.41654483" lon="10.38107883">
        <ele>27.432</ele>
        <time>1970-01-01T01:00:00Z</time>
      </trkpt>
      <trkpt lat="63.41654517" lon="10.38113183">
        <ele>27.432</ele>
        <time>1970-01-01T01:00:00Z</time>
      </trkpt>
      <trkpt lat="63.41654883" lon="10.381181">
        <ele>27.128</ele>
        <time>1970-01-01T01:00:00Z</time>
      </trkpt>
      <trkpt lat="63.41655483" lon="10.38123">
        <ele>27.128</ele>
        <time>1970-01-01T01:00:00Z</time>
      </trkpt>
      <trkpt lat="63.41656183" lon="10.38127983">
        <ele>26.823</ele>
        <time>1970-01-01T01:00:00Z</time>
      </trkpt>
      <trkpt lat="63.41656667" lon="10.38133217">
        <ele>26.823</ele>
        <time>1970-01-01T01:00:00Z</time>
      </trkpt>
      <trkpt lat="63.41657183" lon="10.38138567">
        <ele>26.518</ele>
        <time>1970-01-01T01:00:00Z</time>
      </trkpt>
      <trkpt lat="63.4165785" lon="10.38143633">
        <ele>26.518</ele>
        <time>1970-01-01T01:00:00Z</time>
      </trkpt>
      <trkpt lat="63.41658567" lon="10.38148217">
        <ele>26.061</ele>
        <time>1970-01-01T01:00:00Z</time>
      </trkpt>
      <trkpt lat="63.41659433" lon="10.381529">
        <ele>26.061</ele>
        <time>1970-01-01T01:00:00Z</time>
      </trkpt>
      <trkpt lat="63.41660383" lon="10.38157883">
        <ele>25.604</ele>
        <time>1970-01-01T01:00:00Z</time>
      </trkpt>
      <trkpt lat="63.41661267" lon="10.381629">
        <ele>25.604</ele>
        <time>1970-01-01T01:00:00Z</time>
      </trkpt>
      <trkpt lat="63.416619" lon="10.38167883">
        <ele>24.994</ele>
        <time>1970-01-01T01:00:00Z</time>
      </trkpt>
      <trkpt lat="63.41662367" lon="10.381729">
        <ele>24.994</ele>
        <time>1970-01-01T01:00:00Z</time>
      </trkpt>
      <trkpt lat="63.416629" lon="10.38178233">
        <ele>24.537</ele>
        <time>1970-01-01T01:00:00Z</time>
      </trkpt>
      <trkpt lat="63.41663517" lon="10.3818335">
        <ele>24.537</ele>
        <time>1970-01-01T01:00:00Z</time>
      </trkpt>
      <trkpt lat="63.4166415" lon="10.3818845">
        <ele>23.927</ele>
        <time>1970-01-01T01:00:00Z</time>
      </trkpt>
      <trkpt lat="63.41664717" lon="10.38193267">
        <ele>23.927</ele>
        <time>1970-01-01T01:00:00Z</time>
      </trkpt>
      <trkpt lat="63.41665433" lon="10.38198267">
        <ele>23.317</ele>
        <time>1970-01-01T01:00:00Z</time>
      </trkpt>
      <trkpt lat="63.41666783" lon="10.38203667">
        <ele>23.317</ele>
        <time>1970-01-01T01:00:00Z</time>
      </trkpt>
      <trkpt lat="63.41668167" lon="10.38209067">
        <ele>22.708</ele>
        <time>1970-01-01T01:00:00Z</time>
      </trkpt>
      <trkpt lat="63.41669517" lon="10.38214317">
        <ele>22.708</ele>
        <time>1970-01-01T01:00:00Z</time>
      </trkpt>
      <trkpt lat="63.4167045" lon="10.38219283">
        <ele>22.098</ele>
        <time>1970-01-01T01:00:00Z</time>
      </trkpt>
      <trkpt lat="63.41671467" lon="10.38224117">
        <ele>22.098</ele>
        <time>1970-01-01T01:00:00Z</time>
      </trkpt>
      <trkpt lat="63.41672667" lon="10.38228683">
        <ele>21.641</ele>
        <time>1970-01-01T01:00:00Z</time>
      </trkpt>
      <trkpt lat="63.41673933" lon="10.38233267">
        <ele>21.641</ele>
        <time>1970-01-01T01:00:00Z</time>
      </trkpt>
      <trkpt lat="63.41675133" lon="10.38237917">
        <ele>21.031</ele>
        <time>1970-01-01T01:00:00Z</time>
      </trkpt>
      <trkpt lat="63.416762" lon="10.38242483">
        <ele>21.031</ele>
        <time>1970-01-01T01:00:00Z</time>
      </trkpt>
      <trkpt lat="63.416773" lon="10.382467">
        <ele>20.574</ele>
        <time>1970-01-01T01:00:00Z</time>
      </trkpt>
      <trkpt lat="63.4167855" lon="10.38250767">
        <ele>20.574</ele>
        <time>1970-01-01T01:00:00Z</time>
      </trkpt>
      <trkpt lat="63.41679917" lon="10.38254617">
        <ele>20.117</ele>
        <time>1970-01-01T01:00:00Z</time>
      </trkpt>
      <trkpt lat="63.4168155" lon="10.38258233">
        <ele>20.117</ele>
        <time>1970-01-01T01:00:00Z</time>
      </trkpt>
      <trkpt lat="63.4168335" lon="10.382618">
        <ele>19.66</ele>
        <time>1970-01-01T01:00:00Z</time>
      </trkpt>
      <trkpt lat="63.41685183" lon="10.38265417">
        <ele>19.66</ele>
        <time>1970-01-01T01:00:00Z</time>
      </trkpt>
      <trkpt lat="63.41686967" lon="10.38269267">
        <ele>19.05</ele>
        <time>1970-01-01T01:00:00Z</time>
      </trkpt>
      <trkpt lat="63.41688983" lon="10.3827295">
        <ele>19.05</ele>
        <time>1970-01-01T01:00:00Z</time>
      </trkpt>
      <trkpt lat="63.416911" lon="10.3827595">
        <ele>18.593</ele>
        <time>1970-01-01T01:00:00Z</time>
      </trkpt>
      <trkpt lat="63.416933" lon="10.38277933">
        <ele>18.593</ele>
        <time>1970-01-01T01:00:00Z</time>
      </trkpt>
      <trkpt lat="63.41695633" lon="10.38278983">
        <ele>18.136</ele>
        <time>1970-01-01T01:00:00Z</time>
      </trkpt>
      <trkpt lat="63.41698167" lon="10.38279517">
        <ele>18.136</ele>
        <time>1970-01-01T01:00:00Z</time>
      </trkpt>
      <trkpt lat="63.4170075" lon="10.38279517">
        <ele>17.679</ele>
        <time>1970-01-01T01:00:00Z</time>
      </trkpt>
      <trkpt lat="63.41703283" lon="10.38279483">
        <ele>17.679</ele>
        <time>1970-01-01T01:00:00Z</time>
      </trkpt>
      <trkpt lat="63.41705817" lon="10.38279567">
        <ele>17.221</ele>
        <time>1970-01-01T01:00:00Z</time>
      </trkpt>
      <trkpt lat="63.41708317" lon="10.38279633">
        <ele>17.221</ele>
        <time>1970-01-01T01:00:00Z</time>
      </trkpt>
      <trkpt lat="63.41710767" lon="10.38279583">
        <ele>16.764</ele>
        <time>1970-01-01T01:00:00Z</time>
      </trkpt>
      <trkpt lat="63.41713233" lon="10.38279533">
        <ele>16.764</ele>
        <time>1970-01-01T01:00:00Z</time>
      </trkpt>
      <trkpt lat="63.41715783" lon="10.382795">
        <ele>16.459</ele>
        <time>1970-01-01T01:00:00Z</time>
      </trkpt>
      <trkpt lat="63.41718467" lon="10.38279267">
        <ele>16.459</ele>
        <time>1970-01-01T01:00:00Z</time>
      </trkpt>
      <trkpt lat="63.417213" lon="10.38278633">
        <ele>16.002</ele>
        <time>1970-01-01T01:00:00Z</time>
      </trkpt>
      <trkpt lat="63.4172405" lon="10.38277867">
        <ele>16.002</ele>
        <time>1970-01-01T01:00:00Z</time>
      </trkpt>
      <trkpt lat="63.4172655" lon="10.382772">
        <ele>15.545</ele>
        <time>1970-01-01T01:00:00Z</time>
      </trkpt>
      <trkpt lat="63.41728983" lon="10.38276633">
        <ele>15.545</ele>
        <time>1970-01-01T01:00:00Z</time>
      </trkpt>
      <trkpt lat="63.41731333" lon="10.382761">
        <ele>15.24</ele>
        <time>1970-01-01T01:00:00Z</time>
      </trkpt>
      <trkpt lat="63.41733733" lon="10.38275533">
        <ele>15.24</ele>
        <time>1970-01-01T01:00:00Z</time>
      </trkpt>
      <trkpt lat="63.41736067" lon="10.38274983">
        <ele>14.783</ele>
        <time>1970-01-01T01:00:00Z</time>
      </trkpt>
      <trkpt lat="63.417386" lon="10.38274367">
        <ele>14.783</ele>
        <time>1970-01-01T01:00:00Z</time>
      </trkpt>
      <trkpt lat="63.41740967" lon="10.38273633">
        <ele>14.478</ele>
        <time>1970-01-01T01:00:00Z</time>
      </trkpt>
      <trkpt lat="63.417434" lon="10.3827255">
        <ele>14.478</ele>
        <time>1970-01-01T01:00:00Z</time>
      </trkpt>
      <trkpt lat="63.41745683" lon="10.38271417">
        <ele>14.021</ele>
        <time>1970-01-01T01:00:00Z</time>
      </trkpt>
      <trkpt lat="63.41748083" lon="10.38270383">
        <ele>14.021</ele>
        <time>1970-01-01T01:00:00Z</time>
      </trkpt>
      <trkpt lat="63.417503" lon="10.382695">
        <ele>13.716</ele>
        <time>1970-01-01T01:00:00Z</time>
      </trkpt>
      <trkpt lat="63.41752283" lon="10.382683">
        <ele>13.716</ele>
        <time>1970-01-01T01:00:00Z</time>
      </trkpt>
      <trkpt lat="63.4175425" lon="10.382665">
        <ele>13.411</ele>
        <time>1970-01-01T01:00:00Z</time>
      </trkpt>
      <trkpt lat="63.417562" lon="10.38264683">
        <ele>13.411</ele>
        <time>1970-01-01T01:00:00Z</time>
      </trkpt>
      <trkpt lat="63.417583" lon="10.38262917">
        <ele>13.107</ele>
        <time>1970-01-01T01:00:00Z</time>
      </trkpt>
      <trkpt lat="63.417604" lon="10.38261433">
        <ele>13.107</ele>
        <time>1970-01-01T01:00:00Z</time>
      </trkpt>
      <trkpt lat="63.41762683" lon="10.382599">
        <ele>12.802</ele>
        <time>1970-01-01T01:00:00Z</time>
      </trkpt>
      <trkpt lat="63.41765233" lon="10.382585">
        <ele>12.802</ele>
        <time>1970-01-01T01:00:00Z</time>
      </trkpt>
      <trkpt lat="63.41767983" lon="10.38257367">
        <ele>12.649</ele>
        <time>1970-01-01T01:00:00Z</time>
      </trkpt>
      <trkpt lat="63.41770617" lon="10.38256417">
        <ele>12.649</ele>
        <time>1970-01-01T01:00:00Z</time>
      </trkpt>
      <trkpt lat="63.41773433" lon="10.38255817">
        <ele>12.497</ele>
        <time>1970-01-01T01:00:00Z</time>
      </trkpt>
      <trkpt lat="63.41776167" lon="10.38255317">
        <ele>12.497</ele>
        <time>1970-01-01T01:00:00Z</time>
      </trkpt>
      <trkpt lat="63.4177895" lon="10.38254783">
        <ele>12.192</ele>
        <time>1970-01-01T01:00:00Z</time>
      </trkpt>
      <trkpt lat="63.41781483" lon="10.382553">
        <ele>12.192</ele>
        <time>1970-01-01T01:00:00Z</time>
      </trkpt>
      <trkpt lat="63.41783717" lon="10.382565">
        <ele>12.04</ele>
        <time>1970-01-01T01:00:00Z</time>
      </trkpt>
      <trkpt lat="63.41785917" lon="10.38257717">
        <ele>12.04</ele>
        <time>1970-01-01T01:00:00Z</time>
      </trkpt>
      <trkpt lat="63.41787933" lon="10.38257567">
        <ele>11.887</ele>
        <time>1970-01-01T01:00:00Z</time>
      </trkpt>
      <trkpt lat="63.41790633" lon="10.3825645">
        <ele>11.887</ele>
        <time>1970-01-01T01:00:00Z</time>
      </trkpt>
      <trkpt lat="63.417934" lon="10.38255117">
        <ele>11.735</ele>
        <time>1970-01-01T01:00:00Z</time>
      </trkpt>
      <trkpt lat="63.417965" lon="10.38253683">
        <ele>11.735</ele>
        <time>1970-01-01T01:00:00Z</time>
      </trkpt>
      <trkpt lat="63.417994" lon="10.38252433">
        <ele>11.583</ele>
        <time>1970-01-01T01:00:00Z</time>
      </trkpt>
      <trkpt lat="63.4180235" lon="10.38251533">
        <ele>11.583</ele>
        <time>1970-01-01T01:00:00Z</time>
      </trkpt>
      <trkpt lat="63.41805133" lon="10.3825085">
        <ele>11.43</ele>
        <time>1970-01-01T01:00:00Z</time>
      </trkpt>
      <trkpt lat="63.4180795" lon="10.38250067">
        <ele>11.43</ele>
        <time>1970-01-01T01:00:00Z</time>
      </trkpt>
      <trkpt lat="63.41810617" lon="10.38249033">
        <ele>11.278</ele>
        <time>1970-01-01T01:00:00Z</time>
      </trkpt>
      <trkpt lat="63.41813167" lon="10.38248267">
        <ele>11.278</ele>
        <time>1970-01-01T01:00:00Z</time>
      </trkpt>
      <trkpt lat="63.41815533" lon="10.38247767">
        <ele>11.125</ele>
        <time>1970-01-01T01:00:00Z</time>
      </trkpt>
      <trkpt lat="63.41817967" lon="10.382475">
        <ele>11.125</ele>
        <time>1970-01-01T01:00:00Z</time>
      </trkpt>
      <trkpt lat="63.41820383" lon="10.38247067">
        <ele>10.973</ele>
        <time>1970-01-01T01:00:00Z</time>
      </trkpt>
      <trkpt lat="63.41823" lon="10.38246617">
        <ele>10.973</ele>
        <time>1970-01-01T01:00:00Z</time>
      </trkpt>
      <trkpt lat="63.41825717" lon="10.38246317">
        <ele>10.821</ele>
        <time>1970-01-01T01:00:00Z</time>
      </trkpt>
      <trkpt lat="63.41828483" lon="10.38246567">
        <ele>10.821</ele>
        <time>1970-01-01T01:00:00Z</time>
      </trkpt>
      <trkpt lat="63.41831117" lon="10.38247633">
        <ele>10.668</ele>
        <time>1970-01-01T01:00:00Z</time>
      </trkpt>
      <trkpt lat="63.41833733" lon="10.38249283">
        <ele>10.668</ele>
        <time>1970-01-01T01:00:00Z</time>
      </trkpt>
      <trkpt lat="63.41836267" lon="10.38251167">
        <ele>10.516</ele>
        <time>1970-01-01T01:00:00Z</time>
      </trkpt>
      <trkpt lat="63.41838767" lon="10.3825315">
        <ele>10.516</ele>
        <time>1970-01-01T01:00:00Z</time>
      </trkpt>
      <trkpt lat="63.41841267" lon="10.38255367">
        <ele>10.363</ele>
        <time>1970-01-01T01:00:00Z</time>
      </trkpt>
      <trkpt lat="63.41843983" lon="10.38257467">
        <ele>10.363</ele>
        <time>1970-01-01T01:00:00Z</time>
      </trkpt>
      <trkpt lat="63.41846933" lon="10.3825945">
        <ele>10.211</ele>
        <time>1970-01-01T01:00:00Z</time>
      </trkpt>
      <trkpt lat="63.41850133" lon="10.38261133">
        <ele>10.211</ele>
        <time>1970-01-01T01:00:00Z</time>
      </trkpt>
      <trkpt lat="63.41853717" lon="10.382628">
        <ele>10.211</ele>
        <time>1970-01-01T01:00:00Z</time>
      </trkpt>
      <trkpt lat="63.418575" lon="10.3826425">
        <ele>10.211</ele>
        <time>1970-01-01T01:00:00Z</time>
      </trkpt>
      <trkpt lat="63.41861233" lon="10.38266183">
        <ele>10.211</ele>
        <time>1970-01-01T01:00:00Z</time>
      </trkpt>
      <trkpt lat="63.41864183" lon="10.3826885">
        <ele>10.211</ele>
        <time>1970-01-01T01:00:00Z</time>
      </trkpt>
      <trkpt lat="63.41866533" lon="10.38271683">
        <ele>10.211</ele>
        <time>1970-01-01T01:00:00Z</time>
      </trkpt>
      <trkpt lat="63.41868517" lon="10.38274133">
        <ele>10.211</ele>
        <time>1970-01-01T01:00:00Z</time>
      </trkpt>
      <trkpt lat="63.418704" lon="10.38275883">
        <ele>10.059</ele>
        <time>1970-01-01T01:00:00Z</time>
      </trkpt>
      <trkpt lat="63.41872267" lon="10.38277717">
        <ele>10.059</ele>
        <time>1970-01-01T01:00:00Z</time>
      </trkpt>
      <trkpt lat="63.41873883" lon="10.38279683">
        <ele>10.211</ele>
        <time>1970-01-01T01:00:00Z</time>
      </trkpt>
      <trkpt lat="63.41875233" lon="10.38281717">
        <ele>10.211</ele>
        <time>1970-01-01T01:00:00Z</time>
      </trkpt>
      <trkpt lat="63.4187655" lon="10.38283033">
        <ele>10.211</ele>
        <time>1970-01-01T01:00:00Z</time>
      </trkpt>
      <trkpt lat="63.418777" lon="10.38283583">
        <ele>10.211</ele>
        <time>1970-01-01T01:00:00Z</time>
      </trkpt>
      <trkpt lat="63.4187925" lon="10.38283483">
        <ele>10.211</ele>
        <time>1970-01-01T01:00:00Z</time>
      </trkpt>
      <trkpt lat="63.41881017" lon="10.38283267">
        <ele>10.211</ele>
        <time>1970-01-01T01:00:00Z</time>
      </trkpt>
      <trkpt lat="63.41883117" lon="10.38283183">
        <ele>10.211</ele>
        <time>1970-01-01T01:00:00Z</time>
      </trkpt>
      <trkpt lat="63.4188525" lon="10.38282883">
        <ele>10.211</ele>
        <time>1970-01-01T01:00:00Z</time>
      </trkpt>
      <trkpt lat="63.41887183" lon="10.38282083">
        <ele>10.211</ele>
        <time>1970-01-01T01:00:00Z</time>
      </trkpt>
      <trkpt lat="63.41889133" lon="10.38281017">
        <ele>10.211</ele>
        <time>1970-01-01T01:00:00Z</time>
      </trkpt>
      <trkpt lat="63.41891033" lon="10.3828005">
        <ele>10.211</ele>
        <time>1970-01-01T01:00:00Z</time>
      </trkpt>
      <trkpt lat="63.4189305" lon="10.38278983">
        <ele>10.211</ele>
        <time>1970-01-01T01:00:00Z</time>
      </trkpt>
      <trkpt lat="63.4189505" lon="10.3827755">
        <ele>10.211</ele>
        <time>1970-01-01T01:00:00Z</time>
      </trkpt>
      <trkpt lat="63.41897183" lon="10.38275517">
        <ele>10.211</ele>
        <time>1970-01-01T01:00:00Z</time>
      </trkpt>
      <trkpt lat="63.41899267" lon="10.38273583">
        <ele>10.211</ele>
        <time>1970-01-01T01:00:00Z</time>
      </trkpt>
      <trkpt lat="63.41901367" lon="10.3827165">
        <ele>10.211</ele>
        <time>1970-01-01T01:00:00Z</time>
      </trkpt>
      <trkpt lat="63.41903483" lon="10.382701">
        <ele>10.211</ele>
        <time>1970-01-01T01:00:00Z</time>
      </trkpt>
      <trkpt lat="63.41905633" lon="10.3826855">
        <ele>10.211</ele>
        <time>1970-01-01T01:00:00Z</time>
      </trkpt>
      <trkpt lat="63.419078" lon="10.38266883">
        <ele>10.363</ele>
        <time>1970-01-01T01:00:00Z</time>
      </trkpt>
      <trkpt lat="63.41909933" lon="10.38265183">
        <ele>10.363</ele>
        <time>1970-01-01T01:00:00Z</time>
      </trkpt>
      <trkpt lat="63.41912" lon="10.38263517">
        <ele>10.363</ele>
        <time>1970-01-01T01:00:00Z</time>
      </trkpt>
      <trkpt lat="63.41914267" lon="10.38261717">
        <ele>10.363</ele>
        <time>1970-01-01T01:00:00Z</time>
      </trkpt>
      <trkpt lat="63.41916517" lon="10.382597">
        <ele>10.363</ele>
        <time>1970-01-01T01:00:00Z</time>
      </trkpt>
      <trkpt lat="63.41918933" lon="10.38257733">
        <ele>10.363</ele>
        <time>1970-01-01T01:00:00Z</time>
      </trkpt>
      <trkpt lat="63.41921233" lon="10.3825615">
        <ele>10.363</ele>
        <time>1970-01-01T01:00:00Z</time>
      </trkpt>
      <trkpt lat="63.41923767" lon="10.38254633">
        <ele>10.363</ele>
        <time>1970-01-01T01:00:00Z</time>
      </trkpt>
      <trkpt lat="63.4192635" lon="10.38252917">
        <ele>10.516</ele>
        <time>1970-01-01T01:00:00Z</time>
      </trkpt>
      <trkpt lat="63.41928917" lon="10.38251367">
        <ele>10.516</ele>
        <time>1970-01-01T01:00:00Z</time>
      </trkpt>
      <trkpt lat="63.419314" lon="10.38250217">
        <ele>10.516</ele>
        <time>1970-01-01T01:00:00Z</time>
      </trkpt>
      <trkpt lat="63.41933533" lon="10.38250567">
        <ele>10.516</ele>
        <time>1970-01-01T01:00:00Z</time>
      </trkpt>
      <trkpt lat="63.41935833" lon="10.3825115">
        <ele>10.668</ele>
        <time>1970-01-01T01:00:00Z</time>
      </trkpt>
      <trkpt lat="63.41938067" lon="10.38251883">
        <ele>10.668</ele>
        <time>1970-01-01T01:00:00Z</time>
      </trkpt>
      <trkpt lat="63.41940533" lon="10.38251933">
        <ele>10.668</ele>
        <time>1970-01-01T01:00:00Z</time>
      </trkpt>
      <trkpt lat="63.41942817" lon="10.382521">
        <ele>10.668</ele>
        <time>1970-01-01T01:00:00Z</time>
      </trkpt>
      <trkpt lat="63.4194515" lon="10.38253117">
        <ele>10.821</ele>
        <time>1970-01-01T01:00:00Z</time>
      </trkpt>
      <trkpt lat="63.41947183" lon="10.38255117">
        <ele>10.821</ele>
        <time>1970-01-01T01:00:00Z</time>
      </trkpt>
      <trkpt lat="63.41949133" lon="10.38258467">
        <ele>10.821</ele>
        <time>1970-01-01T01:00:00Z</time>
      </trkpt>
      <trkpt lat="63.41950917" lon="10.382628">
        <ele>10.821</ele>
        <time>1970-01-01T01:00:00Z</time>
      </trkpt>
      <trkpt lat="63.41952417" lon="10.38267567">
        <ele>10.821</ele>
        <time>1970-01-01T01:00:00Z</time>
      </trkpt>
      <trkpt lat="63.4195365" lon="10.38272467">
        <ele>10.821</ele>
        <time>1970-01-01T01:00:00Z</time>
      </trkpt>
      <trkpt lat="63.419547" lon="10.38277317">
        <ele>10.821</ele>
        <time>1970-01-01T01:00:00Z</time>
      </trkpt>
      <trkpt lat="63.41955867" lon="10.382819">
        <ele>10.821</ele>
        <time>1970-01-01T01:00:00Z</time>
      </trkpt>
      <trkpt lat="63.4195705" lon="10.382866">
        <ele>10.821</ele>
        <time>1970-01-01T01:00:00Z</time>
      </trkpt>
      <trkpt lat="63.419581" lon="10.38291483">
        <ele>10.821</ele>
        <time>1970-01-01T01:00:00Z</time>
      </trkpt>
      <trkpt lat="63.41959117" lon="10.38296483">
        <ele>10.821</ele>
        <time>1970-01-01T01:00:00Z</time>
      </trkpt>
      <trkpt lat="63.41960133" lon="10.3830135">
        <ele>10.821</ele>
        <time>1970-01-01T01:00:00Z</time>
      </trkpt>
      <trkpt lat="63.4196135" lon="10.3830615">
        <ele>10.821</ele>
        <time>1970-01-01T01:00:00Z</time>
      </trkpt>
      <trkpt lat="63.41962633" lon="10.38311167">
        <ele>10.821</ele>
        <time>1970-01-01T01:00:00Z</time>
      </trkpt>
      <trkpt lat="63.41963967" lon="10.38316">
        <ele>10.668</ele>
        <time>1970-01-01T01:00:00Z</time>
      </trkpt>
      <trkpt lat="63.41965117" lon="10.3832105">
        <ele>10.668</ele>
        <time>1970-01-01T01:00:00Z</time>
      </trkpt>
      <trkpt lat="63.41966167" lon="10.38325883">
        <ele>10.668</ele>
        <time>1970-01-01T01:00:00Z</time>
      </trkpt>
      <trkpt lat="63.4196705" lon="10.38331517">
        <ele>10.668</ele>
        <time>1970-01-01T01:00:00Z</time>
      </trkpt>
      <trkpt lat="63.41968017" lon="10.383368">
        <ele>10.516</ele>
        <time>1970-01-01T01:00:00Z</time>
      </trkpt>
      <trkpt lat="63.4196905" lon="10.383422">
        <ele>10.516</ele>
        <time>1970-01-01T01:00:00Z</time>
      </trkpt>
      <trkpt lat="63.41970283" lon="10.3834745">
        <ele>10.516</ele>
        <time>1970-01-01T01:00:00Z</time>
      </trkpt>
      <trkpt lat="63.41971583" lon="10.3835275">
        <ele>10.516</ele>
        <time>1970-01-01T01:00:00Z</time>
      </trkpt>
      <trkpt lat="63.41972883" lon="10.38358033">
        <ele>10.363</ele>
        <time>1970-01-01T01:00:00Z</time>
      </trkpt>
      <trkpt lat="63.41974067" lon="10.38363067">
        <ele>10.363</ele>
        <time>1970-01-01T01:00:00Z</time>
      </trkpt>
      <trkpt lat="63.419751" lon="10.3836805">
        <ele>10.363</ele>
        <time>1970-01-01T01:00:00Z</time>
      </trkpt>
      <trkpt lat="63.41976167" lon="10.38373">
        <ele>10.363</ele>
        <time>1970-01-01T01:00:00Z</time>
      </trkpt>
      <trkpt lat="63.419773" lon="10.3837785">
        <ele>10.211</ele>
        <time>1970-01-01T01:00:00Z</time>
      </trkpt>
      <trkpt lat="63.41978583" lon="10.38382767">
        <ele>10.211</ele>
        <time>1970-01-01T01:00:00Z</time>
      </trkpt>
      <trkpt lat="63.41979883" lon="10.3838755">
        <ele>10.211</ele>
        <time>1970-01-01T01:00:00Z</time>
      </trkpt>
      <trkpt lat="63.41981367" lon="10.38392567">
        <ele>10.211</ele>
        <time>1970-01-01T01:00:00Z</time>
      </trkpt>
      <trkpt lat="63.41982667" lon="10.383976">
        <ele>10.059</ele>
        <time>1970-01-01T01:00:00Z</time>
      </trkpt>
      <trkpt lat="63.4198385" lon="10.38402767">
        <ele>10.059</ele>
        <time>1970-01-01T01:00:00Z</time>
      </trkpt>
      <trkpt lat="63.41984967" lon="10.3840785">
        <ele>10.059</ele>
        <time>1970-01-01T01:00:00Z</time>
      </trkpt>
      <trkpt lat="63.41986367" lon="10.38412767">
        <ele>10.059</ele>
        <time>1970-01-01T01:00:00Z</time>
      </trkpt>
      <trkpt lat="63.41987733" lon="10.38417733">
        <ele>9.906</ele>
        <time>1970-01-01T01:00:00Z</time>
      </trkpt>
      <trkpt lat="63.41989133" lon="10.3842265">
        <ele>9.906</ele>
        <time>1970-01-01T01:00:00Z</time>
      </trkpt>
      <trkpt lat="63.41990317" lon="10.38427517">
        <ele>9.906</ele>
        <time>1970-01-01T01:00:00Z</time>
      </trkpt>
      <trkpt lat="63.41991517" lon="10.3843245">
        <ele>9.906</ele>
        <time>1970-01-01T01:00:00Z</time>
      </trkpt>
      <trkpt lat="63.41992633" lon="10.38437417">
        <ele>9.906</ele>
        <time>1970-01-01T01:00:00Z</time>
      </trkpt>
      <trkpt lat="63.41993733" lon="10.3844225">
        <ele>9.906</ele>
        <time>1970-01-01T01:00:00Z</time>
      </trkpt>
      <trkpt lat="63.4199495" lon="10.38447033">
        <ele>9.754</ele>
        <time>1970-01-01T01:00:00Z</time>
      </trkpt>
      <trkpt lat="63.41996183" lon="10.3845175">
        <ele>9.754</ele>
        <time>1970-01-01T01:00:00Z</time>
      </trkpt>
      <trkpt lat="63.419975" lon="10.38456367">
        <ele>9.754</ele>
        <time>1970-01-01T01:00:00Z</time>
      </trkpt>
      <trkpt lat="63.41998767" lon="10.384609">
        <ele>9.754</ele>
        <time>1970-01-01T01:00:00Z</time>
      </trkpt>
      <trkpt lat="63.42000017" lon="10.38465267">
        <ele>9.601</ele>
        <time>1970-01-01T01:00:00Z</time>
      </trkpt>
      <trkpt lat="63.42001167" lon="10.384698">
        <ele>9.601</ele>
        <time>1970-01-01T01:00:00Z</time>
      </trkpt>
      <trkpt lat="63.420023" lon="10.384745">
        <ele>9.601</ele>
        <time>1970-01-01T01:00:00Z</time>
      </trkpt>
      <trkpt lat="63.420036" lon="10.3847855">
        <ele>9.601</ele>
        <time>1970-01-01T01:00:00Z</time>
      </trkpt>
      <trkpt lat="63.4200515" lon="10.38481733">
        <ele>9.449</ele>
        <time>1970-01-01T01:00:00Z</time>
      </trkpt>
      <trkpt lat="63.42007017" lon="10.3848385">
        <ele>9.449</ele>
        <time>1970-01-01T01:00:00Z</time>
      </trkpt>
      <trkpt lat="63.4200895" lon="10.38484833">
        <ele>9.449</ele>
        <time>1970-01-01T01:00:00Z</time>
      </trkpt>
      <trkpt lat="63.4201085" lon="10.38484183">
        <ele>9.449</ele>
        <time>1970-01-01T01:00:00Z</time>
      </trkpt>
      <trkpt lat="63.42012617" lon="10.384824">
        <ele>9.449</ele>
        <time>1970-01-01T01:00:00Z</time>
      </trkpt>
      <trkpt lat="63.42014117" lon="10.38479683">
        <ele>9.449</ele>
        <time>1970-01-01T01:00:00Z</time>
      </trkpt>
      <trkpt lat="63.4201495" lon="10.384769">
        <ele>9.449</ele>
        <time>1970-01-01T01:00:00Z</time>
      </trkpt>
      <trkpt lat="63.420154" lon="10.38473733">
        <ele>9.449</ele>
        <time>1970-01-01T01:00:00Z</time>
      </trkpt>
      <trkpt lat="63.420161" lon="10.38470717">
        <ele>9.297</ele>
        <time>1970-01-01T01:00:00Z</time>
      </trkpt>
      <trkpt lat="63.42017533" lon="10.38467917">
        <ele>9.297</ele>
        <time>1970-01-01T01:00:00Z</time>
      </trkpt>
      <trkpt lat="63.4201935" lon="10.38465183">
        <ele>9.449</ele>
        <time>1970-01-01T01:00:00Z</time>
      </trkpt>
      <trkpt lat="63.42021383" lon="10.384629">
        <ele>9.449</ele>
        <time>1970-01-01T01:00:00Z</time>
      </trkpt>
      <trkpt lat="63.4202345" lon="10.38461017">
        <ele>9.449</ele>
        <time>1970-01-01T01:00:00Z</time>
      </trkpt>
      <trkpt lat="63.4202565" lon="10.38459367">
        <ele>9.449</ele>
        <time>1970-01-01T01:00:00Z</time>
      </trkpt>
      <trkpt lat="63.42027483" lon="10.38457717">
        <ele>9.449</ele>
        <time>1970-01-01T01:00:00Z</time>
      </trkpt>
      <trkpt lat="63.42029067" lon="10.38455433">
        <ele>9.449</ele>
        <time>1970-01-01T01:00:00Z</time>
      </trkpt>
      <trkpt lat="63.42030517" lon="10.38452583">
        <ele>9.449</ele>
        <time>1970-01-01T01:00:00Z</time>
      </trkpt>
      <trkpt lat="63.42032217" lon="10.38449117">
        <ele>9.449</ele>
        <time>1970-01-01T01:00:00Z</time>
      </trkpt>
      <trkpt lat="63.42034133" lon="10.3844605">
        <ele>9.449</ele>
        <time>1970-01-01T01:00:00Z</time>
      </trkpt>
      <trkpt lat="63.42036483" lon="10.38443517">
        <ele>9.449</ele>
        <time>1970-01-01T01:00:00Z</time>
      </trkpt>
      <trkpt lat="63.42038983" lon="10.38441683">
        <ele>9.601</ele>
        <time>1970-01-01T01:00:00Z</time>
      </trkpt>
      <trkpt lat="63.4204195" lon="10.3844025">
        <ele>9.601</ele>
        <time>1970-01-01T01:00:00Z</time>
      </trkpt>
      <trkpt lat="63.42044933" lon="10.38439067">
        <ele>9.601</ele>
        <time>1970-01-01T01:00:00Z</time>
      </trkpt>
      <trkpt lat="63.42048317" lon="10.38438283">
        <ele>9.601</ele>
        <time>1970-01-01T01:00:00Z</time>
      </trkpt>
      <trkpt lat="63.420516" lon="10.384375">
        <ele>9.601</ele>
        <time>1970-01-01T01:00:00Z</time>
      </trkpt>
      <trkpt lat="63.42054667" lon="10.38436617">
        <ele>9.601</ele>
        <time>1970-01-01T01:00:00Z</time>
      </trkpt>
      <trkpt lat="63.42057467" lon="10.38435067">
        <ele>9.601</ele>
        <time>1970-01-01T01:00:00Z</time>
      </trkpt>
      <trkpt lat="63.42060517" lon="10.38433383">
        <ele>9.601</ele>
        <time>1970-01-01T01:00:00Z</time>
      </trkpt>
      <trkpt lat="63.420639" lon="10.3843185">
        <ele>9.754</ele>
        <time>1970-01-01T01:00:00Z</time>
      </trkpt>
      <trkpt lat="63.42067117" lon="10.38430633">
        <ele>9.754</ele>
        <time>1970-01-01T01:00:00Z</time>
      </trkpt>
      <trkpt lat="63.420701" lon="10.38430133">
        <ele>9.754</ele>
        <time>1970-01-01T01:00:00Z</time>
      </trkpt>
      <trkpt lat="63.420728" lon="10.38430683">
        <ele>9.754</ele>
        <time>1970-01-01T01:00:00Z</time>
      </trkpt>
      <trkpt lat="63.4207525" lon="10.38432467">
        <ele>9.601</ele>
        <time>1970-01-01T01:00:00Z</time>
      </trkpt>
      <trkpt lat="63.42077233" lon="10.38435483">
        <ele>9.601</ele>
        <time>1970-01-01T01:00:00Z</time>
      </trkpt>
      <trkpt lat="63.42078867" lon="10.38439433">
        <ele>9.601</ele>
        <time>1970-01-01T01:00:00Z</time>
      </trkpt>
      <trkpt lat="63.42080367" lon="10.3844385">
        <ele>9.601</ele>
        <time>1970-01-01T01:00:00Z</time>
      </trkpt>
      <trkpt lat="63.4208165" lon="10.384482">
        <ele>9.449</ele>
        <time>1970-01-01T01:00:00Z</time>
      </trkpt>
      <trkpt lat="63.42082967" lon="10.384519">
        <ele>9.449</ele>
        <time>1970-01-01T01:00:00Z</time>
      </trkpt>
      <trkpt lat="63.42084133" lon="10.384555">
        <ele>9.449</ele>
        <time>1970-01-01T01:00:00Z</time>
      </trkpt>
      <trkpt lat="63.42085617" lon="10.384587">
        <ele>9.449</ele>
        <time>1970-01-01T01:00:00Z</time>
      </trkpt>
      <trkpt lat="63.42086867" lon="10.38461783">
        <ele>9.297</ele>
        <time>1970-01-01T01:00:00Z</time>
      </trkpt>
      <trkpt lat="63.420887" lon="10.384642">
        <ele>9.297</ele>
        <time>1970-01-01T01:00:00Z</time>
      </trkpt>
      <trkpt lat="63.420907" lon="10.384655">
        <ele>9.144</ele>
        <time>1970-01-01T01:00:00Z</time>
      </trkpt>
      <trkpt lat="63.42092967" lon="10.3846615">
        <ele>9.144</ele>
        <time>1970-01-01T01:00:00Z</time>
      </trkpt>
      <trkpt lat="63.42094783" lon="10.38466567">
        <ele>9.144</ele>
        <time>1970-01-01T01:00:00Z</time>
      </trkpt>
      <trkpt lat="63.42096417" lon="10.38467033">
        <ele>9.144</ele>
        <time>1970-01-01T01:00:00Z</time>
      </trkpt>
      <trkpt lat="63.42097883" lon="10.3846695">
        <ele>8.992</ele>
        <time>1970-01-01T01:00:00Z</time>
      </trkpt>
      <trkpt lat="63.420994" lon="10.384663">
        <ele>8.992</ele>
        <time>1970-01-01T01:00:00Z</time>
      </trkpt>
      <trkpt lat="63.42101033" lon="10.38464783">
        <ele>8.992</ele>
        <time>1970-01-01T01:00:00Z</time>
      </trkpt>
      <trkpt lat="63.421029" lon="10.38462917">
        <ele>8.992</ele>
        <time>1970-01-01T01:00:00Z</time>
      </trkpt>
      <trkpt lat="63.421048" lon="10.38460883">
        <ele>9.144</ele>
        <time>1970-01-01T01:00:00Z</time>
      </trkpt>
      <trkpt lat="63.4210665" lon="10.384595">
        <ele>9.144</ele>
        <time>1970-01-01T01:00:00Z</time>
      </trkpt>
      <trkpt lat="63.42108383" lon="10.38458333">
        <ele>9.297</ele>
        <time>1970-01-01T01:00:00Z</time>
      </trkpt>
      <trkpt lat="63.42110517" lon="10.38456667">
        <ele>9.297</ele>
        <time>1970-01-01T01:00:00Z</time>
      </trkpt>
      <trkpt lat="63.42112733" lon="10.384545">
        <ele>9.754</ele>
        <time>1970-01-01T01:00:00Z</time>
      </trkpt>
      <trkpt lat="63.4211495" lon="10.3845175">
        <ele>9.754</ele>
        <time>1970-01-01T01:00:00Z</time>
      </trkpt>
      <trkpt lat="63.42116133" lon="10.38448133">
        <ele>10.059</ele>
        <time>1970-01-01T01:00:00Z</time>
      </trkpt>
      <trkpt lat="63.4211685" lon="10.38444233">
        <ele>10.059</ele>
        <time>1970-01-01T01:00:00Z</time>
      </trkpt>
      <trkpt lat="63.42117517" lon="10.384405">
        <ele>10.363</ele>
        <time>1970-01-01T01:00:00Z</time>
      </trkpt>
      <trkpt lat="63.42118983" lon="10.38437617">
        <ele>10.363</ele>
        <time>1970-01-01T01:00:00Z</time>
      </trkpt>
      <trkpt lat="63.421208" lon="10.3843465">
        <ele>10.668</ele>
        <time>1970-01-01T01:00:00Z</time>
      </trkpt>
      <trkpt lat="63.42122567" lon="10.384315">
        <ele>10.668</ele>
        <time>1970-01-01T01:00:00Z</time>
      </trkpt>
      <trkpt lat="63.42124283" lon="10.38428267">
        <ele>10.973</ele>
        <time>1970-01-01T01:00:00Z</time>
      </trkpt>
      <trkpt lat="63.42126167" lon="10.38425067">
        <ele>10.973</ele>
        <time>1970-01-01T01:00:00Z</time>
      </trkpt>
      <trkpt lat="63.4212795" lon="10.384219">
        <ele>11.43</ele>
        <time>1970-01-01T01:00:00Z</time>
      </trkpt>
      <trkpt lat="63.4212985" lon="10.3841865">
        <ele>11.43</ele>
        <time>1970-01-01T01:00:00Z</time>
      </trkpt>
      <trkpt lat="63.42132533" lon="10.3841535">
        <ele>11.735</ele>
        <time>1970-01-01T01:00:00Z</time>
      </trkpt>
      <trkpt lat="63.42136567" lon="10.38413183">
        <ele>11.735</ele>
        <time>1970-01-01T01:00:00Z</time>
      </trkpt>
      <trkpt lat="63.42141117" lon="10.38411">
        <ele>12.04</ele>
        <time>1970-01-01T01:00:00Z</time>
      </trkpt>
      <trkpt lat="63.42145917" lon="10.38408833">
        <ele>12.04</ele>
        <time>1970-01-01T01:00:00Z</time>
      </trkpt>
      <trkpt lat="63.42149917" lon="10.38405833">
        <ele>12.192</ele>
        <time>1970-01-01T01:00:00Z</time>
      </trkpt>
      <trkpt lat="63.421535" lon="10.38403217">
        <ele>12.192</ele>
        <time>1970-01-01T01:00:00Z</time>
      </trkpt>
      <trkpt lat="63.42156233" lon="10.3840075">
        <ele>12.345</ele>
        <time>1970-01-01T01:00:00Z</time>
      </trkpt>
      <trkpt lat="63.42159067" lon="10.38398117">
        <ele>12.345</ele>
        <time>1970-01-01T01:00:00Z</time>
      </trkpt>
      <trkpt lat="63.42161867" lon="10.383954">
        <ele>12.497</ele>
        <time>1970-01-01T01:00:00Z</time>
      </trkpt>
      <trkpt lat="63.42164333" lon="10.38392133">
        <ele>12.497</ele>
        <time>1970-01-01T01:00:00Z</time>
      </trkpt>
      <trkpt lat="63.42166267" lon="10.38388217">
        <ele>12.649</ele>
        <time>1970-01-01T01:00:00Z</time>
      </trkpt>
      <trkpt lat="63.42168117" lon="10.38383783">
        <ele>12.649</ele>
        <time>1970-01-01T01:00:00Z</time>
      </trkpt>
      <trkpt lat="63.42170033" lon="10.38379717">
        <ele>12.954</ele>
        <time>1970-01-01T01:00:00Z</time>
      </trkpt>
      <trkpt lat="63.421722" lon="10.38376533">
        <ele>12.954</ele>
        <time>1970-01-01T01:00:00Z</time>
      </trkpt>
      <trkpt lat="63.42174217" lon="10.38373867">
        <ele>13.107</ele>
        <time>1970-01-01T01:00:00Z</time>
      </trkpt>
      <trkpt lat="63.42176067" lon="10.3837145">
        <ele>13.107</ele>
        <time>1970-01-01T01:00:00Z</time>
      </trkpt>
      <trkpt lat="63.42178167" lon="10.38369083">
        <ele>13.411</ele>
        <time>1970-01-01T01:00:00Z</time>
      </trkpt>
      <trkpt lat="63.421809" lon="10.38366733">
        <ele>13.411</ele>
        <time>1970-01-01T01:00:00Z</time>
      </trkpt>
      <trkpt lat="63.421838" lon="10.38363733">
        <ele>13.716</ele>
        <time>1970-01-01T01:00:00Z</time>
      </trkpt>
      <trkpt lat="63.42186583" lon="10.38359933">
        <ele>13.716</ele>
        <time>1970-01-01T01:00:00Z</time>
      </trkpt>
      <trkpt lat="63.42189167" lon="10.3835565">
        <ele>14.021</ele>
        <time>1970-01-01T01:00:00Z</time>
      </trkpt>
      <trkpt lat="63.42192217" lon="10.38351733">
        <ele>14.021</ele>
        <time>1970-01-01T01:00:00Z</time>
      </trkpt>
      <trkpt lat="63.42195333" lon="10.38348367">
        <ele>14.173</ele>
        <time>1970-01-01T01:00:00Z</time>
      </trkpt>
      <trkpt lat="63.4219815" lon="10.3834535">
        <ele>14.173</ele>
        <time>1970-01-01T01:00:00Z</time>
      </trkpt>
      <trkpt lat="63.422008" lon="10.38342883">
        <ele>14.478</ele>
        <time>1970-01-01T01:00:00Z</time>
      </trkpt>
      <trkpt lat="63.42203367" lon="10.38340817">
        <ele>14.478</ele>
        <time>1970-01-01T01:00:00Z</time>
      </trkpt>
      <trkpt lat="63.42205983" lon="10.38338783">
        <ele>14.783</ele>
        <time>1970-01-01T01:00:00Z</time>
      </trkpt>
      <trkpt lat="63.4220855" lon="10.38336967">
        <ele>14.783</ele>
        <time>1970-01-01T01:00:00Z</time>
      </trkpt>
      <trkpt lat="63.422109" lon="10.38334667">
        <ele>14.935</ele>
        <time>1970-01-01T01:00:00Z</time>
      </trkpt>
      <trkpt lat="63.42213217" lon="10.38331917">
        <ele>14.935</ele>
        <time>1970-01-01T01:00:00Z</time>
      </trkpt>
      <trkpt lat="63.42215183" lon="10.3832835">
        <ele>15.24</ele>
        <time>1970-01-01T01:00:00Z</time>
      </trkpt>
      <trkpt lat="63.4221725" lon="10.383249">
        <ele>15.24</ele>
        <time>1970-01-01T01:00:00Z</time>
      </trkpt>
      <trkpt lat="63.42219483" lon="10.38321883">
        <ele>15.393</ele>
        <time>1970-01-01T01:00:00Z</time>
      </trkpt>
      <trkpt lat="63.42221967" lon="10.38319267">
        <ele>15.393</ele>
        <time>1970-01-01T01:00:00Z</time>
      </trkpt>
      <trkpt lat="63.42224567" lon="10.38316867">
        <ele>15.545</ele>
        <time>1970-01-01T01:00:00Z</time>
      </trkpt>
      <trkpt lat="63.42227" lon="10.38314667">
        <ele>15.545</ele>
        <time>1970-01-01T01:00:00Z</time>
      </trkpt>
      <trkpt lat="63.42229383" lon="10.38312517">
        <ele>15.697</ele>
        <time>1970-01-01T01:00:00Z</time>
      </trkpt>
      <trkpt lat="63.42231833" lon="10.3831">
        <ele>15.697</ele>
        <time>1970-01-01T01:00:00Z</time>
      </trkpt>
      <trkpt lat="63.42234283" lon="10.38307317">
        <ele>15.85</ele>
        <time>1970-01-01T01:00:00Z</time>
      </trkpt>
      <trkpt lat="63.42236617" lon="10.38304067">
        <ele>15.85</ele>
        <time>1970-01-01T01:00:00Z</time>
      </trkpt>
      <trkpt lat="63.42238617" lon="10.38300383">
        <ele>15.85</ele>
        <time>1970-01-01T01:00:00Z</time>
      </trkpt>
      <trkpt lat="63.422406" lon="10.38296417">
        <ele>15.85</ele>
        <time>1970-01-01T01:00:00Z</time>
      </trkpt>
      <trkpt lat="63.42242733" lon="10.3829275">
        <ele>16.002</ele>
        <time>1970-01-01T01:00:00Z</time>
      </trkpt>
      <trkpt lat="63.4224515" lon="10.38289717">
        <ele>16.002</ele>
        <time>1970-01-01T01:00:00Z</time>
      </trkpt>
      <trkpt lat="63.42247567" lon="10.38287217">
        <ele>16.002</ele>
        <time>1970-01-01T01:00:00Z</time>
      </trkpt>
      <trkpt lat="63.42249883" lon="10.38284833">
        <ele>16.002</ele>
        <time>1970-01-01T01:00:00Z</time>
      </trkpt>
      <trkpt lat="63.4225205" lon="10.38282517">
        <ele>16.155</ele>
        <time>1970-01-01T01:00:00Z</time>
      </trkpt>
      <trkpt lat="63.42254117" lon="10.38280067">
        <ele>16.155</ele>
        <time>1970-01-01T01:00:00Z</time>
      </trkpt>
      <trkpt lat="63.42256317" lon="10.382777">
        <ele>16.155</ele>
        <time>1970-01-01T01:00:00Z</time>
      </trkpt>
      <trkpt lat="63.42258383" lon="10.382749">
        <ele>16.155</ele>
        <time>1970-01-01T01:00:00Z</time>
      </trkpt>
      <trkpt lat="63.4226065" lon="10.38272133">
        <ele>16.307</ele>
        <time>1970-01-01T01:00:00Z</time>
      </trkpt>
      <trkpt lat="63.42263" lon="10.38269017">
        <ele>16.307</ele>
        <time>1970-01-01T01:00:00Z</time>
      </trkpt>
      <trkpt lat="63.42265533" lon="10.382657">
        <ele>16.459</ele>
        <time>1970-01-01T01:00:00Z</time>
      </trkpt>
      <trkpt lat="63.42268167" lon="10.38262283">
        <ele>16.459</ele>
        <time>1970-01-01T01:00:00Z</time>
      </trkpt>
      <trkpt lat="63.42270633" lon="10.38258467">
        <ele>16.612</ele>
        <time>1970-01-01T01:00:00Z</time>
      </trkpt>
      <trkpt lat="63.42272833" lon="10.38254483">
        <ele>16.612</ele>
        <time>1970-01-01T01:00:00Z</time>
      </trkpt>
      <trkpt lat="63.42274767" lon="10.3825045">
        <ele>16.764</ele>
        <time>1970-01-01T01:00:00Z</time>
      </trkpt>
      <trkpt lat="63.42276583" lon="10.38246733">
        <ele>16.764</ele>
        <time>1970-01-01T01:00:00Z</time>
      </trkpt>
      <trkpt lat="63.42278467" lon="10.38243517">
        <ele>16.764</ele>
        <time>1970-01-01T01:00:00Z</time>
      </trkpt>
      <trkpt lat="63.42280383" lon="10.38240333">
        <ele>16.764</ele>
        <time>1970-01-01T01:00:00Z</time>
      </trkpt>
      <trkpt lat="63.422825" lon="10.38237417">
        <ele>16.917</ele>
        <time>1970-01-01T01:00:00Z</time>
      </trkpt>
      <trkpt lat="63.4228475" lon="10.38234933">
        <ele>16.917</ele>
        <time>1970-01-01T01:00:00Z</time>
      </trkpt>
      <trkpt lat="63.42286967" lon="10.3823325">
        <ele>17.069</ele>
        <time>1970-01-01T01:00:00Z</time>
      </trkpt>
      <trkpt lat="63.42288933" lon="10.38233417">
        <ele>17.069</ele>
        <time>1970-01-01T01:00:00Z</time>
      </trkpt>
      <trkpt lat="63.422905" lon="10.38234483">
        <ele>17.221</ele>
        <time>1970-01-01T01:00:00Z</time>
      </trkpt>
      <trkpt lat="63.42291983" lon="10.38236667">
        <ele>17.221</ele>
        <time>1970-01-01T01:00:00Z</time>
      </trkpt>
      <trkpt lat="63.4229355" lon="10.38238733">
        <ele>17.221</ele>
        <time>1970-01-01T01:00:00Z</time>
      </trkpt>
      <trkpt lat="63.42295317" lon="10.38240817">
        <ele>17.221</ele>
        <time>1970-01-01T01:00:00Z</time>
      </trkpt>
      <trkpt lat="63.42296933" lon="10.38242233">
        <ele>17.374</ele>
        <time>1970-01-01T01:00:00Z</time>
      </trkpt>
      <trkpt lat="63.42298533" lon="10.38244333">
        <ele>17.374</ele>
        <time>1970-01-01T01:00:00Z</time>
      </trkpt>
      <trkpt lat="63.4230015" lon="10.3824765">
        <ele>17.374</ele>
        <time>1970-01-01T01:00:00Z</time>
      </trkpt>
      <trkpt lat="63.423019" lon="10.38252283">
        <ele>17.374</ele>
        <time>1970-01-01T01:00:00Z</time>
      </trkpt>
      <trkpt lat="63.42303783" lon="10.382573">
        <ele>17.526</ele>
        <time>1970-01-01T01:00:00Z</time>
      </trkpt>
      <trkpt lat="63.4230595" lon="10.38262433">
        <ele>17.526</ele>
        <time>1970-01-01T01:00:00Z</time>
      </trkpt>
      <trkpt lat="63.4230865" lon="10.38268417">
        <ele>17.526</ele>
        <time>1970-01-01T01:00:00Z</time>
      </trkpt>
      <trkpt lat="63.42311417" lon="10.3827435">
        <ele>17.526</ele>
        <time>1970-01-01T01:00:00Z</time>
      </trkpt>
      <trkpt lat="63.42314367" lon="10.38280733">
        <ele>17.374</ele>
        <time>1970-01-01T01:00:00Z</time>
      </trkpt>
      <trkpt lat="63.42317" lon="10.38286517">
        <ele>17.374</ele>
        <time>1970-01-01T01:00:00Z</time>
      </trkpt>
      <trkpt lat="63.423193" lon="10.38292017">
        <ele>17.374</ele>
        <time>1970-01-01T01:00:00Z</time>
      </trkpt>
      <trkpt lat="63.42321083" lon="10.38296483">
        <ele>17.374</ele>
        <time>1970-01-01T01:00:00Z</time>
      </trkpt>
      <trkpt lat="63.42322633" lon="10.38300633">
        <ele>17.221</ele>
        <time>1970-01-01T01:00:00Z</time>
      </trkpt>
      <trkpt lat="63.42324317" lon="10.383052">
        <ele>17.221</ele>
        <time>1970-01-01T01:00:00Z</time>
      </trkpt>
      <trkpt lat="63.423261" lon="10.38310117">
        <ele>17.221</ele>
        <time>1970-01-01T01:00:00Z</time>
      </trkpt>
      <trkpt lat="63.4232845" lon="10.38315433">
        <ele>17.221</ele>
        <time>1970-01-01T01:00:00Z</time>
      </trkpt>
      <trkpt lat="63.42330683" lon="10.38320433">
        <ele>17.069</ele>
        <time>1970-01-01T01:00:00Z</time>
      </trkpt>
      <trkpt lat="63.42332733" lon="10.3832615">
        <ele>17.069</ele>
        <time>1970-01-01T01:00:00Z</time>
      </trkpt>
      <trkpt lat="63.42334267" lon="10.383313">
        <ele>16.917</ele>
        <time>1970-01-01T01:00:00Z</time>
      </trkpt>
      <trkpt lat="63.4233575" lon="10.38336617">
        <ele>16.917</ele>
        <time>1970-01-01T01:00:00Z</time>
      </trkpt>
      <trkpt lat="63.4233705" lon="10.38341767">
        <ele>16.917</ele>
        <time>1970-01-01T01:00:00Z</time>
      </trkpt>
      <trkpt lat="63.42338283" lon="10.38347433">
        <ele>16.917</ele>
        <time>1970-01-01T01:00:00Z</time>
      </trkpt>
      <trkpt lat="63.42339517" lon="10.38352917">
        <ele>16.764</ele>
        <time>1970-01-01T01:00:00Z</time>
      </trkpt>
      <trkpt lat="63.4234115" lon="10.38358083">
        <ele>16.764</ele>
        <time>1970-01-01T01:00:00Z</time>
      </trkpt>
      <trkpt lat="63.42342983" lon="10.38363417">
        <ele>16.612</ele>
        <time>1970-01-01T01:00:00Z</time>
      </trkpt>
      <trkpt lat="63.42344733" lon="10.38368533">
        <ele>16.612</ele>
        <time>1970-01-01T01:00:00Z</time>
      </trkpt>
      <trkpt lat="63.4234635" lon="10.3837385">
        <ele>16.612</ele>
        <time>1970-01-01T01:00:00Z</time>
      </trkpt>
      <trkpt lat="63.42347783" lon="10.38378683">
        <ele>16.612</ele>
        <time>1970-01-01T01:00:00Z</time>
      </trkpt>
      <trkpt lat="63.42349483" lon="10.38383483">
        <ele>16.459</ele>
        <time>1970-01-01T01:00:00Z</time>
      </trkpt>
      <trkpt lat="63.42351033" lon="10.38388367">
        <ele>16.459</ele>
        <time>1970-01-01T01:00:00Z</time>
      </trkpt>
      <trkpt lat="63.42352617" lon="10.38393217">
        <ele>16.307</ele>
        <time>1970-01-01T01:00:00Z</time>
      </trkpt>
      <trkpt lat="63.42353867" lon="10.38398367">
        <ele>16.307</ele>
        <time>1970-01-01T01:00:00Z</time>
      </trkpt>
      <trkpt lat="63.42355117" lon="10.38403533">
        <ele>16.002</ele>
        <time>1970-01-01T01:00:00Z</time>
      </trkpt>
      <trkpt lat="63.42355817" lon="10.3840945">
        <ele>16.002</ele>
        <time>1970-01-01T01:00:00Z</time>
      </trkpt>
      <trkpt lat="63.423565" lon="10.38415383">
        <ele>15.85</ele>
        <time>1970-01-01T01:00:00Z</time>
      </trkpt>
      <trkpt lat="63.42357183" lon="10.384211">
        <ele>15.85</ele>
        <time>1970-01-01T01:00:00Z</time>
      </trkpt>
      <trkpt lat="63.42358183" lon="10.38426233">
        <ele>15.697</ele>
        <time>1970-01-01T01:00:00Z</time>
      </trkpt>
      <trkpt lat="63.4235935" lon="10.38431167">
        <ele>15.697</ele>
        <time>1970-01-01T01:00:00Z</time>
      </trkpt>
      <trkpt lat="63.42360583" lon="10.3843605">
        <ele>15.393</ele>
        <time>1970-01-01T01:00:00Z</time>
      </trkpt>
      <trkpt lat="63.42361883" lon="10.384408">
        <ele>15.393</ele>
        <time>1970-01-01T01:00:00Z</time>
      </trkpt>
      <trkpt lat="63.42363267" lon="10.38445783">
        <ele>15.24</ele>
        <time>1970-01-01T01:00:00Z</time>
      </trkpt>
      <trkpt lat="63.42364767" lon="10.38450833">
        <ele>15.24</ele>
        <time>1970-01-01T01:00:00Z</time>
      </trkpt>
      <trkpt lat="63.42366417" lon="10.38455767">
        <ele>15.088</ele>
        <time>1970-01-01T01:00:00Z</time>
      </trkpt>
      <trkpt lat="63.42368083" lon="10.384605">
        <ele>15.088</ele>
        <time>1970-01-01T01:00:00Z</time>
      </trkpt>
      <trkpt lat="63.42369633" lon="10.38465483">
        <ele>14.783</ele>
        <time>1970-01-01T01:00:00Z</time>
      </trkpt>
      <trkpt lat="63.42371167" lon="10.384704">
        <ele>14.783</ele>
        <time>1970-01-01T01:00:00Z</time>
      </trkpt>
      <trkpt lat="63.42372683" lon="10.38475817">
        <ele>14.631</ele>
        <time>1970-01-01T01:00:00Z</time>
      </trkpt>
      <trkpt lat="63.42374217" lon="10.38480717">
        <ele>14.631</ele>
        <time>1970-01-01T01:00:00Z</time>
      </trkpt>
      <trkpt lat="63.42375633" lon="10.38485917">
        <ele>14.326</ele>
        <time>1970-01-01T01:00:00Z</time>
      </trkpt>
      <trkpt lat="63.42376933" lon="10.38490733">
        <ele>14.326</ele>
        <time>1970-01-01T01:00:00Z</time>
      </trkpt>
      <trkpt lat="63.42378233" lon="10.38495933">
        <ele>14.173</ele>
        <time>1970-01-01T01:00:00Z</time>
      </trkpt>
      <trkpt lat="63.423797" lon="10.38501117">
        <ele>14.173</ele>
        <time>1970-01-01T01:00:00Z</time>
      </trkpt>
      <trkpt lat="63.42381083" lon="10.38506567">
        <ele>14.021</ele>
        <time>1970-01-01T01:00:00Z</time>
      </trkpt>
      <trkpt lat="63.423826" lon="10.38511217">
        <ele>14.021</ele>
        <time>1970-01-01T01:00:00Z</time>
      </trkpt>
      <trkpt lat="63.42384167" lon="10.38515883">
        <ele>13.716</ele>
        <time>1970-01-01T01:00:00Z</time>
      </trkpt>
      <trkpt lat="63.4238595" lon="10.38520233">
        <ele>13.716</ele>
        <time>1970-01-01T01:00:00Z</time>
      </trkpt>
      <trkpt lat="63.42387633" lon="10.3852475">
        <ele>13.564</ele>
        <time>1970-01-01T01:00:00Z</time>
      </trkpt>
      <trkpt lat="63.423892" lon="10.385292">
        <ele>13.564</ele>
        <time>1970-01-01T01:00:00Z</time>
      </trkpt>
      <trkpt lat="63.4239065" lon="10.385332">
        <ele>13.564</ele>
        <time>1970-01-01T01:00:00Z</time>
      </trkpt>
      <trkpt lat="63.42391967" lon="10.38537383">
        <ele>13.564</ele>
        <time>1970-01-01T01:00:00Z</time>
      </trkpt>
      <trkpt lat="63.42392967" lon="10.38541533">
        <ele>13.564</ele>
        <time>1970-01-01T01:00:00Z</time>
      </trkpt>
      <trkpt lat="63.42393917" lon="10.38546283">
        <ele>13.564</ele>
        <time>1970-01-01T01:00:00Z</time>
      </trkpt>
      <trkpt lat="63.4239495" lon="10.38551283">
        <ele>13.411</ele>
        <time>1970-01-01T01:00:00Z</time>
      </trkpt>
      <trkpt lat="63.42396017" lon="10.38556383">
        <ele>13.411</ele>
        <time>1970-01-01T01:00:00Z</time>
      </trkpt>
      <trkpt lat="63.42396833" lon="10.385619">
        <ele>13.411</ele>
        <time>1970-01-01T01:00:00Z</time>
      </trkpt>
      <trkpt lat="63.42397467" lon="10.38567367">
        <ele>13.411</ele>
        <time>1970-01-01T01:00:00Z</time>
      </trkpt>
      <trkpt lat="63.42398533" lon="10.38572833">
        <ele>13.411</ele>
        <time>1970-01-01T01:00:00Z</time>
      </trkpt>
      <trkpt lat="63.4239975" lon="10.38577667">
        <ele>13.411</ele>
        <time>1970-01-01T01:00:00Z</time>
      </trkpt>
      <trkpt lat="63.42401283" lon="10.3858195">
        <ele>13.259</ele>
        <time>1970-01-01T01:00:00Z</time>
      </trkpt>
      <trkpt lat="63.42402667" lon="10.38584983">
        <ele>13.259</ele>
        <time>1970-01-01T01:00:00Z</time>
      </trkpt>
      <trkpt lat="63.42404117" lon="10.385868">
        <ele>13.107</ele>
        <time>1970-01-01T01:00:00Z</time>
      </trkpt>
      <trkpt lat="63.42405383" lon="10.38586717">
        <ele>13.107</ele>
        <time>1970-01-01T01:00:00Z</time>
      </trkpt>
      <trkpt lat="63.42406417" lon="10.3858585">
        <ele>13.107</ele>
        <time>1970-01-01T01:00:00Z</time>
      </trkpt>
      <trkpt lat="63.42407483" lon="10.38584483">
        <ele>13.107</ele>
        <time>1970-01-01T01:00:00Z</time>
      </trkpt>
      <trkpt lat="63.42408567" lon="10.385837">
        <ele>12.954</ele>
        <time>1970-01-01T01:00:00Z</time>
      </trkpt>
      <trkpt lat="63.42409933" lon="10.3858365">
        <ele>12.954</ele>
        <time>1970-01-01T01:00:00Z</time>
      </trkpt>
      <trkpt lat="63.42412317" lon="10.38585983">
        <ele>12.802</ele>
        <time>1970-01-01T01:00:00Z</time>
      </trkpt>
      <trkpt lat="63.42414767" lon="10.3858955">
        <ele>12.802</ele>
        <time>1970-01-01T01:00:00Z</time>
      </trkpt>
      <trkpt lat="63.4241755" lon="10.38593033">
        <ele>12.649</ele>
        <time>1970-01-01T01:00:00Z</time>
      </trkpt>
      <trkpt lat="63.42419533" lon="10.38594933">
        <ele>12.649</ele>
        <time>1970-01-01T01:00:00Z</time>
      </trkpt>
      <trkpt lat="63.424217" lon="10.385962">
        <ele>12.497</ele>
        <time>1970-01-01T01:00:00Z</time>
      </trkpt>
      <trkpt lat="63.424236" lon="10.38598217">
        <ele>12.497</ele>
        <time>1970-01-01T01:00:00Z</time>
      </trkpt>
      <trkpt lat="63.42425367" lon="10.38600917">
        <ele>12.192</ele>
        <time>1970-01-01T01:00:00Z</time>
      </trkpt>
      <trkpt lat="63.4242715" lon="10.386045">
        <ele>12.192</ele>
        <time>1970-01-01T01:00:00Z</time>
      </trkpt>
      <trkpt lat="63.4242985" lon="10.386087">
        <ele>12.04</ele>
        <time>1970-01-01T01:00:00Z</time>
      </trkpt>
      <trkpt lat="63.42432833" lon="10.38612933">
        <ele>12.04</ele>
        <time>1970-01-01T01:00:00Z</time>
      </trkpt>
      <trkpt lat="63.4243585" lon="10.386171">
        <ele>11.887</ele>
        <time>1970-01-01T01:00:00Z</time>
      </trkpt>
      <trkpt lat="63.42438017" lon="10.38620417">
        <ele>11.887</ele>
        <time>1970-01-01T01:00:00Z</time>
      </trkpt>
      <trkpt lat="63.42439967" lon="10.38622983">
        <ele>11.583</ele>
        <time>1970-01-01T01:00:00Z</time>
      </trkpt>
      <trkpt lat="63.4244205" lon="10.38624633">
        <ele>11.583</ele>
        <time>1970-01-01T01:00:00Z</time>
      </trkpt>
      <trkpt lat="63.424443" lon="10.386251">
        <ele>11.43</ele>
        <time>1970-01-01T01:00:00Z</time>
      </trkpt>
      <trkpt lat="63.4244675" lon="10.38624633">
        <ele>11.43</ele>
        <time>1970-01-01T01:00:00Z</time>
      </trkpt>
      <trkpt lat="63.42449067" lon="10.38622817">
        <ele>11.278</ele>
        <time>1970-01-01T01:00:00Z</time>
      </trkpt>
      <trkpt lat="63.424515" lon="10.38620283">
        <ele>11.278</ele>
        <time>1970-01-01T01:00:00Z</time>
      </trkpt>
      <trkpt lat="63.42453633" lon="10.386175">
        <ele>11.278</ele>
        <time>1970-01-01T01:00:00Z</time>
      </trkpt>
      <trkpt lat="63.42455817" lon="10.38614917">
        <ele>11.278</ele>
        <time>1970-01-01T01:00:00Z</time>
      </trkpt>
      <trkpt lat="63.42457767" lon="10.3861255">
        <ele>11.278</ele>
        <time>1970-01-01T01:00:00Z</time>
      </trkpt>
      <trkpt lat="63.42459883" lon="10.38609517">
        <ele>11.278</ele>
        <time>1970-01-01T01:00:00Z</time>
      </trkpt>
      <trkpt lat="63.42461883" lon="10.386061">
        <ele>11.125</ele>
        <time>1970-01-01T01:00:00Z</time>
      </trkpt>
      <trkpt lat="63.42463867" lon="10.38601867">
        <ele>11.125</ele>
        <time>1970-01-01T01:00:00Z</time>
      </trkpt>
      <trkpt lat="63.42465733" lon="10.38598417">
        <ele>11.125</ele>
        <time>1970-01-01T01:00:00Z</time>
      </trkpt>
      <trkpt lat="63.42467517" lon="10.3859525">
        <ele>11.125</ele>
        <time>1970-01-01T01:00:00Z</time>
      </trkpt>
      <trkpt lat="63.42469267" lon="10.385923">
        <ele>11.278</ele>
        <time>1970-01-01T01:00:00Z</time>
      </trkpt>
      <trkpt lat="63.4247085" lon="10.385894">
        <ele>11.278</ele>
        <time>1970-01-01T01:00:00Z</time>
      </trkpt>
      <trkpt lat="63.42472133" lon="10.38585283">
        <ele>11.278</ele>
        <time>1970-01-01T01:00:00Z</time>
      </trkpt>
      <trkpt lat="63.4247345" lon="10.38580683">
        <ele>11.278</ele>
        <time>1970-01-01T01:00:00Z</time>
      </trkpt>
      <trkpt lat="63.42474883" lon="10.38575367">
        <ele>11.278</ele>
        <time>1970-01-01T01:00:00Z</time>
      </trkpt>
      <trkpt lat="63.42476967" lon="10.38570383">
        <ele>11.278</ele>
        <time>1970-01-01T01:00:00Z</time>
      </trkpt>
      <trkpt lat="63.42479317" lon="10.385665">
        <ele>11.278</ele>
        <time>1970-01-01T01:00:00Z</time>
      </trkpt>
      <trkpt lat="63.42482033" lon="10.385631">
        <ele>11.278</ele>
        <time>1970-01-01T01:00:00Z</time>
      </trkpt>
      <trkpt lat="63.424847" lon="10.385605">
        <ele>11.278</ele>
        <time>1970-01-01T01:00:00Z</time>
      </trkpt>
      <trkpt lat="63.42487167" lon="10.38557783">
        <ele>11.278</ele>
        <time>1970-01-01T01:00:00Z</time>
      </trkpt>
      <trkpt lat="63.424894" lon="10.38554617">
        <ele>11.278</ele>
        <time>1970-01-01T01:00:00Z</time>
      </trkpt>
      <trkpt lat="63.424909" lon="10.3855025">
        <ele>11.278</ele>
        <time>1970-01-01T01:00:00Z</time>
      </trkpt>
      <trkpt lat="63.4249225" lon="10.3854545">
        <ele>11.43</ele>
        <time>1970-01-01T01:00:00Z</time>
      </trkpt>
      <trkpt lat="63.424937" lon="10.3854055">
        <ele>11.43</ele>
        <time>1970-01-01T01:00:00Z</time>
      </trkpt>
      <trkpt lat="63.4249585" lon="10.38536833">
        <ele>11.583</ele>
        <time>1970-01-01T01:00:00Z</time>
      </trkpt>
      <trkpt lat="63.42497967" lon="10.38533267">
        <ele>11.583</ele>
        <time>1970-01-01T01:00:00Z</time>
      </trkpt>
      <trkpt lat="63.42500033" lon="10.3852965">
        <ele>11.735</ele>
        <time>1970-01-01T01:00:00Z</time>
      </trkpt>
      <trkpt lat="63.4250205" lon="10.38526217">
        <ele>11.735</ele>
        <time>1970-01-01T01:00:00Z</time>
      </trkpt>
      <trkpt lat="63.42504283" lon="10.38523">
        <ele>12.04</ele>
        <time>1970-01-01T01:00:00Z</time>
      </trkpt>
      <trkpt lat="63.42506767" lon="10.38519933">
        <ele>12.04</ele>
        <time>1970-01-01T01:00:00Z</time>
      </trkpt>
      <trkpt lat="63.42509" lon="10.38516633">
        <ele>12.345</ele>
        <time>1970-01-01T01:00:00Z</time>
      </trkpt>
      <trkpt lat="63.42511067" lon="10.38513617">
        <ele>12.345</ele>
        <time>1970-01-01T01:00:00Z</time>
      </trkpt>
      <trkpt lat="63.42513" lon="10.38510967">
        <ele>12.802</ele>
        <time>1970-01-01T01:00:00Z</time>
      </trkpt>
      <trkpt lat="63.42515217" lon="10.38508633">
        <ele>12.802</ele>
        <time>1970-01-01T01:00:00Z</time>
      </trkpt>
      <trkpt lat="63.42517533" lon="10.38505883">
        <ele>13.259</ele>
        <time>1970-01-01T01:00:00Z</time>
      </trkpt>
      <trkpt lat="63.42519533" lon="10.38502867">
        <ele>13.259</ele>
        <time>1970-01-01T01:00:00Z</time>
      </trkpt>
      <trkpt lat="63.42521467" lon="10.38500067">
        <ele>13.716</ele>
        <time>1970-01-01T01:00:00Z</time>
      </trkpt>
      <trkpt lat="63.42523417" lon="10.38497867">
        <ele>13.716</ele>
        <time>1970-01-01T01:00:00Z</time>
      </trkpt>
      <trkpt lat="63.42525367" lon="10.38495333">
        <ele>14.326</ele>
        <time>1970-01-01T01:00:00Z</time>
      </trkpt>
      <trkpt lat="63.42527217" lon="10.38491983">
        <ele>14.326</ele>
        <time>1970-01-01T01:00:00Z</time>
      </trkpt>
      <trkpt lat="63.42529333" lon="10.38488433">
        <ele>14.783</ele>
        <time>1970-01-01T01:00:00Z</time>
      </trkpt>
      <trkpt lat="63.42531633" lon="10.38485617">
        <ele>14.783</ele>
        <time>1970-01-01T01:00:00Z</time>
      </trkpt>
      <trkpt lat="63.42534067" lon="10.3848325">
        <ele>15.24</ele>
        <time>1970-01-01T01:00:00Z</time>
      </trkpt>
      <trkpt lat="63.42536267" lon="10.38480167">
        <ele>15.24</ele>
        <time>1970-01-01T01:00:00Z</time>
      </trkpt>
      <trkpt lat="63.425387" lon="10.38476633">
        <ele>15.85</ele>
        <time>1970-01-01T01:00:00Z</time>
      </trkpt>
      <trkpt lat="63.42541117" lon="10.38472717">
        <ele>15.85</ele>
        <time>1970-01-01T01:00:00Z</time>
      </trkpt>
      <trkpt lat="63.42544183" lon="10.38467983">
        <ele>16.307</ele>
        <time>1970-01-01T01:00:00Z</time>
      </trkpt>
      <trkpt lat="63.4254705" lon="10.38463167">
        <ele>16.307</ele>
        <time>1970-01-01T01:00:00Z</time>
      </trkpt>
      <trkpt lat="63.42549767" lon="10.38458017">
        <ele>16.764</ele>
        <time>1970-01-01T01:00:00Z</time>
      </trkpt>
      <trkpt lat="63.42551533" lon="10.384534">
        <ele>16.764</ele>
        <time>1970-01-01T01:00:00Z</time>
      </trkpt>
      <trkpt lat="63.42553017" lon="10.38448433">
        <ele>17.221</ele>
        <time>1970-01-01T01:00:00Z</time>
      </trkpt>
      <trkpt lat="63.42554617" lon="10.38443183">
        <ele>17.221</ele>
        <time>1970-01-01T01:00:00Z</time>
      </trkpt>
      <trkpt lat="63.425557" lon="10.38436317">
        <ele>17.679</ele>
        <time>1970-01-01T01:00:00Z</time>
      </trkpt>
      <trkpt lat="63.425564" lon="10.38428183">
        <ele>17.679</ele>
        <time>1970-01-01T01:00:00Z</time>
      </trkpt>
      <trkpt lat="63.42556633" lon="10.38418933">
        <ele>17.983</ele>
        <time>1970-01-01T01:00:00Z</time>
      </trkpt>
      <trkpt lat="63.42557317" lon="10.3841125">
        <ele>17.983</ele>
        <time>1970-01-01T01:00:00Z</time>
      </trkpt>
      <trkpt lat="63.425585" lon="10.38404583">
        <ele>18.136</ele>
        <time>1970-01-01T01:00:00Z</time>
      </trkpt>
      <trkpt lat="63.425599" lon="10.383996">
        <ele>18.136</ele>
        <time>1970-01-01T01:00:00Z</time>
      </trkpt>
      <trkpt lat="63.425615" lon="10.38395167">
        <ele>18.136</ele>
        <time>1970-01-01T01:00:00Z</time>
      </trkpt>
      <trkpt lat="63.42562917" lon="10.383911">
        <ele>18.136</ele>
        <time>1970-01-01T01:00:00Z</time>
      </trkpt>
      <trkpt lat="63.42564517" lon="10.38387183">
        <ele>18.136</ele>
        <time>1970-01-01T01:00:00Z</time>
      </trkpt>
      <trkpt lat="63.42566217" lon="10.383837">
        <ele>18.136</ele>
        <time>1970-01-01T01:00:00Z</time>
      </trkpt>
      <trkpt lat="63.42568383" lon="10.38380467">
        <ele>18.136</ele>
        <time>1970-01-01T01:00:00Z</time>
      </trkpt>
      <trkpt lat="63.4257045" lon="10.38377233">
        <ele>18.136</ele>
        <time>1970-01-01T01:00:00Z</time>
      </trkpt>
      <trkpt lat="63.42572717" lon="10.3837325">
        <ele>18.288</ele>
        <time>1970-01-01T01:00:00Z</time>
      </trkpt>
      <trkpt lat="63.42574683" lon="10.38368667">
        <ele>18.288</ele>
        <time>1970-01-01T01:00:00Z</time>
      </trkpt>
      <trkpt lat="63.42576267" lon="10.38363717">
        <ele>18.136</ele>
        <time>1970-01-01T01:00:00Z</time>
      </trkpt>
      <trkpt lat="63.425775" lon="10.38358617">
        <ele>18.136</ele>
        <time>1970-01-01T01:00:00Z</time>
      </trkpt>
      <trkpt lat="63.42578617" lon="10.38353883">
        <ele>18.136</ele>
        <time>1970-01-01T01:00:00Z</time>
      </trkpt>
      <trkpt lat="63.4257985" lon="10.38349683">
        <ele>18.136</ele>
        <time>1970-01-01T01:00:00Z</time>
      </trkpt>
      <trkpt lat="63.42581283" lon="10.383458">
        <ele>17.983</ele>
        <time>1970-01-01T01:00:00Z</time>
      </trkpt>
      <trkpt lat="63.42583083" lon="10.38342317">
        <ele>17.983</ele>
        <time>1970-01-01T01:00:00Z</time>
      </trkpt>
      <trkpt lat="63.42585183" lon="10.38338817">
        <ele>17.679</ele>
        <time>1970-01-01T01:00:00Z</time>
      </trkpt>
      <trkpt lat="63.42587267" lon="10.38335617">
        <ele>17.679</ele>
        <time>1970-01-01T01:00:00Z</time>
      </trkpt>
      <trkpt lat="63.42589183" lon="10.383325">
        <ele>17.526</ele>
        <time>1970-01-01T01:00:00Z</time>
      </trkpt>
      <trkpt lat="63.4259115" lon="10.38329483">
        <ele>17.526</ele>
        <time>1970-01-01T01:00:00Z</time>
      </trkpt>
      <trkpt lat="63.42592967" lon="10.38326167">
        <ele>17.221</ele>
        <time>1970-01-01T01:00:00Z</time>
      </trkpt>
      <trkpt lat="63.42594867" lon="10.3832235">
        <ele>17.221</ele>
        <time>1970-01-01T01:00:00Z</time>
      </trkpt>
      <trkpt lat="63.42596717" lon="10.3831885">
        <ele>16.917</ele>
        <time>1970-01-01T01:00:00Z</time>
      </trkpt>
      <trkpt lat="63.42598767" lon="10.383156">
        <ele>16.917</ele>
        <time>1970-01-01T01:00:00Z</time>
      </trkpt>
      <trkpt lat="63.42601133" lon="10.38313117">
        <ele>16.612</ele>
        <time>1970-01-01T01:00:00Z</time>
      </trkpt>
      <trkpt lat="63.42604033" lon="10.38310783">
        <ele>16.612</ele>
        <time>1970-01-01T01:00:00Z</time>
      </trkpt>
      <trkpt lat="63.42607083" lon="10.38308383">
        <ele>16.459</ele>
        <time>1970-01-01T01:00:00Z</time>
      </trkpt>
      <trkpt lat="63.42609867" lon="10.38305483">
        <ele>16.459</ele>
        <time>1970-01-01T01:00:00Z</time>
      </trkpt>
      <trkpt lat="63.42612083" lon="10.38301367">
        <ele>16.155</ele>
        <time>1970-01-01T01:00:00Z</time>
      </trkpt>
      <trkpt lat="63.42614183" lon="10.38297667">
        <ele>16.155</ele>
        <time>1970-01-01T01:00:00Z</time>
      </trkpt>
      <trkpt lat="63.42616183" lon="10.38293917">
        <ele>15.697</ele>
        <time>1970-01-01T01:00:00Z</time>
      </trkpt>
      <trkpt lat="63.42618217" lon="10.38290583">
        <ele>15.697</ele>
        <time>1970-01-01T01:00:00Z</time>
      </trkpt>
      <trkpt lat="63.42620233" lon="10.38286767">
        <ele>15.393</ele>
        <time>1970-01-01T01:00:00Z</time>
      </trkpt>
      <trkpt lat="63.42622217" lon="10.38283083">
        <ele>15.393</ele>
        <time>1970-01-01T01:00:00Z</time>
      </trkpt>
      <trkpt lat="63.42624583" lon="10.38279217">
        <ele>15.088</ele>
        <time>1970-01-01T01:00:00Z</time>
      </trkpt>
      <trkpt lat="63.42626733" lon="10.3827565">
        <ele>15.088</ele>
        <time>1970-01-01T01:00:00Z</time>
      </trkpt>
      <trkpt lat="63.42628883" lon="10.38271683">
        <ele>14.783</ele>
        <time>1970-01-01T01:00:00Z</time>
      </trkpt>
      <trkpt lat="63.42630733" lon="10.38267833">
        <ele>14.783</ele>
        <time>1970-01-01T01:00:00Z</time>
      </trkpt>
      <trkpt lat="63.42632567" lon="10.38263683">
        <ele>14.478</ele>
        <time>1970-01-01T01:00:00Z</time>
      </trkpt>
      <trkpt lat="63.42634267" lon="10.382596">
        <ele>14.478</ele>
        <time>1970-01-01T01:00:00Z</time>
      </trkpt>
      <trkpt lat="63.42635833" lon="10.38255583">
        <ele>14.326</ele>
        <time>1970-01-01T01:00:00Z</time>
      </trkpt>
      <trkpt lat="63.42637583" lon="10.382516">
        <ele>14.326</ele>
        <time>1970-01-01T01:00:00Z</time>
      </trkpt>
      <trkpt lat="63.42639583" lon="10.38247717">
        <ele>14.021</ele>
        <time>1970-01-01T01:00:00Z</time>
      </trkpt>
      <trkpt lat="63.42641567" lon="10.38244067">
        <ele>14.021</ele>
        <time>1970-01-01T01:00:00Z</time>
      </trkpt>
      <trkpt lat="63.42643567" lon="10.38240233">
        <ele>13.716</ele>
        <time>1970-01-01T01:00:00Z</time>
      </trkpt>
      <trkpt lat="63.42645383" lon="10.38236467">
        <ele>13.716</ele>
        <time>1970-01-01T01:00:00Z</time>
      </trkpt>
      <trkpt lat="63.426474" lon="10.38232817">
        <ele>13.564</ele>
        <time>1970-01-01T01:00:00Z</time>
      </trkpt>
      <trkpt lat="63.426496" lon="10.38229783">
        <ele>13.564</ele>
        <time>1970-01-01T01:00:00Z</time>
      </trkpt>
      <trkpt lat="63.42652617" lon="10.382283">
        <ele>13.411</ele>
        <time>1970-01-01T01:00:00Z</time>
      </trkpt>
      <trkpt lat="63.42655933" lon="10.38227917">
        <ele>13.411</ele>
        <time>1970-01-01T01:00:00Z</time>
      </trkpt>
      <trkpt lat="63.42659333" lon="10.38229367">
        <ele>13.107</ele>
        <time>1970-01-01T01:00:00Z</time>
      </trkpt>
      <trkpt lat="63.42662133" lon="10.38231717">
        <ele>13.107</ele>
        <time>1970-01-01T01:00:00Z</time>
      </trkpt>
      <trkpt lat="63.42664533" lon="10.38235167">
        <ele>12.954</ele>
        <time>1970-01-01T01:00:00Z</time>
      </trkpt>
      <trkpt lat="63.42666733" lon="10.382402">
        <ele>12.954</ele>
        <time>1970-01-01T01:00:00Z</time>
      </trkpt>
      <trkpt lat="63.42668717" lon="10.3824575">
        <ele>12.802</ele>
        <time>1970-01-01T01:00:00Z</time>
      </trkpt>
      <trkpt lat="63.426709" lon="10.38251367">
        <ele>12.802</ele>
        <time>1970-01-01T01:00:00Z</time>
      </trkpt>
      <trkpt lat="63.4267305" lon="10.3825595">
        <ele>12.497</ele>
        <time>1970-01-01T01:00:00Z</time>
      </trkpt>
      <trkpt lat="63.42675267" lon="10.38260133">
        <ele>12.497</ele>
        <time>1970-01-01T01:00:00Z</time>
      </trkpt>
      <trkpt lat="63.42677567" lon="10.38264517">
        <ele>12.345</ele>
        <time>1970-01-01T01:00:00Z</time>
      </trkpt>
      <trkpt lat="63.42679833" lon="10.38268883">
        <ele>12.345</ele>
        <time>1970-01-01T01:00:00Z</time>
      </trkpt>
      <trkpt lat="63.426821" lon="10.38273117">
        <ele>12.04</ele>
        <time>1970-01-01T01:00:00Z</time>
      </trkpt>
      <trkpt lat="63.42684217" lon="10.38277433">
        <ele>12.04</ele>
        <time>1970-01-01T01:00:00Z</time>
      </trkpt>
      <trkpt lat="63.42686133" lon="10.38281917">
        <ele>11.887</ele>
        <time>1970-01-01T01:00:00Z</time>
      </trkpt>
      <trkpt lat="63.42688067" lon="10.382863">
        <ele>11.887</ele>
        <time>1970-01-01T01:00:00Z</time>
      </trkpt>
      <trkpt lat="63.42689833" lon="10.38290533">
        <ele>11.583</ele>
        <time>1970-01-01T01:00:00Z</time>
      </trkpt>
      <trkpt lat="63.42691683" lon="10.38294667">
        <ele>11.583</ele>
        <time>1970-01-01T01:00:00Z</time>
      </trkpt>
      <trkpt lat="63.4269335" lon="10.38299017">
        <ele>11.278</ele>
        <time>1970-01-01T01:00:00Z</time>
      </trkpt>
      <trkpt lat="63.4269505" lon="10.38303467">
        <ele>11.278</ele>
        <time>1970-01-01T01:00:00Z</time>
      </trkpt>
      <trkpt lat="63.4269665" lon="10.38307817">
        <ele>11.125</ele>
        <time>1970-01-01T01:00:00Z</time>
      </trkpt>
      <trkpt lat="63.4269825" lon="10.383123">
        <ele>11.125</ele>
        <time>1970-01-01T01:00:00Z</time>
      </trkpt>
      <trkpt lat="63.426998" lon="10.38316983">
        <ele>10.821</ele>
        <time>1970-01-01T01:00:00Z</time>
      </trkpt>
      <trkpt lat="63.427013" lon="10.3832155">
        <ele>10.821</ele>
        <time>1970-01-01T01:00:00Z</time>
      </trkpt>
      <trkpt lat="63.4270295" lon="10.3832605">
        <ele>10.363</ele>
        <time>1970-01-01T01:00:00Z</time>
      </trkpt>
      <trkpt lat="63.427046" lon="10.38330283">
        <ele>10.363</ele>
        <time>1970-01-01T01:00:00Z</time>
      </trkpt>
      <trkpt lat="63.42706383" lon="10.38334433">
        <ele>10.059</ele>
        <time>1970-01-01T01:00:00Z</time>
      </trkpt>
      <trkpt lat="63.4270835" lon="10.38338783">
        <ele>10.059</ele>
        <time>1970-01-01T01:00:00Z</time>
      </trkpt>
      <trkpt lat="63.42710283" lon="10.383429">
        <ele>9.754</ele>
        <time>1970-01-01T01:00:00Z</time>
      </trkpt>
      <trkpt lat="63.42712317" lon="10.38347017">
        <ele>9.754</ele>
        <time>1970-01-01T01:00:00Z</time>
      </trkpt>
      <trkpt lat="63.42714133" lon="10.38351133">
        <ele>9.449</ele>
        <time>1970-01-01T01:00:00Z</time>
      </trkpt>
      <trkpt lat="63.42716017" lon="10.38355233">
        <ele>9.449</ele>
        <time>1970-01-01T01:00:00Z</time>
      </trkpt>
      <trkpt lat="63.427179" lon="10.38359483">
        <ele>9.144</ele>
        <time>1970-01-01T01:00:00Z</time>
      </trkpt>
      <trkpt lat="63.42719983" lon="10.38363683">
        <ele>9.144</ele>
        <time>1970-01-01T01:00:00Z</time>
      </trkpt>
      <trkpt lat="63.42721883" lon="10.3836805">
        <ele>8.839</ele>
        <time>1970-01-01T01:00:00Z</time>
      </trkpt>
      <trkpt lat="63.42723783" lon="10.3837255">
        <ele>8.839</ele>
        <time>1970-01-01T01:00:00Z</time>
      </trkpt>
      <trkpt lat="63.42725433" lon="10.38377183">
        <ele>8.535</ele>
        <time>1970-01-01T01:00:00Z</time>
      </trkpt>
      <trkpt lat="63.4272715" lon="10.38382">
        <ele>8.535</ele>
        <time>1970-01-01T01:00:00Z</time>
      </trkpt>
      <trkpt lat="63.42728883" lon="10.38386917">
        <ele>8.23</ele>
        <time>1970-01-01T01:00:00Z</time>
      </trkpt>
      <trkpt lat="63.42730667" lon="10.38391467">
        <ele>8.23</ele>
        <time>1970-01-01T01:00:00Z</time>
      </trkpt>
      <trkpt lat="63.4273265" lon="10.383957">
        <ele>7.925</ele>
        <time>1970-01-01T01:00:00Z</time>
      </trkpt>
      <trkpt lat="63.42734683" lon="10.38399767">
        <ele>7.925</ele>
        <time>1970-01-01T01:00:00Z</time>
      </trkpt>
      <trkpt lat="63.427367" lon="10.38403633">
        <ele>7.62</ele>
        <time>1970-01-01T01:00:00Z</time>
      </trkpt>
      <trkpt lat="63.427386" lon="10.38407883">
        <ele>7.62</ele>
        <time>1970-01-01T01:00:00Z</time>
      </trkpt>
      <trkpt lat="63.42740417" lon="10.384121">
        <ele>7.468</ele>
        <time>1970-01-01T01:00:00Z</time>
      </trkpt>
      <trkpt lat="63.4274215" lon="10.38416583">
        <ele>7.468</ele>
        <time>1970-01-01T01:00:00Z</time>
      </trkpt>
      <trkpt lat="63.4274395" lon="10.38421233">
        <ele>7.163</ele>
        <time>1970-01-01T01:00:00Z</time>
      </trkpt>
      <trkpt lat="63.42745733" lon="10.3842595">
        <ele>7.163</ele>
        <time>1970-01-01T01:00:00Z</time>
      </trkpt>
      <trkpt lat="63.4274755" lon="10.38430783">
        <ele>6.858</ele>
        <time>1970-01-01T01:00:00Z</time>
      </trkpt>
      <trkpt lat="63.42749233" lon="10.384356">
        <ele>6.858</ele>
        <time>1970-01-01T01:00:00Z</time>
      </trkpt>
      <trkpt lat="63.42750867" lon="10.3844015">
        <ele>6.553</ele>
        <time>1970-01-01T01:00:00Z</time>
      </trkpt>
      <trkpt lat="63.42752533" lon="10.38444667">
        <ele>6.553</ele>
        <time>1970-01-01T01:00:00Z</time>
      </trkpt>
      <trkpt lat="63.42754367" lon="10.38448883">
        <ele>6.401</ele>
        <time>1970-01-01T01:00:00Z</time>
      </trkpt>
      <trkpt lat="63.42756267" lon="10.38453">
        <ele>6.401</ele>
        <time>1970-01-01T01:00:00Z</time>
      </trkpt>
      <trkpt lat="63.42758333" lon="10.38457133">
        <ele>6.096</ele>
        <time>1970-01-01T01:00:00Z</time>
      </trkpt>
      <trkpt lat="63.42760283" lon="10.38461217">
        <ele>6.096</ele>
        <time>1970-01-01T01:00:00Z</time>
      </trkpt>
      <trkpt lat="63.42762183" lon="10.38465617">
        <ele>5.791</ele>
        <time>1970-01-01T01:00:00Z</time>
      </trkpt>
      <trkpt lat="63.42764183" lon="10.3846995">
        <ele>5.791</ele>
        <time>1970-01-01T01:00:00Z</time>
      </trkpt>
      <trkpt lat="63.42766333" lon="10.3847365">
        <ele>5.639</ele>
        <time>1970-01-01T01:00:00Z</time>
      </trkpt>
      <trkpt lat="63.42768583" lon="10.38477267">
        <ele>5.639</ele>
        <time>1970-01-01T01:00:00Z</time>
      </trkpt>
      <trkpt lat="63.42770683" lon="10.3848085">
        <ele>5.334</ele>
        <time>1970-01-01T01:00:00Z</time>
      </trkpt>
      <trkpt lat="63.42772733" lon="10.38484817">
        <ele>5.334</ele>
        <time>1970-01-01T01:00:00Z</time>
      </trkpt>
      <trkpt lat="63.42774867" lon="10.38488367">
        <ele>5.182</ele>
        <time>1970-01-01T01:00:00Z</time>
      </trkpt>
      <trkpt lat="63.4277695" lon="10.384916">
        <ele>5.182</ele>
        <time>1970-01-01T01:00:00Z</time>
      </trkpt>
      <trkpt lat="63.42779083" lon="10.384945">
        <ele>4.877</ele>
        <time>1970-01-01T01:00:00Z</time>
      </trkpt>
      <trkpt lat="63.42781233" lon="10.38497033">
        <ele>4.877</ele>
        <time>1970-01-01T01:00:00Z</time>
      </trkpt>
      <trkpt lat="63.42783433" lon="10.384993">
        <ele>4.724</ele>
        <time>1970-01-01T01:00:00Z</time>
      </trkpt>
      <trkpt lat="63.42785617" lon="10.3850115">
        <ele>4.724</ele>
        <time>1970-01-01T01:00:00Z</time>
      </trkpt>
      <trkpt lat="63.42787767" lon="10.38502667">
        <ele>4.572</ele>
        <time>1970-01-01T01:00:00Z</time>
      </trkpt>
      <trkpt lat="63.427896" lon="10.38503683">
        <ele>4.572</ele>
        <time>1970-01-01T01:00:00Z</time>
      </trkpt>
      <trkpt lat="63.42791083" lon="10.385044">
        <ele>4.42</ele>
        <time>1970-01-01T01:00:00Z</time>
      </trkpt>
      <trkpt lat="63.427923" lon="10.3850485">
        <ele>4.42</ele>
        <time>1970-01-01T01:00:00Z</time>
      </trkpt>
      <trkpt lat="63.42793533" lon="10.38504983">
        <ele>4.267</ele>
        <time>1970-01-01T01:00:00Z</time>
      </trkpt>
      <trkpt lat="63.42794983" lon="10.38505533">
        <ele>4.267</ele>
        <time>1970-01-01T01:00:00Z</time>
      </trkpt>
      <trkpt lat="63.42796567" lon="10.38506267">
        <ele>4.115</ele>
        <time>1970-01-01T01:00:00Z</time>
      </trkpt>
      <trkpt lat="63.4279815" lon="10.38507133">
        <ele>4.115</ele>
        <time>1970-01-01T01:00:00Z</time>
      </trkpt>
      <trkpt lat="63.4279985" lon="10.3850765">
        <ele>3.962</ele>
        <time>1970-01-01T01:00:00Z</time>
      </trkpt>
      <trkpt lat="63.42801433" lon="10.385082">
        <ele>3.962</ele>
        <time>1970-01-01T01:00:00Z</time>
      </trkpt>
      <trkpt lat="63.42803117" lon="10.38508333">
        <ele>3.658</ele>
        <time>1970-01-01T01:00:00Z</time>
      </trkpt>
      <trkpt lat="63.42804583" lon="10.3850835">
        <ele>3.658</ele>
        <time>1970-01-01T01:00:00Z</time>
      </trkpt>
      <trkpt lat="63.428063" lon="10.38508083">
        <ele>3.505</ele>
        <time>1970-01-01T01:00:00Z</time>
      </trkpt>
      <trkpt lat="63.42807983" lon="10.3850815">
        <ele>3.505</ele>
        <time>1970-01-01T01:00:00Z</time>
      </trkpt>
      <trkpt lat="63.42809783" lon="10.38508417">
        <ele>3.353</ele>
        <time>1970-01-01T01:00:00Z</time>
      </trkpt>
      <trkpt lat="63.42811567" lon="10.38508717">
        <ele>3.353</ele>
        <time>1970-01-01T01:00:00Z</time>
      </trkpt>
      <trkpt lat="63.42813583" lon="10.38508967">
        <ele>3.353</ele>
        <time>1970-01-01T01:00:00Z</time>
      </trkpt>
      <trkpt lat="63.42815583" lon="10.38509283">
        <ele>3.353</ele>
        <time>1970-01-01T01:00:00Z</time>
      </trkpt>
      <trkpt lat="63.42817383" lon="10.3850955">
        <ele>3.353</ele>
        <time>1970-01-01T01:00:00Z</time>
      </trkpt>
      <trkpt lat="63.4281925" lon="10.3850965">
        <ele>3.353</ele>
        <time>1970-01-01T01:00:00Z</time>
      </trkpt>
      <trkpt lat="63.42821167" lon="10.38509233">
        <ele>3.2</ele>
        <time>1970-01-01T01:00:00Z</time>
      </trkpt>
      <trkpt lat="63.42823217" lon="10.38508717">
        <ele>3.2</ele>
        <time>1970-01-01T01:00:00Z</time>
      </trkpt>
      <trkpt lat="63.42825067" lon="10.38508467">
        <ele>3.353</ele>
        <time>1970-01-01T01:00:00Z</time>
      </trkpt>
      <trkpt lat="63.42826783" lon="10.3850835">
        <ele>3.353</ele>
        <time>1970-01-01T01:00:00Z</time>
      </trkpt>
      <trkpt lat="63.42828433" lon="10.38508133">
        <ele>3.353</ele>
        <time>1970-01-01T01:00:00Z</time>
      </trkpt>
      <trkpt lat="63.42830067" lon="10.3850745">
        <ele>3.353</ele>
        <time>1970-01-01T01:00:00Z</time>
      </trkpt>
      <trkpt lat="63.428319" lon="10.38506133">
        <ele>3.505</ele>
        <time>1970-01-01T01:00:00Z</time>
      </trkpt>
      <trkpt lat="63.42833767" lon="10.385038">
        <ele>3.505</ele>
        <time>1970-01-01T01:00:00Z</time>
      </trkpt>
      <trkpt lat="63.42835633" lon="10.385005">
        <ele>3.505</ele>
        <time>1970-01-01T01:00:00Z</time>
      </trkpt>
      <trkpt lat="63.42836833" lon="10.38496533">
        <ele>3.505</ele>
        <time>1970-01-01T01:00:00Z</time>
      </trkpt>
      <trkpt lat="63.42837717" lon="10.38491883">
        <ele>3.658</ele>
        <time>1970-01-01T01:00:00Z</time>
      </trkpt>
      <trkpt lat="63.42838333" lon="10.38487133">
        <ele>3.658</ele>
        <time>1970-01-01T01:00:00Z</time>
      </trkpt>
      <trkpt lat="63.42839917" lon="10.3848205">
        <ele>3.81</ele>
        <time>1970-01-01T01:00:00Z</time>
      </trkpt>
      <trkpt lat="63.42841883" lon="10.38477267">
        <ele>3.81</ele>
        <time>1970-01-01T01:00:00Z</time>
      </trkpt>
      <trkpt lat="63.42843933" lon="10.38472333">
        <ele>4.115</ele>
        <time>1970-01-01T01:00:00Z</time>
      </trkpt>
      <trkpt lat="63.42845183" lon="10.38467283">
        <ele>4.115</ele>
        <time>1970-01-01T01:00:00Z</time>
      </trkpt>
      <trkpt lat="63.42845833" lon="10.38461383">
        <ele>4.42</ele>
        <time>1970-01-01T01:00:00Z</time>
      </trkpt>
      <trkpt lat="63.42846283" lon="10.38455267">
        <ele>4.42</ele>
        <time>1970-01-01T01:00:00Z</time>
      </trkpt>
      <trkpt lat="63.428471" lon="10.384488">
        <ele>4.724</ele>
        <time>1970-01-01T01:00:00Z</time>
      </trkpt>
      <trkpt lat="63.42848183" lon="10.3844275">
        <ele>4.724</ele>
        <time>1970-01-01T01:00:00Z</time>
      </trkpt>
      <trkpt lat="63.4284935" lon="10.38436783">
        <ele>5.182</ele>
        <time>1970-01-01T01:00:00Z</time>
      </trkpt>
      <trkpt lat="63.42850417" lon="10.384311">
        <ele>5.182</ele>
        <time>1970-01-01T01:00:00Z</time>
      </trkpt>
      <trkpt lat="63.428516" lon="10.38426">
        <ele>5.486</ele>
        <time>1970-01-01T01:00:00Z</time>
      </trkpt>
      <trkpt lat="63.4285275" lon="10.3842095">
        <ele>5.486</ele>
        <time>1970-01-01T01:00:00Z</time>
      </trkpt>
      <trkpt lat="63.42853917" lon="10.38416117">
        <ele>5.944</ele>
        <time>1970-01-01T01:00:00Z</time>
      </trkpt>
      <trkpt lat="63.4285505" lon="10.3841175">
        <ele>5.944</ele>
        <time>1970-01-01T01:00:00Z</time>
      </trkpt>
      <trkpt lat="63.42856233" lon="10.38407767">
        <ele>6.248</ele>
        <time>1970-01-01T01:00:00Z</time>
      </trkpt>
      <trkpt lat="63.42857033" lon="10.3840395">
        <ele>6.248</ele>
        <time>1970-01-01T01:00:00Z</time>
      </trkpt>
      <trkpt lat="63.42857617" lon="10.383998">
        <ele>6.706</ele>
        <time>1970-01-01T01:00:00Z</time>
      </trkpt>
      <trkpt lat="63.42858117" lon="10.38395383">
        <ele>6.706</ele>
        <time>1970-01-01T01:00:00Z</time>
      </trkpt>
      <trkpt lat="63.42858817" lon="10.38391067">
        <ele>7.315</ele>
        <time>1970-01-01T01:00:00Z</time>
      </trkpt>
      <trkpt lat="63.42859583" lon="10.38387">
        <ele>7.315</ele>
        <time>1970-01-01T01:00:00Z</time>
      </trkpt>
      <trkpt lat="63.42860433" lon="10.3838255">
        <ele>7.772</ele>
        <time>1970-01-01T01:00:00Z</time>
      </trkpt>
      <trkpt lat="63.4286115" lon="10.38377633">
        <ele>7.772</ele>
        <time>1970-01-01T01:00:00Z</time>
      </trkpt>
      <trkpt lat="63.42862117" lon="10.383722">
        <ele>8.382</ele>
        <time>1970-01-01T01:00:00Z</time>
      </trkpt>
      <trkpt lat="63.428632" lon="10.38366083">
        <ele>8.382</ele>
        <time>1970-01-01T01:00:00Z</time>
      </trkpt>
      <trkpt lat="63.42864517" lon="10.38360283">
        <ele>8.839</ele>
        <time>1970-01-01T01:00:00Z</time>
      </trkpt>
      <trkpt lat="63.428658" lon="10.383544">
        <ele>8.839</ele>
        <time>1970-01-01T01:00:00Z</time>
      </trkpt>
      <trkpt lat="63.42867167" lon="10.38348783">
        <ele>9.449</ele>
        <time>1970-01-01T01:00:00Z</time>
      </trkpt>
      <trkpt lat="63.428684" lon="10.38343017">
        <ele>9.449</ele>
        <time>1970-01-01T01:00:00Z</time>
      </trkpt>
      <trkpt lat="63.42869717" lon="10.38336183">
        <ele>9.906</ele>
        <time>1970-01-01T01:00:00Z</time>
      </trkpt>
      <trkpt lat="63.42871017" lon="10.38329883">
        <ele>9.906</ele>
        <time>1970-01-01T01:00:00Z</time>
      </trkpt>
      <trkpt lat="63.42872783" lon="10.38323333">
        <ele>10.363</ele>
        <time>1970-01-01T01:00:00Z</time>
      </trkpt>
      <trkpt lat="63.42874383" lon="10.38317333">
        <ele>10.363</ele>
        <time>1970-01-01T01:00:00Z</time>
      </trkpt>
      <trkpt lat="63.4287585" lon="10.38311783">
        <ele>10.821</ele>
        <time>1970-01-01T01:00:00Z</time>
      </trkpt>
      <trkpt lat="63.42876933" lon="10.38305917">
        <ele>10.821</ele>
        <time>1970-01-01T01:00:00Z</time>
      </trkpt>
      <trkpt lat="63.428781" lon="10.38300517">
        <ele>11.125</ele>
        <time>1970-01-01T01:00:00Z</time>
      </trkpt>
      <trkpt lat="63.42879417" lon="10.38294767">
        <ele>11.125</ele>
        <time>1970-01-01T01:00:00Z</time>
      </trkpt>
      <trkpt lat="63.42880933" lon="10.38289283">
        <ele>11.43</ele>
        <time>1970-01-01T01:00:00Z</time>
      </trkpt>
      <trkpt lat="63.42882567" lon="10.38283917">
        <ele>11.43</ele>
        <time>1970-01-01T01:00:00Z</time>
      </trkpt>
      <trkpt lat="63.42884533" lon="10.38278633">
        <ele>11.735</ele>
        <time>1970-01-01T01:00:00Z</time>
      </trkpt>
      <trkpt lat="63.42886267" lon="10.382736">
        <ele>11.735</ele>
        <time>1970-01-01T01:00:00Z</time>
      </trkpt>
      <trkpt lat="63.42887733" lon="10.382686">
        <ele>12.04</ele>
        <time>1970-01-01T01:00:00Z</time>
      </trkpt>
      <trkpt lat="63.428888" lon="10.3826355">
        <ele>12.04</ele>
        <time>1970-01-01T01:00:00Z</time>
      </trkpt>
      <trkpt lat="63.42889633" lon="10.38258483">
        <ele>12.192</ele>
        <time>1970-01-01T01:00:00Z</time>
      </trkpt>
      <trkpt lat="63.42890717" lon="10.382533">
        <ele>12.192</ele>
        <time>1970-01-01T01:00:00Z</time>
      </trkpt>
      <trkpt lat="63.42892" lon="10.3824815">
        <ele>12.345</ele>
        <time>1970-01-01T01:00:00Z</time>
      </trkpt>
      <trkpt lat="63.4289325" lon="10.3824315">
        <ele>12.345</ele>
        <time>1970-01-01T01:00:00Z</time>
      </trkpt>
      <trkpt lat="63.428946" lon="10.38238017">
        <ele>12.497</ele>
        <time>1970-01-01T01:00:00Z</time>
      </trkpt>
      <trkpt lat="63.42895967" lon="10.3823345">
        <ele>12.497</ele>
        <time>1970-01-01T01:00:00Z</time>
      </trkpt>
      <trkpt lat="63.42897783" lon="10.38229217">
        <ele>12.649</ele>
        <time>1970-01-01T01:00:00Z</time>
      </trkpt>
      <trkpt lat="63.42899867" lon="10.38224483">
        <ele>12.649</ele>
        <time>1970-01-01T01:00:00Z</time>
      </trkpt>
      <trkpt lat="63.42902033" lon="10.38219533">
        <ele>12.802</ele>
        <time>1970-01-01T01:00:00Z</time>
      </trkpt>
      <trkpt lat="63.4290405" lon="10.38214333">
        <ele>12.802</ele>
        <time>1970-01-01T01:00:00Z</time>
      </trkpt>
      <trkpt lat="63.42905883" lon="10.38209733">
        <ele>12.954</ele>
        <time>1970-01-01T01:00:00Z</time>
      </trkpt>
      <trkpt lat="63.42907333" lon="10.38204833">
        <ele>12.954</ele>
        <time>1970-01-01T01:00:00Z</time>
      </trkpt>
      <trkpt lat="63.42908817" lon="10.38200017">
        <ele>13.107</ele>
        <time>1970-01-01T01:00:00Z</time>
      </trkpt>
      <trkpt lat="63.429102" lon="10.38195483">
        <ele>13.107</ele>
        <time>1970-01-01T01:00:00Z</time>
      </trkpt>
      <trkpt lat="63.42911533" lon="10.38190767">
        <ele>13.259</ele>
        <time>1970-01-01T01:00:00Z</time>
      </trkpt>
      <trkpt lat="63.42912917" lon="10.38186317">
        <ele>13.259</ele>
        <time>1970-01-01T01:00:00Z</time>
      </trkpt>
      <trkpt lat="63.42914367" lon="10.381821">
        <ele>13.411</ele>
        <time>1970-01-01T01:00:00Z</time>
      </trkpt>
      <trkpt lat="63.42915833" lon="10.38178233">
        <ele>13.411</ele>
        <time>1970-01-01T01:00:00Z</time>
      </trkpt>
      <trkpt lat="63.42917083" lon="10.38174317">
        <ele>13.564</ele>
        <time>1970-01-01T01:00:00Z</time>
      </trkpt>
      <trkpt lat="63.42917983" lon="10.3817025">
        <ele>13.564</ele>
        <time>1970-01-01T01:00:00Z</time>
      </trkpt>
      <trkpt lat="63.429189" lon="10.38165733">
        <ele>13.716</ele>
        <time>1970-01-01T01:00:00Z</time>
      </trkpt>
      <trkpt lat="63.42919883" lon="10.38160967">
        <ele>13.716</ele>
        <time>1970-01-01T01:00:00Z</time>
      </trkpt>
      <trkpt lat="63.42920867" lon="10.38156033">
        <ele>13.869</ele>
        <time>1970-01-01T01:00:00Z</time>
      </trkpt>
      <trkpt lat="63.42921667" lon="10.38151867">
        <ele>13.869</ele>
        <time>1970-01-01T01:00:00Z</time>
      </trkpt>
      <trkpt lat="63.429223" lon="10.3814805">
        <ele>14.021</ele>
        <time>1970-01-01T01:00:00Z</time>
      </trkpt>
      <trkpt lat="63.42923017" lon="10.381442">
        <ele>14.021</ele>
        <time>1970-01-01T01:00:00Z</time>
      </trkpt>
      <trkpt lat="63.42924" lon="10.38140167">
        <ele>14.326</ele>
        <time>1970-01-01T01:00:00Z</time>
      </trkpt>
      <trkpt lat="63.4292495" lon="10.38135733">
        <ele>14.326</ele>
        <time>1970-01-01T01:00:00Z</time>
      </trkpt>
      <trkpt lat="63.429258" lon="10.38130683">
        <ele>14.631</ele>
        <time>1970-01-01T01:00:00Z</time>
      </trkpt>
      <trkpt lat="63.4292665" lon="10.38124967">
        <ele>14.631</ele>
        <time>1970-01-01T01:00:00Z</time>
      </trkpt>
      <trkpt lat="63.4292775" lon="10.38119083">
        <ele>14.935</ele>
        <time>1970-01-01T01:00:00Z</time>
      </trkpt>
      <trkpt lat="63.429287" lon="10.38113317">
        <ele>14.935</ele>
        <time>1970-01-01T01:00:00Z</time>
      </trkpt>
      <trkpt lat="63.4292945" lon="10.38107667">
        <ele>15.393</ele>
        <time>1970-01-01T01:00:00Z</time>
      </trkpt>
      <trkpt lat="63.42929817" lon="10.38101733">
        <ele>15.393</ele>
        <time>1970-01-01T01:00:00Z</time>
      </trkpt>
      <trkpt lat="63.42930117" lon="10.3809625">
        <ele>15.697</ele>
        <time>1970-01-01T01:00:00Z</time>
      </trkpt>
      <trkpt lat="63.4293025" lon="10.380907">
        <ele>15.697</ele>
        <time>1970-01-01T01:00:00Z</time>
      </trkpt>
      <trkpt lat="63.4293045" lon="10.38084983">
        <ele>16.002</ele>
        <time>1970-01-01T01:00:00Z</time>
      </trkpt>
      <trkpt lat="63.429307" lon="10.38079117">
        <ele>16.002</ele>
        <time>1970-01-01T01:00:00Z</time>
      </trkpt>
      <trkpt lat="63.42931" lon="10.38072883">
        <ele>16.459</ele>
        <time>1970-01-01T01:00:00Z</time>
      </trkpt>
      <trkpt lat="63.42931217" lon="10.3806675">
        <ele>16.459</ele>
        <time>1970-01-01T01:00:00Z</time>
      </trkpt>
      <trkpt lat="63.42931433" lon="10.38060667">
        <ele>16.764</ele>
        <time>1970-01-01T01:00:00Z</time>
      </trkpt>
      <trkpt lat="63.42931883" lon="10.38055267">
        <ele>16.764</ele>
        <time>1970-01-01T01:00:00Z</time>
      </trkpt>
      <trkpt lat="63.42932783" lon="10.38050367">
        <ele>17.069</ele>
        <time>1970-01-01T01:00:00Z</time>
      </trkpt>
      <trkpt lat="63.42934" lon="10.380457">
        <ele>17.069</ele>
        <time>1970-01-01T01:00:00Z</time>
      </trkpt>
      <trkpt lat="63.42935467" lon="10.380415">
        <ele>17.526</ele>
        <time>1970-01-01T01:00:00Z</time>
      </trkpt>
      <trkpt lat="63.42936867" lon="10.38037917">
        <ele>17.526</ele>
        <time>1970-01-01T01:00:00Z</time>
      </trkpt>
      <trkpt lat="63.42938483" lon="10.38034633">
        <ele>17.831</ele>
        <time>1970-01-01T01:00:00Z</time>
      </trkpt>
      <trkpt lat="63.4294035" lon="10.380312">
        <ele>17.831</ele>
        <time>1970-01-01T01:00:00Z</time>
      </trkpt>
      <trkpt lat="63.429422" lon="10.38027867">
        <ele>18.288</ele>
        <time>1970-01-01T01:00:00Z</time>
      </trkpt>
      <trkpt lat="63.42944233" lon="10.38023667">
        <ele>18.288</ele>
        <time>1970-01-01T01:00:00Z</time>
      </trkpt>
      <trkpt lat="63.4294585" lon="10.38018017">
        <ele>18.745</ele>
        <time>1970-01-01T01:00:00Z</time>
      </trkpt>
      <trkpt lat="63.429475" lon="10.38011">
        <ele>18.745</ele>
        <time>1970-01-01T01:00:00Z</time>
      </trkpt>
      <trkpt lat="63.42948733" lon="10.38003">
        <ele>19.05</ele>
        <time>1970-01-01T01:00:00Z</time>
      </trkpt>
      <trkpt lat="63.4295005" lon="10.3799585">
        <ele>19.05</ele>
        <time>1970-01-01T01:00:00Z</time>
      </trkpt>
      <trkpt lat="63.42951" lon="10.3798875">
        <ele>19.355</ele>
        <time>1970-01-01T01:00:00Z</time>
      </trkpt>
      <trkpt lat="63.4295185" lon="10.379829">
        <ele>19.355</ele>
        <time>1970-01-01T01:00:00Z</time>
      </trkpt>
      <trkpt lat="63.429525" lon="10.37977083">
        <ele>19.507</ele>
        <time>1970-01-01T01:00:00Z</time>
      </trkpt>
      <trkpt lat="63.42953217" lon="10.37971467">
        <ele>19.507</ele>
        <time>1970-01-01T01:00:00Z</time>
      </trkpt>
      <trkpt lat="63.42953933" lon="10.37965733">
        <ele>19.66</ele>
        <time>1970-01-01T01:00:00Z</time>
      </trkpt>
      <trkpt lat="63.4295465" lon="10.379598">
        <ele>19.66</ele>
        <time>1970-01-01T01:00:00Z</time>
      </trkpt>
      <trkpt lat="63.42955367" lon="10.37953517">
        <ele>19.66</ele>
        <time>1970-01-01T01:00:00Z</time>
      </trkpt>
      <trkpt lat="63.42956117" lon="10.3794755">
        <ele>19.66</ele>
        <time>1970-01-01T01:00:00Z</time>
      </trkpt>
      <trkpt lat="63.42957" lon="10.37941417">
        <ele>19.66</ele>
        <time>1970-01-01T01:00:00Z</time>
      </trkpt>
      <trkpt lat="63.42958233" lon="10.379355">
        <ele>19.66</ele>
        <time>1970-01-01T01:00:00Z</time>
      </trkpt>
      <trkpt lat="63.42959467" lon="10.3792925">
        <ele>19.66</ele>
        <time>1970-01-01T01:00:00Z</time>
      </trkpt>
      <trkpt lat="63.42960667" lon="10.379231">
        <ele>19.66</ele>
        <time>1970-01-01T01:00:00Z</time>
      </trkpt>
      <trkpt lat="63.42961433" lon="10.37917567">
        <ele>19.66</ele>
        <time>1970-01-01T01:00:00Z</time>
      </trkpt>
      <trkpt lat="63.42962067" lon="10.37912367">
        <ele>19.66</ele>
        <time>1970-01-01T01:00:00Z</time>
      </trkpt>
      <trkpt lat="63.42962483" lon="10.37907017">
        <ele>19.66</ele>
        <time>1970-01-01T01:00:00Z</time>
      </trkpt>
      <trkpt lat="63.42962817" lon="10.3790115">
        <ele>19.66</ele>
        <time>1970-01-01T01:00:00Z</time>
      </trkpt>
      <trkpt lat="63.429631" lon="10.37894483">
        <ele>19.66</ele>
        <time>1970-01-01T01:00:00Z</time>
      </trkpt>
      <trkpt lat="63.429632" lon="10.3788785">
        <ele>19.66</ele>
        <time>1970-01-01T01:00:00Z</time>
      </trkpt>
      <trkpt lat="63.42963267" lon="10.37881733">
        <ele>19.507</ele>
        <time>1970-01-01T01:00:00Z</time>
      </trkpt>
      <trkpt lat="63.42963167" lon="10.378758">
        <ele>19.507</ele>
        <time>1970-01-01T01:00:00Z</time>
      </trkpt>
      <trkpt lat="63.42963133" lon="10.37870333">
        <ele>19.355</ele>
        <time>1970-01-01T01:00:00Z</time>
      </trkpt>
      <trkpt lat="63.429631" lon="10.3786455">
        <ele>19.355</ele>
        <time>1970-01-01T01:00:00Z</time>
      </trkpt>
      <trkpt lat="63.4296305" lon="10.37858483">
        <ele>19.203</ele>
        <time>1970-01-01T01:00:00Z</time>
      </trkpt>
      <trkpt lat="63.42963017" lon="10.37852267">
        <ele>19.203</ele>
        <time>1970-01-01T01:00:00Z</time>
      </trkpt>
      <trkpt lat="63.42963217" lon="10.37845917">
        <ele>19.05</ele>
        <time>1970-01-01T01:00:00Z</time>
      </trkpt>
      <trkpt lat="63.42963483" lon="10.37839967">
        <ele>19.05</ele>
        <time>1970-01-01T01:00:00Z</time>
      </trkpt>
      <trkpt lat="63.4296365" lon="10.37834167">
        <ele>18.745</ele>
        <time>1970-01-01T01:00:00Z</time>
      </trkpt>
      <trkpt lat="63.42963667" lon="10.37828233">
        <ele>18.745</ele>
        <time>1970-01-01T01:00:00Z</time>
      </trkpt>
      <trkpt lat="63.42963683" lon="10.37822767">
        <ele>18.593</ele>
        <time>1970-01-01T01:00:00Z</time>
      </trkpt>
      <trkpt lat="63.42964" lon="10.37817317">
        <ele>18.593</ele>
        <time>1970-01-01T01:00:00Z</time>
      </trkpt>
      <trkpt lat="63.4296425" lon="10.37812067">
        <ele>18.288</ele>
        <time>1970-01-01T01:00:00Z</time>
      </trkpt>
      <trkpt lat="63.42964333" lon="10.37806617">
        <ele>18.288</ele>
        <time>1970-01-01T01:00:00Z</time>
      </trkpt>
      <trkpt lat="63.429642" lon="10.37801017">
        <ele>17.983</ele>
        <time>1970-01-01T01:00:00Z</time>
      </trkpt>
      <trkpt lat="63.4296405" lon="10.37795233">
        <ele>17.983</ele>
        <time>1970-01-01T01:00:00Z</time>
      </trkpt>
      <trkpt lat="63.42964183" lon="10.377897">
        <ele>17.679</ele>
        <time>1970-01-01T01:00:00Z</time>
      </trkpt>
      <trkpt lat="63.42964483" lon="10.37783983">
        <ele>17.679</ele>
        <time>1970-01-01T01:00:00Z</time>
      </trkpt>
      <trkpt lat="63.42964917" lon="10.37778917">
        <ele>17.374</ele>
        <time>1970-01-01T01:00:00Z</time>
      </trkpt>
      <trkpt lat="63.42965383" lon="10.37773633">
        <ele>17.374</ele>
        <time>1970-01-01T01:00:00Z</time>
      </trkpt>
      <trkpt lat="63.42965567" lon="10.377685">
        <ele>17.069</ele>
        <time>1970-01-01T01:00:00Z</time>
      </trkpt>
      <trkpt lat="63.42965867" lon="10.37763067">
        <ele>17.069</ele>
        <time>1970-01-01T01:00:00Z</time>
      </trkpt>
      <trkpt lat="63.4296635" lon="10.37757567">
        <ele>16.764</ele>
        <time>1970-01-01T01:00:00Z</time>
      </trkpt>
      <trkpt lat="63.4296695" lon="10.37752067">
        <ele>16.764</ele>
        <time>1970-01-01T01:00:00Z</time>
      </trkpt>
      <trkpt lat="63.429675" lon="10.37746667">
        <ele>16.612</ele>
        <time>1970-01-01T01:00:00Z</time>
      </trkpt>
      <trkpt lat="63.42967583" lon="10.3774105">
        <ele>16.612</ele>
        <time>1970-01-01T01:00:00Z</time>
      </trkpt>
      <trkpt lat="63.42967533" lon="10.377356">
        <ele>16.307</ele>
        <time>1970-01-01T01:00:00Z</time>
      </trkpt>
      <trkpt lat="63.42967217" lon="10.37730267">
        <ele>16.307</ele>
        <time>1970-01-01T01:00:00Z</time>
      </trkpt>
      <trkpt lat="63.42967033" lon="10.37724817">
        <ele>16.155</ele>
        <time>1970-01-01T01:00:00Z</time>
      </trkpt>
      <trkpt lat="63.42967017" lon="10.37718467">
        <ele>16.155</ele>
        <time>1970-01-01T01:00:00Z</time>
      </trkpt>
      <trkpt lat="63.42966967" lon="10.37711483">
        <ele>16.002</ele>
        <time>1970-01-01T01:00:00Z</time>
      </trkpt>
      <trkpt lat="63.42966633" lon="10.377045">
        <ele>16.002</ele>
        <time>1970-01-01T01:00:00Z</time>
      </trkpt>
      <trkpt lat="63.42965867" lon="10.37698017">
        <ele>15.85</ele>
        <time>1970-01-01T01:00:00Z</time>
      </trkpt>
      <trkpt lat="63.4296515" lon="10.376913">
        <ele>15.85</ele>
        <time>1970-01-01T01:00:00Z</time>
      </trkpt>
      <trkpt lat="63.42964617" lon="10.3768515">
        <ele>15.697</ele>
        <time>1970-01-01T01:00:00Z</time>
      </trkpt>
      <trkpt lat="63.429646" lon="10.37678767">
        <ele>15.697</ele>
        <time>1970-01-01T01:00:00Z</time>
      </trkpt>
      <trkpt lat="63.4296485" lon="10.376725">
        <ele>15.545</ele>
        <time>1970-01-01T01:00:00Z</time>
      </trkpt>
      <trkpt lat="63.4296515" lon="10.37665767">
        <ele>15.545</ele>
        <time>1970-01-01T01:00:00Z</time>
      </trkpt>
      <trkpt lat="63.429653" lon="10.37659033">
        <ele>15.393</ele>
        <time>1970-01-01T01:00:00Z</time>
      </trkpt>
      <trkpt lat="63.42965333" lon="10.376525">
        <ele>15.393</ele>
        <time>1970-01-01T01:00:00Z</time>
      </trkpt>
      <trkpt lat="63.429654" lon="10.37646083">
        <ele>15.393</ele>
        <time>1970-01-01T01:00:00Z</time>
      </trkpt>
      <trkpt lat="63.42965117" lon="10.37640483">
        <ele>15.393</ele>
        <time>1970-01-01T01:00:00Z</time>
      </trkpt>
      <trkpt lat="63.42964883" lon="10.37635067">
        <ele>15.393</ele>
        <time>1970-01-01T01:00:00Z</time>
      </trkpt>
      <trkpt lat="63.42964583" lon="10.37629467">
        <ele>15.393</ele>
        <time>1970-01-01T01:00:00Z</time>
      </trkpt>
      <trkpt lat="63.42964733" lon="10.37623867">
        <ele>15.393</ele>
        <time>1970-01-01T01:00:00Z</time>
      </trkpt>
      <trkpt lat="63.42964917" lon="10.37618333">
        <ele>15.393</ele>
        <time>1970-01-01T01:00:00Z</time>
      </trkpt>
      <trkpt lat="63.42964967" lon="10.37612367">
        <ele>15.545</ele>
        <time>1970-01-01T01:00:00Z</time>
      </trkpt>
      <trkpt lat="63.42964783" lon="10.37605983">
        <ele>15.545</ele>
        <time>1970-01-01T01:00:00Z</time>
      </trkpt>
      <trkpt lat="63.42964583" lon="10.3759935">
        <ele>15.697</ele>
        <time>1970-01-01T01:00:00Z</time>
      </trkpt>
      <trkpt lat="63.42964733" lon="10.3759365">
        <ele>15.697</ele>
        <time>1970-01-01T01:00:00Z</time>
      </trkpt>
      <trkpt lat="63.42965083" lon="10.37589">
        <ele>15.85</ele>
        <time>1970-01-01T01:00:00Z</time>
      </trkpt>
      <trkpt lat="63.42964833" lon="10.37586417">
        <ele>15.85</ele>
        <time>1970-01-01T01:00:00Z</time>
      </trkpt>
      <trkpt lat="63.42963733" lon="10.3758625">
        <ele>16.002</ele>
        <time>1970-01-01T01:00:00Z</time>
      </trkpt>
      <trkpt lat="63.42962133" lon="10.37586983">
        <ele>16.002</ele>
        <time>1970-01-01T01:00:00Z</time>
      </trkpt>
      <trkpt lat="63.42960417" lon="10.37588717">
        <ele>16.155</ele>
        <time>1970-01-01T01:00:00Z</time>
      </trkpt>
      <trkpt lat="63.42959117" lon="10.3759035">
        <ele>16.155</ele>
        <time>1970-01-01T01:00:00Z</time>
      </trkpt>
      <trkpt lat="63.4295795" lon="10.3759345">
        <ele>16.459</ele>
        <time>1970-01-01T01:00:00Z</time>
      </trkpt>
      <trkpt lat="63.42956883" lon="10.3759655">
        <ele>16.459</ele>
        <time>1970-01-01T01:00:00Z</time>
      </trkpt>
      <trkpt lat="63.42955717" lon="10.37600067">
        <ele>16.612</ele>
        <time>1970-01-01T01:00:00Z</time>
      </trkpt>
      <trkpt lat="63.42954317" lon="10.37603483">
        <ele>16.612</ele>
        <time>1970-01-01T01:00:00Z</time>
      </trkpt>
      <trkpt lat="63.42953133" lon="10.37607083">
        <ele>16.917</ele>
        <time>1970-01-01T01:00:00Z</time>
      </trkpt>
      <trkpt lat="63.42952" lon="10.3761095">
        <ele>16.917</ele>
        <time>1970-01-01T01:00:00Z</time>
      </trkpt>
      <trkpt lat="63.4295105" lon="10.3761525">
        <ele>17.069</ele>
        <time>1970-01-01T01:00:00Z</time>
      </trkpt>
      <trkpt lat="63.42950033" lon="10.37620033">
        <ele>17.069</ele>
        <time>1970-01-01T01:00:00Z</time>
      </trkpt>
      <trkpt lat="63.4294895" lon="10.376249">
        <ele>17.221</ele>
        <time>1970-01-01T01:00:00Z</time>
      </trkpt>
      <trkpt lat="63.42947533" lon="10.3762915">
        <ele>17.221</ele>
        <time>1970-01-01T01:00:00Z</time>
      </trkpt>
      <trkpt lat="63.42946117" lon="10.37633417">
        <ele>17.374</ele>
        <time>1970-01-01T01:00:00Z</time>
      </trkpt>
      <trkpt lat="63.42944383" lon="10.37637633">
        <ele>17.374</ele>
        <time>1970-01-01T01:00:00Z</time>
      </trkpt>
      <trkpt lat="63.429424" lon="10.37641633">
        <ele>17.374</ele>
        <time>1970-01-01T01:00:00Z</time>
      </trkpt>
      <trkpt lat="63.4293975" lon="10.3764435">
        <ele>17.374</ele>
        <time>1970-01-01T01:00:00Z</time>
      </trkpt>
      <trkpt lat="63.42937067" lon="10.37646467">
        <ele>17.374</ele>
        <time>1970-01-01T01:00:00Z</time>
      </trkpt>
      <trkpt lat="63.4293455" lon="10.376493">
        <ele>17.374</ele>
        <time>1970-01-01T01:00:00Z</time>
      </trkpt>
      <trkpt lat="63.42931667" lon="10.37651433">
        <ele>17.374</ele>
        <time>1970-01-01T01:00:00Z</time>
      </trkpt>
      <trkpt lat="63.4292855" lon="10.37652583">
        <ele>17.374</ele>
        <time>1970-01-01T01:00:00Z</time>
      </trkpt>
      <trkpt lat="63.42925267" lon="10.3765325">
        <ele>17.374</ele>
        <time>1970-01-01T01:00:00Z</time>
      </trkpt>
      <trkpt lat="63.42922517" lon="10.376551">
        <ele>17.374</ele>
        <time>1970-01-01T01:00:00Z</time>
      </trkpt>
      <trkpt lat="63.4291995" lon="10.376578">
        <ele>17.221</ele>
        <time>1970-01-01T01:00:00Z</time>
      </trkpt>
      <trkpt lat="63.42917183" lon="10.376598">
        <ele>17.221</ele>
        <time>1970-01-01T01:00:00Z</time>
      </trkpt>
      <trkpt lat="63.429144" lon="10.37661617">
        <ele>17.069</ele>
        <time>1970-01-01T01:00:00Z</time>
      </trkpt>
      <trkpt lat="63.42911633" lon="10.376633">
        <ele>17.069</ele>
        <time>1970-01-01T01:00:00Z</time>
      </trkpt>
      <trkpt lat="63.4290935" lon="10.37665283">
        <ele>16.917</ele>
        <time>1970-01-01T01:00:00Z</time>
      </trkpt>
      <trkpt lat="63.42907217" lon="10.37667117">
        <ele>16.917</ele>
        <time>1970-01-01T01:00:00Z</time>
      </trkpt>
      <trkpt lat="63.429051" lon="10.37668817">
        <ele>16.917</ele>
        <time>1970-01-01T01:00:00Z</time>
      </trkpt>
      <trkpt lat="63.42902733" lon="10.376704">
        <ele>16.917</ele>
        <time>1970-01-01T01:00:00Z</time>
      </trkpt>
      <trkpt lat="63.42900283" lon="10.37672017">
        <ele>16.764</ele>
        <time>1970-01-01T01:00:00Z</time>
      </trkpt>
      <trkpt lat="63.42897633" lon="10.37673833">
        <ele>16.764</ele>
        <time>1970-01-01T01:00:00Z</time>
      </trkpt>
      <trkpt lat="63.42894933" lon="10.37675733">
        <ele>16.764</ele>
        <time>1970-01-01T01:00:00Z</time>
      </trkpt>
      <trkpt lat="63.42891717" lon="10.37677833">
        <ele>16.764</ele>
        <time>1970-01-01T01:00:00Z</time>
      </trkpt>
      <trkpt lat="63.4288865" lon="10.37679733">
        <ele>16.764</ele>
        <time>1970-01-01T01:00:00Z</time>
      </trkpt>
      <trkpt lat="63.42885433" lon="10.37680967">
        <ele>16.764</ele>
        <time>1970-01-01T01:00:00Z</time>
      </trkpt>
      <trkpt lat="63.42882467" lon="10.37681867">
        <ele>16.764</ele>
        <time>1970-01-01T01:00:00Z</time>
      </trkpt>
      <trkpt lat="63.4287955" lon="10.37682533">
        <ele>16.764</ele>
        <time>1970-01-01T01:00:00Z</time>
      </trkpt>
      <trkpt lat="63.42876917" lon="10.37683">
        <ele>16.764</ele>
        <time>1970-01-01T01:00:00Z</time>
      </trkpt>
      <trkpt lat="63.4287475" lon="10.37683433">
        <ele>16.764</ele>
        <time>1970-01-01T01:00:00Z</time>
      </trkpt>
      <trkpt lat="63.42872883" lon="10.3768335">
        <ele>16.764</ele>
        <time>1970-01-01T01:00:00Z</time>
      </trkpt>
      <trkpt lat="63.4287125" lon="10.37683317">
        <ele>16.764</ele>
        <time>1970-01-01T01:00:00Z</time>
      </trkpt>
      <trkpt lat="63.4286995" lon="10.37683167">
        <ele>16.764</ele>
        <time>1970-01-01T01:00:00Z</time>
      </trkpt>
      <trkpt lat="63.42868917" lon="10.37683533">
        <ele>16.764</ele>
        <time>1970-01-01T01:00:00Z</time>
      </trkpt>
      <trkpt lat="63.42868" lon="10.3768425">
        <ele>16.764</ele>
        <time>1970-01-01T01:00:00Z</time>
      </trkpt>
      <trkpt lat="63.428667" lon="10.37684767">
        <ele>16.764</ele>
        <time>1970-01-01T01:00:00Z</time>
      </trkpt>
      <trkpt lat="63.428655" lon="10.3768535">
        <ele>16.764</ele>
        <time>1970-01-01T01:00:00Z</time>
      </trkpt>
      <trkpt lat="63.4286435" lon="10.37685667">
        <ele>16.764</ele>
        <time>1970-01-01T01:00:00Z</time>
      </trkpt>
      <trkpt lat="63.4286355" lon="10.37686067">
        <ele>16.764</ele>
        <time>1970-01-01T01:00:00Z</time>
      </trkpt>
      <trkpt lat="63.4286235" lon="10.376859">
        <ele>16.764</ele>
        <time>1970-01-01T01:00:00Z</time>
      </trkpt>
      <trkpt lat="63.42861133" lon="10.376858">
        <ele>16.764</ele>
        <time>1970-01-01T01:00:00Z</time>
      </trkpt>
      <trkpt lat="63.428599" lon="10.376855">
        <ele>16.764</ele>
        <time>1970-01-01T01:00:00Z</time>
      </trkpt>
    </trkseg>
  </trk>
</gpx>